[[{"header":{"parameterUnit":"m.s-1","parameterCategory":1,"la1":30.6,"la2":28.766,"lo1":-90.7593,"lo2":-88.6598,"dx":0.0162,"dy":0.0183,"nx":116,"ny":114,"refTime":"2022-12-15T06:00:00:Z","depth":0,"parameterNumber":2,"parameterNumberName":"U-component_of_WINDS"},"data":[0.0,0.0,0.0,0.0,0.0,0.0,0.0,0.0,0.0,0.0,0.0,0.0,0.0,0.0,0.0,0.0,0.0,0.0,0.0,0.0,0.0,0.0,0.0,0.0,0.0,0.0,0.0,0.0,0.0,0.0,0.0,0.0,0.0,0.0,0.0,0.0,0.0,0.0,0.0,0.0,0.0,0.0,0.0,0.0,0.0,0.0,0.0,0.0,0.0,0.0,0.0,0.0,0.0,0.0,0.0,0.0,0.0,0.0,0.0,0.0,0.0,0.0,0.0,0.0,0.0,0.0,0.0,0.0,0.0,0.0,0.0,0.0,0.0,0.0,0.0,0.0,0.0,0.0,0.0,0.0,0.0,0.0,0.0,0.0,0.0,0.0,0.0,0.0,0.0,0.0,0.0,0.0,0.0,0.0,0.0,0.0,0.0,0.0,0.0,0.0,0.0,0.0,0.0,0.0,0.0,0.0,0.0,0.0,0.0,0.0,0.0,0.0,0.0,0.0,0.0,0.0,0.0,0.0,0.0,0.0,0.0,0.0,0.0,0.0,0.0,0.0,0.0,0.0,0.0,0.0,0.0,0.0,0.0,0.0,0.0,0.0,0.0,0.0,0.0,0.0,0.0,0.0,0.0,0.0,0.0,0.0,0.0,0.0,0.0,0.0,0.0,0.0,0.0,0.0,0.0,0.0,0.0,0.0,0.0,0.0,0.0,0.0,0.0,0.0,0.0,0.0,0.0,0.0,0.0,0.0,0.0,0.0,0.0,0.0,0.0,0.0,0.0,0.0,0.0,0.0,0.0,0.0,0.0,0.0,0.0,0.0,0.0,0.0,0.0,0.0,0.0,0.0,0.0,0.0,0.0,0.0,0.0,0.0,0.0,0.0,0.0,0.0,0.0,0.0,0.0,0.0,0.0,0.0,0.0,0.0,0.0,0.0,0.0,0.0,0.0,0.0,0.0,0.0,0.0,0.0,0.0,0.0,0.0,0.0,0.0,0.0,0.0,0.0,0.0,0.0,0.0,0.0,0.0,0.0,0.0,0.0,0.0,0.0,0.0,0.0,0.0,0.0,0.0,0.0,0.0,0.0,0.0,0.0,0.0,0.0,0.0,0.0,0.0,0.0,0.0,0.0,0.0,0.0,0.0,0.0,0.0,0.0,0.0,0.0,0.0,0.0,0.0,0.0,0.0,0.0,0.0,0.0,0.0,0.0,0.0,0.0,0.0,0.0,0.0,0.0,0.0,0.0,0.0,0.0,0.0,0.0,0.0,0.0,0.0,0.0,0.0,0.0,0.0,0.0,0.0,0.0,0.0,0.0,0.0,0.0,0.0,0.0,0.0,0.0,0.0,0.0,0.0,0.0,0.0,0.0,0.0,0.0,0.0,0.0,0.0,0.0,0.0,0.0,0.0,0.0,0.0,0.0,0.0,0.0,0.0,0.0,0.0,0.0,0.0,0.0,0.0,0.0,0.0,0.0,0.0,0.0,0.0,0.0,0.0,0.0,0.0,0.0,0.0,0.0,0.0,0.0,0.0,0.0,0.0,0.0,0.0,0.0,0.0,0.0,0.0,0.0,0.0,0.0,0.0,0.0,0.0,0.0,0.0,0.0,0.0,0.0,0.0,0.0,0.0,0.0,0.0,0.0,0.0,0.0,0.0,0.0,0.0,0.0,0.0,0.0,0.0,0.0,0.0,0.0,0.0,0.0,0.0,0.0,0.0,0.0,0.0,0.0,0.0,0.0,0.0,0.0,0.0,0.0,0.0,0.0,0.0,0.0,0.0,0.0,0.0,0.0,0.0,0.0,0.0,0.0,0.0,0.0,0.0,0.0,0.0,0.0,0.0,0.0,0.0,0.0,0.0,0.0,0.0,0.0,0.0,0.0,0.0,0.0,0.0,0.0,0.0,0.0,0.0,0.0,0.0,0.0,0.0,0.0,0.0,0.0,0.0,0.0,0.0,0.0,0.0,0.0,0.0,0.0,0.0,0.0,0.0,0.0,0.0,0.0,0.0,0.0,0.0,0.0,0.0,0.0,0.0,0.0,0.0,0.0,0.0,0.0,0.0,0.0,0.0,0.0,0.0,0.0,0.0,0.0,0.0,0.0,0.0,0.0,0.0,0.0,0.0,0.0,0.0,0.0,0.0,0.0,0.0,0.0,0.0,0.0,0.0,0.0,0.0,0.0,0.0,0.0,0.0,0.0,0.0,0.0,0.0,0.0,0.0,0.0,0.0,0.0,0.0,0.0,0.0,0.0,0.0,0.0,0.0,0.0,0.0,0.0,0.0,0.0,0.0,0.0,0.0,0.0,0.0,0.0,0.0,0.0,0.0,0.0,0.0,0.0,0.0,0.0,0.0,0.0,0.0,0.0,0.0,0.0,0.0,0.0,0.0,0.0,0.0,0.0,0.0,0.0,0.0,0.0,0.0,0.0,0.0,0.0,0.0,0.0,0.0,0.0,0.0,0.0,0.0,0.0,0.0,0.0,0.0,0.0,0.0,0.0,0.0,0.0,0.0,0.0,0.0,0.0,0.0,0.0,0.0,0.0,0.0,0.0,0.0,0.0,0.0,0.0,0.0,0.0,0.0,0.0,0.0,0.0,0.0,0.0,0.0,0.0,0.0,0.0,0.0,0.0,0.0,0.0,0.0,0.0,0.0,0.0,0.0,0.0,0.0,0.0,0.0,0.0,0.0,0.0,0.0,0.0,0.0,0.0,0.0,0.0,0.0,0.0,0.0,0.0,0.0,0.0,0.0,0.0,0.0,0.0,0.0,0.0,0.0,0.0,0.0,0.0,0.0,0.0,0.0,0.0,0.0,0.0,0.0,0.0,0.0,0.0,0.0,0.0,0.0,0.0,0.0,0.0,0.0,0.0,0.0,0.0,0.0,0.0,0.0,0.0,0.0,0.0,0.0,0.0,0.0,0.0,0.0,0.0,0.0,0.0,0.0,0.0,0.0,0.0,0.0,0.0,0.0,0.0,0.0,0.0,0.0,0.0,0.0,0.0,0.0,0.0,0.0,0.0,0.0,0.0,0.0,0.0,0.0,0.0,0.0,0.0,0.0,0.0,0.0,0.0,0.0,0.0,0.0,0.0,0.0,0.0,0.0,0.0,0.0,0.0,0.0,0.0,0.0,0.0,0.0,0.0,0.0,0.0,0.0,0.0,0.0,0.0,0.0,0.0,0.0,0.0,0.0,0.0,0.0,0.0,0.0,0.0,0.0,0.0,0.0,0.0,0.0,0.0,0.0,0.0,0.0,0.0,0.0,0.0,0.0,0.0,0.0,0.0,0.0,0.0,0.0,0.0,0.0,0.0,0.0,0.0,0.0,0.0,0.0,0.0,0.0,0.0,0.0,0.0,0.0,0.0,0.0,0.0,0.0,0.0,0.0,0.0,0.0,0.0,0.0,0.0,0.0,0.0,0.0,0.0,0.0,0.0,0.0,0.0,0.0,0.0,0.0,0.0,0.0,0.0,0.0,0.0,0.0,0.0,0.0,0.0,0.0,0.0,0.0,0.0,0.0,0.0,0.0,0.0,0.0,0.0,0.0,0.0,0.0,0.0,0.0,0.0,0.0,0.0,0.0,0.0,0.0,0.0,0.0,0.0,0.0,0.0,0.0,0.0,0.0,0.0,0.0,0.0,0.0,0.0,0.0,0.0,0.0,0.0,0.0,0.0,0.0,0.0,0.0,0.0,0.0,0.0,0.0,0.0,0.0,0.0,0.0,0.0,0.0,0.0,0.0,0.0,0.0,0.0,0.0,0.0,0.0,0.0,0.0,0.0,0.0,0.0,0.0,0.0,0.0,0.0,0.0,0.0,0.0,0.0,0.0,0.0,0.0,0.0,0.0,0.0,0.0,0.0,0.0,0.0,0.0,0.0,0.0,0.0,0.0,0.0,0.0,0.0,0.0,0.0,0.0,0.0,0.0,0.0,0.0,0.0,0.0,0.0,0.0,0.0,0.0,0.0,0.0,0.0,0.0,0.0,0.0,0.0,0.0,0.0,0.0,0.0,0.0,0.0,0.0,0.0,0.0,0.0,0.0,0.0,0.0,0.0,0.0,0.0,0.0,0.0,0.0,0.0,0.0,0.0,0.0,0.0,0.0,0.0,0.0,0.0,0.0,0.0,0.0,0.0,0.0,0.0,0.0,0.0,0.0,0.0,0.0,0.0,0.0,0.0,0.0,0.0,0.0,0.0,0.0,0.0,0.0,0.0,0.0,0.0,0.0,0.0,0.0,0.0,0.0,0.0,0.0,0.0,0.0,0.0,0.0,0.0,0.0,0.0,0.0,0.0,0.0,0.0,0.0,0.0,0.0,0.0,0.0,0.0,0.0,0.0,0.0,0.0,0.0,0.0,0.0,0.0,0.0,0.0,0.0,0.0,0.0,0.0,0.0,0.0,0.0,0.0,0.0,0.0,0.0,0.0,0.0,0.0,0.0,0.0,0.0,0.0,0.0,0.0,0.0,0.0,0.0,0.0,0.0,0.0,0.0,0.0,0.0,0.0,0.0,0.0,0.0,0.0,0.0,0.0,0.0,0.0,0.0,0.0,0.0,0.0,0.0,0.0,0.0,0.0,0.0,0.0,0.0,0.0,0.0,0.0,0.0,0.0,0.0,0.0,0.0,0.0,0.0,0.0,0.0,0.0,0.0,0.0,0.0,0.0,0.0,0.0,0.0,0.0,0.0,0.0,0.0,0.0,0.0,0.0,0.0,0.0,0.0,0.0,0.0,0.0,0.0,0.0,0.0,0.0,0.0,0.0,0.0,0.0,0.0,0.0,0.0,0.0,0.0,0.0,0.0,0.0,0.0,0.0,0.0,0.0,0.0,0.0,0.0,0.0,0.0,0.0,0.0,0.0,0.0,0.0,0.0,0.0,0.0,0.0,0.0,0.0,0.0,0.0,0.0,0.0,0.0,0.0,0.0,0.0,0.0,0.0,0.0,0.0,0.0,0.0,0.0,0.0,0.0,0.0,0.0,0.0,0.0,0.0,0.0,0.0,0.0,0.0,0.0,0.0,0.0,0.0,0.0,0.0,0.0,0.0,0.0,0.0,0.0,0.0,0.0,0.0,0.0,0.0,0.0,0.0,0.0,0.0,0.0,0.0,0.0,0.0,0.0,0.0,0.0,0.0,0.0,0.0,0.0,0.0,0.0,0.0,0.0,0.0,0.0,0.0,0.0,0.0,0.0,0.0,0.0,0.0,0.0,0.0,0.0,0.0,0.0,0.0,0.0,0.0,0.0,0.0,0.0,0.0,0.0,0.0,0.0,0.0,0.0,0.0,0.0,0.0,0.0,0.0,0.0,0.0,0.0,0.0,0.0,0.0,0.0,0.0,0.0,0.0,0.0,0.0,0.0,0.0,0.0,0.0,0.0,0.0,0.0,0.0,0.0,0.0,0.0,0.0,0.0,0.0,0.0,0.0,0.0,0.0,0.0,0.0,0.0,0.0,0.0,0.0,0.0,0.0,0.0,0.0,0.0,0.0,0.0,0.0,0.0,0.0,0.0,0.0,0.0,0.0,0.0,0.0,0.0,0.0,0.0,0.0,0.0,0.0,0.0,0.0,0.0,0.0,0.0,0.0,0.0,0.0,0.0,0.0,0.0,0.0,0.0,0.0,0.0,0.0,0.0,0.0,0.0,0.0,0.0,0.0,0.0,0.0,0.0,0.0,0.0,0.0,0.0,0.0,0.0,0.0,0.0,0.0,0.0,0.0,0.0,0.0,0.0,0.0,0.0,0.0,0.0,0.0,0.0,0.0,0.0,0.0,0.0,0.0,0.0,0.0,0.0,0.0,0.0,0.0,0.0,0.0,0.0,0.0,0.0,0.0,0.0,0.0,0.0,0.0,0.0,0.0,0.0,0.0,0.0,0.0,0.0,0.0,0.0,0.0,0.0,0.0,0.0,0.0,0.0,0.0,0.0,0.0,0.0,0.0,0.0,0.0,0.0,0.0,0.0,0.0,0.0,0.0,0.0,0.0,0.0,0.0,0.0,0.0,0.0,0.0,0.0,0.0,0.0,0.0,0.0,0.0,0.0,0.0,0.0,0.0,0.0,0.0,0.0,0.0,0.0,0.0,0.0,0.0,0.0,0.0,3.4801,3.2541,0.0,0.0,0.0,0.0,0.0,0.0,0.0,0.0,0.0,0.0,0.0,0.0,0.0,0.0,0.0,0.0,0.0,0.0,0.0,0.0,0.0,0.0,0.0,1.5234,1.5195,1.5376,1.522,0.0,0.0,0.0,0.0,0.0,0.0,0.0,0.0,0.0,1.7623,1.8244,1.8479,1.916,2.0196,1.9531,1.8984,1.8555,0.0,0.0,0.0,0.0,0.0,0.0,0.0,0.0,0.0,0.0,0.0,0.0,0.0,0.0,0.0,0.0,0.0,0.0,0.0,0.0,0.0,0.0,0.0,0.0,0.0,0.0,0.0,0.0,0.0,0.0,0.0,0.0,0.0,0.0,0.0,0.0,0.0,0.0,0.0,0.0,0.0,0.0,0.0,0.0,0.0,0.0,0.0,0.0,0.0,0.0,0.0,0.0,0.0,0.0,0.0,0.0,0.0,0.0,0.0,0.0,0.0,0.0,0.0,0.0,0.0,0.0,0.0,0.0,0.0,0.0,3.7048,3.6182,0.0,0.0,0.0,0.0,0.0,0.0,0.0,0.0,0.0,0.0,0.0,0.0,0.0,0.0,0.0,0.0,0.0,0.0,0.0,0.0,0.0,1.5844,1.5844,1.5547,1.5488,1.5825,1.5625,1.5605,1.5942,1.6098,0.0,0.0,0.0,0.0,1.8303,1.8418,1.8965,2.0019,2.041,2.0976,2.1776,2.2227,2.2111,2.1446,2.0273,0.0,0.0,0.0,0.0,0.0,0.0,0.0,0.0,0.0,0.0,0.0,0.0,0.0,0.0,0.0,0.0,0.0,0.0,0.0,0.0,0.0,0.0,0.0,0.0,0.0,0.0,0.0,0.0,0.0,0.0,0.0,0.0,0.0,0.0,0.0,0.0,0.0,0.0,0.0,0.0,0.0,0.0,0.0,0.0,0.0,0.0,0.0,0.0,0.0,0.0,0.0,0.0,0.0,0.0,0.0,0.0,0.0,0.0,0.0,0.0,0.0,0.0,0.0,3.6811,3.6834,3.6347,3.6347,3.6878,3.7782,3.8117,3.8841,3.9658,3.7667,0.0,0.0,0.0,0.0,0.0,0.0,0.0,0.0,0.0,0.0,0.0,0.0,0.0,0.0,0.0,0.0,0.0,0.0,0.0,1.7659,1.7659,1.7617,1.7598,1.764,1.7932,1.811,1.8169,1.8888,1.9337,1.9394,1.9784,1.9882,1.9649,2.0058,2.0351,2.0508,2.2384,2.3516,2.3981,2.4476,2.4785,2.4937,2.2598,2.1309,2.082,0.0,0.0,0.0,0.0,0.0,0.0,0.0,0.0,0.0,0.0,0.0,0.0,0.0,0.0,0.0,0.0,0.0,0.0,0.0,0.0,0.0,0.0,0.0,0.0,0.0,0.0,0.0,0.0,0.0,0.0,0.0,0.0,0.0,0.0,0.0,0.0,0.0,0.0,0.0,0.0,0.0,2.5658,2.6015,0.0,0.0,0.0,0.0,0.0,0.0,0.0,0.0,0.0,0.0,0.0,0.0,0.0,3.1926,3.4125,3.4834,3.6212,3.8319,3.8839,3.907,3.9003,3.9003,3.9093,3.9235,3.9295,0.0,3.7201,3.8166,0.0,0.0,0.0,0.0,0.0,0.0,0.0,0.0,0.0,0.0,0.0,0.0,0.0,0.0,0.0,0.0,0.0,0.0,0.0,0.0,0.0,1.873,1.8926,1.9413,1.9376,1.9337,1.9337,1.9941,2.0293,2.0293,2.0703,2.0977,2.1016,2.168,2.2363,2.3129,2.4574,2.5352,2.5527,2.5957,2.6269,2.6381,2.5249,2.3848,2.2306,2.1855,0.0,0.0,0.0,0.0,0.0,0.0,0.0,0.0,0.0,0.0,0.0,0.0,0.0,0.0,0.0,0.0,0.0,0.0,0.0,0.0,0.0,0.0,0.0,0.0,0.0,0.0,0.0,0.0,0.0,0.0,0.0,0.0,0.0,0.0,0.0,0.0,0.0,0.0,0.0,2.5453,2.6348,2.7057,2.7148,2.748,0.0,0.0,0.0,0.0,0.0,0.0,0.0,0.0,0.0,3.1992,3.2441,3.3291,3.4575,3.4788,3.5419,3.6454,3.6693,3.6797,3.6797,3.6797,3.6797,3.6797,3.6797,3.6309,3.5696,3.7881,3.8726,3.8601,0.0,0.0,0.0,0.0,3.8485,3.8251,0.0,0.0,0.0,0.0,0.0,0.0,0.0,0.0,0.0,0.0,0.0,0.0,1.9414,1.9648,2.0039,2.0703,2.0547,2.0469,2.0547,2.1191,2.1622,2.176,2.2148,2.2459,2.2717,2.3396,2.4352,2.559,2.647,2.6934,2.7051,2.7363,2.7532,2.7656,2.7559,2.6191,2.3987,2.3516,2.2888,2.2166,0.0,0.0,0.0,0.0,0.0,0.0,0.0,0.0,0.0,0.0,0.0,0.0,0.0,0.0,0.0,0.0,0.0,0.0,0.0,0.0,0.0,0.0,0.0,0.0,0.0,0.0,0.0,0.0,0.0,0.0,0.0,0.0,0.0,0.0,0.0,0.0,0.0,2.7109,2.8093,2.8621,2.9023,2.9531,0.0,0.0,0.0,0.0,0.0,0.0,3.2305,3.2637,3.3164,3.3906,3.4238,3.4642,3.5039,3.5039,3.5156,3.5371,3.5371,3.5371,3.5371,3.5371,3.5371,3.5371,3.5371,3.5371,3.5526,3.7497,3.8666,3.9198,3.8454,3.8102,3.8141,3.9443,3.936,3.8964,0.0,0.0,0.0,0.0,0.0,0.0,0.0,0.0,0.0,0.0,0.0,1.9844,1.9864,2.0605,2.1112,2.1171,2.1562,2.1953,2.2342,2.3513,2.4414,2.4848,2.5249,2.5308,2.4945,2.5347,2.601,2.6889,2.7773,2.8398,2.8762,2.8781,2.9043,2.9461,2.9004,2.7851,2.6191,2.5737,2.5293,2.4789,2.3513,0.0,0.0,0.0,0.0,0.0,0.0,0.0,0.0,0.0,0.0,0.0,0.0,0.0,0.0,0.0,0.0,0.0,0.0,0.0,0.0,0.0,0.0,0.0,0.0,0.0,0.0,0.0,0.0,0.0,0.0,0.0,0.0,0.0,0.0,0.0,0.0,0.0,0.0,3.1367,3.1699,0.0,0.0,0.0,0.0,3.388,3.3938,3.4101,3.4512,3.4551,3.4785,3.5273,3.5312,3.5527,3.5923,3.5923,3.6367,3.7168,3.7168,3.7168,3.7168,3.7168,3.7168,3.7168,3.7168,3.7168,3.7171,3.7197,3.6929,3.6687,3.8528,3.89,3.8656,4.0189,4.0711,4.0765,0.0,0.0,0.0,0.0,0.0,1.6722,1.7425,1.7893,1.8225,1.8381,1.9531,2.0547,2.1113,2.1932,2.2633,2.322,2.3396,2.3574,2.3708,2.4664,2.5445,2.5923,2.6627,2.7148,2.7539,2.7441,2.7793,2.8652,2.8992,2.9227,2.9336,2.9336,2.9442,2.9598,2.9442,2.9031,2.8425,2.7676,2.6973,2.6289,2.5796,2.5137,0.0,0.0,0.0,0.0,0.0,0.0,0.0,0.0,0.0,0.0,0.0,0.0,0.0,0.0,0.0,0.0,0.0,0.0,0.0,0.0,0.0,0.0,0.0,0.0,0.0,0.0,0.0,0.0,0.0,0.0,0.0,0.0,0.0,0.0,0.0,0.0,0.0,3.1562,3.2383,0.0,3.4375,3.4199,3.4375,3.5254,3.5078,3.5234,3.5971,3.5703,3.5879,3.6601,3.6621,3.6699,3.6836,3.6836,3.6992,3.7305,3.7305,3.7305,3.7305,3.7305,3.7305,3.7305,3.7305,3.7305,3.7281,3.7256,3.7103,3.7017,3.7746,3.7908,3.7926,3.9592,3.9972,3.9806,0.0,0.0,0.0,0.0,1.6937,1.723,1.8069,1.8422,1.8812,1.9397,2.0644,2.1798,2.2637,2.3474,2.4274,2.5019,2.4918,2.5015,2.5488,2.6167,2.6855,2.7467,2.8034,2.8601,2.9121,2.8894,2.909,2.9813,2.997,3.0048,3.0048,3.0048,3.0048,3.0048,3.0048,3.0048,3.0009,2.9414,2.8574,2.7611,2.75,2.6836,2.5884,0.0,0.0,0.0,0.0,0.0,0.0,0.0,0.0,0.0,0.0,0.0,0.0,0.0,0.0,0.0,0.0,0.0,0.0,0.0,0.0,0.0,0.0,0.0,0.0,0.0,0.0,0.0,0.0,0.0,0.0,0.0,0.0,0.0,0.0,3.1406,3.2539,3.2402,3.3398,3.4434,3.5273,3.5488,3.582,3.6406,3.6328,3.6504,3.707,3.6816,3.6914,3.748,3.75,3.75,3.75,3.75,3.7578,3.7734,3.7734,3.7734,3.7734,3.7734,3.7734,3.7734,3.7734,3.7734,3.7734,3.7734,3.7734,3.7715,3.7559,3.75,3.7661,3.8994,3.9202,3.8958,0.0,0.0,0.0,1.7321,1.7399,1.7676,1.8481,1.8617,1.9241,2.0976,2.2363,2.3518,2.4313,2.521,2.5913,2.6367,2.5991,2.6303,2.7624,2.8112,2.8691,2.9598,2.9637,2.9637,2.9637,2.9637,2.9852,3.0234,3.0684,3.0918,3.0937,3.0937,3.0937,3.0937,3.0937,3.0937,3.0937,3.0918,3.0176,2.8937,2.8535,2.8112,2.7585,0.0,0.0,0.0,0.0,0.0,0.0,0.0,0.0,0.0,0.0,0.0,0.0,0.0,0.0,0.0,0.0,0.0,0.0,0.0,0.0,0.0,0.0,0.0,0.0,0.0,0.0,0.0,0.0,0.0,0.0,0.0,0.0,0.0,3.1738,3.2664,3.3652,3.4134,3.4922,3.5781,3.6675,3.7109,3.7363,3.7383,3.7734,3.7933,3.7952,3.7933,3.7913,3.7933,3.7933,3.7933,3.7933,3.7969,3.8203,3.865,3.865,3.865,3.865,3.865,3.865,3.865,3.865,3.865,3.865,3.865,3.865,3.8574,3.8125,3.7913,3.7988,3.8418,3.8611,3.8496,0.0,0.0,0.0,1.7321,1.7399,1.7676,1.8481,1.8888,1.961,2.1035,2.2363,2.3636,2.4789,2.5684,2.6387,2.6797,2.6713,2.709,2.8066,2.8516,2.9277,3.0469,3.0527,3.0527,3.0527,3.0527,3.0742,3.1152,3.1289,3.1504,3.1846,3.1846,3.1846,3.1846,3.1846,3.1846,3.1827,3.1484,3.1103,3.0713,2.998,2.9238,2.8535,0.0,0.0,0.0,0.0,0.0,0.0,0.0,0.0,0.0,0.0,0.0,0.0,0.0,0.0,0.0,0.0,0.0,0.0,0.0,0.0,0.0,0.0,0.0,0.0,0.0,0.0,0.0,0.0,0.0,0.0,0.0,3.3828,3.4101,3.3848,3.4414,3.5137,3.5893,3.6445,3.7109,3.8005,3.8437,3.8809,3.916,3.8984,3.9004,3.9336,3.875,3.8535,3.8848,3.8848,3.8848,3.8848,3.918,3.9414,3.9531,3.9531,3.9531,3.9531,3.9531,3.9531,3.9531,3.9531,3.9531,3.9531,3.9531,3.9531,3.9453,3.8691,3.8398,3.8418,3.8535,3.8379,3.8086,0.0,0.0,0.0,1.7598,1.7637,1.7988,1.9005,1.9238,2.0019,2.2031,2.3105,2.4261,2.5747,2.666,2.7285,2.7519,2.7715,2.8105,2.8816,2.8762,2.904,2.9836,3.0044,3.0168,3.0168,3.1157,3.1816,3.2051,3.1424,3.1263,3.152,3.152,3.152,3.1552,3.2192,3.2452,3.2433,3.1973,3.1797,3.1738,3.123,3.0391,2.9434,2.9258,2.8926,2.8496,2.8112,2.7682,2.7285,2.7207,0.0,0.0,0.0,0.0,0.0,0.0,0.0,0.0,0.0,0.0,0.0,0.0,0.0,0.0,0.0,0.0,0.0,0.0,0.0,0.0,0.0,0.0,0.0,0.0,3.5273,3.5918,3.6269,3.625,3.6504,3.7398,3.7832,3.8359,3.9062,3.9512,3.9805,3.9883,3.998,4.0059,4.0156,3.9668,3.9492,3.9746,3.959,3.9492,3.9492,3.9766,3.9902,3.9902,3.9902,3.9902,3.9902,4.0078,4.0156,4.0176,4.0351,4.043,4.043,4.043,4.0332,4.0098,0.0,0.0,0.0,0.0,3.8965,3.875,1.7991,1.7991,1.7991,1.7991,1.7991,1.8401,1.963,1.9531,2.0352,2.332,2.4121,2.5054,2.6791,2.7812,2.8359,2.8359,2.875,2.9199,2.9715,2.8814,2.8313,2.8523,2.8744,2.885,2.8903,3.1052,3.2222,3.2286,3.1002,3.0375,3.0411,3.0411,3.0411,3.0458,3.1802,3.2356,3.2298,3.2111,3.1991,3.1983,3.2157,3.1475,3.0312,2.995,2.9531,2.9054,2.8652,2.8288,2.8034,2.8379,0.0,0.0,0.0,0.0,0.0,0.0,0.0,0.0,0.0,0.0,0.0,0.0,0.0,0.0,0.0,0.0,0.0,0.0,0.0,0.0,0.0,0.0,0.0,0.0,3.6699,3.7793,3.865,3.8105,3.793,3.8669,3.9101,3.9512,3.9922,4.0391,4.0508,4.0137,4.0859,4.1152,4.0723,4.0644,0.0,0.0,0.0,4.0039,4.0039,4.0137,4.0176,4.0176,4.0176,4.0176,4.0195,4.0566,4.0704,4.0723,4.1152,4.1348,4.1348,4.1348,4.1094,4.0645,4.0117,3.9902,3.9902,3.9902,3.9902,3.9902,1.7991,1.7991,1.7991,1.7991,1.7991,1.832,1.9258,1.9354,2.0234,2.2888,2.3923,2.5054,2.6791,2.8059,2.8762,2.8762,2.9199,2.9813,3.0615,2.8493,2.7815,2.921,2.804,2.744,2.7628,2.8131,2.8665,2.9258,2.896,2.8976,2.9327,2.9327,2.9327,2.9327,2.9598,2.9596,2.9473,3.0492,3.0787,3.0665,3.1765,3.1797,3.125,3.1172,3.0879,3.0449,3.0,2.9785,2.9726,2.9805,2.9316,2.8769,2.9305,2.9141,0.0,0.0,0.0,0.0,0.0,0.0,0.0,0.0,0.0,0.0,0.0,0.0,0.0,0.0,0.0,0.0,0.0,0.0,0.0,3.7344,3.8223,3.9023,3.957,3.9785,3.9824,3.9668,4.0019,4.0274,4.0391,4.1094,4.1523,4.1445,4.1894,4.2148,4.203,4.1406,4.1055,4.1055,4.1015,4.0957,4.0957,4.1601,4.1933,4.1933,4.1933,0.0,4.1933,4.1991,4.2011,4.203,4.2148,4.2187,4.2187,4.2187,4.2089,4.1874,4.0469,3.9902,3.9902,3.9902,3.9902,3.9902,1.7991,1.7991,1.7991,1.7991,1.7991,1.8359,1.9434,1.9434,2.0215,2.2771,2.3669,2.4664,2.6186,2.7046,2.7535,2.7604,2.7791,2.8104,2.8637,2.6777,2.604,2.6915,2.6328,2.6111,2.6374,2.7617,2.849,2.9031,2.8138,2.7818,2.8009,2.7871,2.7887,2.8044,2.8769,2.9134,2.9186,2.9614,2.9655,2.9457,3.0123,3.0045,2.9661,3.126,3.1582,3.1172,3.0937,3.0723,3.0547,3.0547,3.0254,2.998,3.041,3.0254,2.9941,0.0,0.0,0.0,0.0,0.0,0.0,0.0,0.0,0.0,0.0,0.0,0.0,0.0,0.0,3.5781,3.603,0.0,3.7812,3.8457,3.9297,3.9941,4.0176,4.0762,4.1016,4.0586,4.0898,4.125,4.1426,4.1816,4.2109,4.2109,4.2715,4.3066,4.3066,4.2891,4.2793,4.2793,4.2558,4.2344,4.2129,4.2539,4.2637,4.2382,4.2382,4.2382,4.2401,4.2656,4.2754,4.2754,4.2969,4.3066,4.3047,4.2832,4.2754,4.2656,4.1582,4.1152,4.1152,4.1152,4.1152,4.1152,1.7991,1.7991,1.7991,1.7991,1.7991,1.8401,1.9591,1.9512,2.0156,2.2557,2.3196,2.3848,2.5059,2.5538,2.5917,2.6211,2.599,2.6066,2.6504,2.5016,2.425,2.4595,2.4664,2.4822,2.5169,2.7149,2.831,2.8703,2.725,2.6522,2.6448,2.6161,2.619,2.6505,2.7637,2.8344,2.8646,2.8523,2.8341,2.8154,2.8793,2.8675,2.8476,3.1357,3.1877,3.1172,3.1521,3.1426,3.1133,3.1133,3.1133,3.1191,3.1543,3.1465,3.1328,3.166,3.1523,0.0,0.0,0.0,0.0,0.0,0.0,0.0,0.0,3.4277,3.4902,3.4759,3.5664,3.6621,3.7007,3.7793,3.8652,3.9336,4.0195,4.0723,4.0723,4.1426,4.1836,4.1621,4.1758,4.2051,4.2362,4.2538,4.2635,4.2635,4.3476,4.3965,4.3965,4.4238,4.4394,4.4394,4.4043,4.3672,4.3381,4.334,4.3164,4.2812,4.2812,4.2811,4.2909,4.3301,4.3496,4.3635,4.3848,4.3965,4.3926,4.3594,4.3457,4.3418,4.3066,4.2889,4.285,4.2518,4.2382,4.2382,1.7991,1.7991,1.7991,1.7991,1.7991,1.832,1.9219,1.9335,1.996,2.1777,2.2019,2.2333,2.3214,2.4136,2.5031,2.5961,2.5172,2.5274,2.693,2.454,2.3758,2.5297,2.3955,2.3418,2.3966,2.4246,2.4668,2.5157,2.4974,2.4728,2.4508,2.4246,2.4273,2.4508,2.446,2.4559,2.4878,2.6161,2.6552,2.6561,2.9402,3.0498,3.0635,3.2536,3.1802,2.9946,3.1554,3.2101,3.2061,3.2061,3.2061,3.2061,3.212,3.2355,3.2598,3.2637,3.2617,3.2578,3.2519,3.2539,3.2773,3.3625,3.3919,3.4427,0.0,3.6055,3.6074,3.6797,3.7656,3.8337,3.8396,3.9394,4.0216,4.0313,4.1094,4.166,4.166,4.207,4.248,4.2812,4.2558,4.2343,4.2382,4.3105,4.3555,4.3555,4.4375,4.484,4.484,4.457,4.4394,4.4394,4.4355,4.4297,4.4258,4.4258,4.4219,4.418,4.418,4.4375,4.4684,4.4743,4.5019,4.5414,4.5019,4.484,4.484,4.4824,4.4805,4.4805,4.4704,4.4684,4.4509,4.2948,4.2382,4.2382,1.7991,1.7991,1.7991,1.7991,1.7991,1.8186,1.8791,1.9121,1.9745,2.0977,2.1763,2.2229,2.2283,2.2537,2.2565,2.2186,2.2672,2.3255,2.386,2.3256,2.3236,2.3958,2.329,2.3108,2.35,2.3688,2.3968,2.4382,2.4382,2.4329,2.4195,2.395,2.3928,2.4195,2.4075,2.4182,2.4472,2.4908,2.5568,2.6334,2.7534,2.8511,2.9474,3.1208,3.123,3.0456,3.2011,3.2413,0.0,3.2198,3.2198,3.2198,3.2198,3.2316,3.2511,3.2715,3.2969,3.332,3.4101,3.4316,3.4453,3.5059,3.5586,3.6133,3.6875,3.709,3.7305,3.791,3.8516,3.9023,3.9297,3.998,4.0684,4.1191,4.1562,4.1894,4.2129,4.2539,4.2969,4.3398,4.3281,4.3281,4.3555,4.4121,4.4473,4.4473,4.5058,4.541,4.541,4.5469,4.5508,4.5508,4.5742,4.5742,4.5508,4.5742,4.5742,4.5508,4.5508,4.5605,4.5762,4.5762,4.5859,4.6035,4.584,4.5625,4.541,4.541,4.5254,4.4977,4.4977,4.4977,4.4899,4.4157,4.3904,4.3904,1.7991,1.7991,1.7991,1.7991,1.7991,1.8127,1.8539,1.8986,1.9569,2.0312,2.1178,2.1577,2.1131,2.0702,2.0203,1.9569,2.0722,2.151,2.1614,2.2251,2.2733,2.2893,2.2893,2.3041,2.3278,2.3541,2.3794,2.4088,2.4168,2.4168,2.4075,2.391,2.3928,2.4195,2.4115,2.4249,2.4489,2.4725,2.5392,2.6359,2.7037,2.7962,2.9115,3.0836,3.1529,3.1588,3.2055,3.2382,3.2458,3.2111,3.2227,3.2559,3.2824,3.2902,3.298,3.3379,3.3809,3.4362,3.5586,3.5918,3.6055,3.6582,3.7285,3.7812,3.7812,3.8066,3.834,3.8535,3.8906,3.9336,3.9805,4.0332,4.0937,4.168,4.1992,4.2266,4.2558,4.3086,4.3516,4.3691,4.3926,4.416,4.4375,4.4668,4.4801,4.4801,4.5254,4.5547,4.5664,4.6074,4.6348,4.6465,4.6894,4.6973,4.666,4.6836,4.6733,4.6484,4.6484,4.6543,4.666,4.6777,4.6758,4.666,4.666,4.6484,4.6191,4.6191,4.6016,4.5723,4.5723,4.5723,4.5723,4.5723,4.543,4.4977,1.7991,1.7991,1.7991,1.7991,1.7991,1.8127,1.8539,1.8986,1.9434,1.9883,1.9894,1.9726,1.9322,1.8582,1.8545,1.9679,2.0064,2.0641,2.1529,2.1877,2.2305,2.2867,2.2893,2.3041,2.3278,2.3305,2.3487,2.3817,2.4062,2.4062,2.3817,2.3803,2.3928,2.4195,2.395,2.3941,2.4304,2.5717,2.622,2.6303,2.94,3.0674,3.09,3.2651,3.3323,3.3114,3.1446,3.1944,3.3153,3.1874,3.2314,3.3503,3.4355,3.4629,3.4707,3.5176,3.5605,3.6099,3.6992,3.7246,3.7441,3.8317,3.8828,3.9141,3.9141,3.916,3.9043,3.8689,3.8906,3.9336,3.9805,4.0586,4.1348,4.1738,4.25,4.3047,4.3087,4.3808,4.4199,4.375,4.4473,4.4824,4.4433,4.4414,4.4414,4.4414,4.4805,4.5234,4.5688,4.6074,4.6484,4.685,4.7324,4.7558,4.7539,4.7129,4.687,4.687,4.687,4.7129,4.7558,4.7969,4.793,4.7539,4.7539,4.7539,4.7519,4.7519,4.7519,4.75,4.75,4.75,4.75,4.75,4.6445,4.4977,1.7991,1.7991,1.7991,1.7991,1.7991,1.8066,1.8186,1.8557,1.8888,1.9007,1.8633,0.0,0.0,0.0,0.0,0.0,1.9319,2.0067,2.0405,2.1422,2.2104,2.2305,2.2693,2.2947,2.302,2.322,2.338,2.3474,2.3768,2.391,2.3803,2.3803,2.3857,2.395,2.3843,2.4471,2.5667,2.5672,2.6972,2.9103,2.9708,3.0672,3.1806,3.2673,3.2281,3.1278,0.0,3.1512,3.193,3.1788,3.2205,3.2836,3.3147,3.4288,3.5664,3.6113,3.6953,3.7773,3.8066,3.8359,3.8711,3.9297,3.9766,4.004,4.004,3.9863,3.9629,3.9473,3.9785,4.0117,4.0273,4.125,4.2148,4.2578,4.2891,4.3281,4.3867,4.4219,4.4433,4.457,4.459,4.4668,4.4805,4.4824,4.4941,4.5215,4.5371,4.5644,4.6074,4.623,4.6367,4.6504,4.6933,4.7148,4.7148,4.7558,4.7773,4.7773,4.8066,4.8327,4.8483,4.862,4.86,4.8464,4.8464,4.8307,4.7988,4.7988,4.7832,4.7578,4.7578,4.7578,4.7578,4.7578,4.7207,4.6719,1.7991,1.7991,1.7991,1.7991,1.8127,0.0,0.0,0.0,0.0,0.0,0.0,0.0,0.0,0.0,0.0,0.0,0.0,1.9345,1.9773,2.0681,2.1422,2.185,2.2331,2.2626,2.2733,2.3006,2.3166,2.3166,2.346,2.3607,2.3621,2.3728,2.3803,2.3839,2.4451,2.5305,2.628,2.6941,2.823,2.9857,2.9663,3.006,3.079,3.0815,3.0589,0.0,3.1016,3.1333,3.154,3.2036,3.2324,3.2525,3.2703,3.3373,3.462,3.711,3.7694,3.7773,3.9168,3.959,3.9785,4.0234,4.0547,4.0723,4.0566,4.0312,4.0078,3.9922,4.0234,4.0528,4.0723,4.164,4.2558,4.3008,4.334,4.375,4.4316,4.4531,4.4668,4.4785,4.457,4.4512,4.4766,4.4805,4.498,4.541,4.5449,4.5625,4.6055,4.623,4.6367,4.6523,4.6933,4.7168,4.7168,4.7715,4.7988,4.7988,4.8418,4.8679,4.8679,4.8835,4.8913,4.8913,4.8913,4.8737,4.8437,4.8437,4.8281,4.8047,4.8047,4.8047,4.8047,4.8047,4.8047,4.8033,1.7991,1.7991,1.8008,0.0,0.0,0.0,0.0,0.0,0.0,0.0,0.0,0.0,0.0,0.0,0.0,0.0,0.0,0.0,1.9639,1.9773,2.0294,2.1448,2.1796,2.2071,2.2331,2.2693,2.284,2.2853,2.3113,2.3225,2.3225,2.3541,2.371,2.3781,2.5437,2.6082,2.611,2.9035,2.9595,2.856,2.9239,2.8936,2.8047,2.7577,2.8573,3.0289,3.0883,3.1324,3.176,3.2327,3.2404,3.2427,3.3221,3.2384,3.2246,3.8139,3.7934,3.6567,4.0202,4.0859,4.0644,4.1074,4.1211,4.1074,4.0644,4.0508,4.041,4.0019,4.0273,4.0723,4.1191,4.1933,4.2637,4.3066,4.3828,4.4375,4.4433,4.4766,4.4863,4.4512,4.4473,4.4473,4.4492,4.4512,4.4687,4.5055,4.5035,4.5254,4.5727,4.6094,4.6484,4.6831,4.7324,4.7539,4.7539,4.7598,4.7617,4.7656,4.8047,4.8242,4.8262,4.8718,4.8913,4.8913,4.8913,4.8913,4.8933,4.8933,4.8952,4.8972,4.8972,4.8972,4.8972,4.8972,4.8972,4.8855,0.0,0.0,0.0,0.0,0.0,0.0,0.0,0.0,0.0,0.0,0.0,0.0,0.0,0.0,0.0,0.0,0.0,0.0,1.8449,1.9319,1.9933,2.0241,2.0949,2.147,2.1796,2.1877,2.2024,2.2238,2.2285,2.2325,2.2325,2.2405,2.2479,2.2479,2.2921,2.3819,2.4988,2.548,2.6247,2.7104,2.6974,2.6795,2.6701,2.8101,2.8126,2.7846,3.1158,3.0674,2.8641,2.9716,2.9703,3.0179,3.5535,3.6312,3.5813,3.857,3.9563,3.9894,4.0491,4.084,4.1035,4.1191,4.1211,4.1191,4.1035,4.0762,4.045,4.0391,4.0957,4.1601,4.2031,4.2793,4.3535,4.3984,4.3965,4.4121,4.4766,4.4687,4.4766,4.5293,4.5351,4.5469,4.5781,4.6094,4.6328,4.6382,4.5859,4.5703,4.6113,4.625,4.6348,4.6465,4.6875,4.709,4.709,4.7734,4.8203,4.8581,4.8679,4.8737,4.8737,4.8855,4.8913,4.8913,4.8913,4.9043,4.9355,4.9355,4.9551,4.9891,4.9891,4.9891,4.9891,4.9891,4.9891,4.9813,0.0,0.0,0.0,0.0,0.0,0.0,0.0,0.0,0.0,0.0,0.0,0.0,0.0,0.0,0.0,0.0,0.0,0.0,0.0,1.9874,2.0088,2.0494,2.052,2.0735,2.1194,2.1448,2.1596,2.1603,2.1991,2.2111,2.2024,2.2278,2.2331,2.2211,2.3012,2.38,2.4612,2.4981,2.5439,0.0,0.0,2.5075,2.539,2.6348,2.7074,2.7908,3.0316,3.0171,2.9191,3.141,3.1459,3.1591,3.7365,3.724,3.5663,3.9089,3.9855,3.9736,4.0589,4.0976,4.1211,4.1211,4.1211,4.1211,4.1211,4.0976,4.0859,4.1035,4.1621,4.2207,4.2637,4.3418,4.4023,4.4082,4.4355,4.4668,4.498,4.498,4.5137,4.5668,4.5727,4.584,4.6269,4.6635,4.7012,4.7207,4.6777,4.6523,4.6582,4.6758,4.6855,4.6855,4.709,4.7207,4.7207,4.7695,4.8047,4.8346,4.8718,4.8913,4.8913,4.9304,4.948,4.948,4.948,4.959,4.9805,4.9805,4.9844,4.9902,4.9902,4.9902,4.9902,4.9902,5.0019,5.0137,0.0,0.0,0.0,0.0,0.0,0.0,0.0,0.0,0.0,2.0274,2.0098,1.9889,1.9606,1.9453,0.0,0.0,0.0,0.0,0.0,0.0,2.0683,2.1474,2.0643,2.0356,2.0788,2.1303,2.1384,2.0989,2.175,2.2004,2.1764,2.2345,2.2432,2.2258,2.3845,2.442,2.4188,2.5392,2.5517,2.4835,2.3949,2.3997,2.4592,0.0,2.623,2.9022,2.9252,3.008,3.1566,3.4695,3.4721,3.4197,3.8472,3.6805,3.428,3.9546,3.9639,3.8478,4.0627,4.1211,4.1211,4.1211,4.1211,4.1211,4.1211,4.125,4.1269,4.1344,4.189,4.2438,4.2603,4.3446,4.4062,4.3828,4.4707,4.5351,4.5137,4.5391,4.5625,4.5785,4.5801,4.6016,4.6426,4.6914,4.7324,4.7637,4.7715,4.7539,4.7051,4.7383,4.7598,4.7656,4.7656,4.7715,4.7832,4.7832,4.7871,4.793,4.8659,4.8991,4.9011,4.9734,5.0047,5.0047,5.0047,5.0039,5.0098,5.0098,4.9941,4.964,4.964,4.9726,4.9738,4.9738,5.0019,5.0332,0.0,0.0,0.0,0.0,0.0,0.0,0.0,0.0,0.0,0.0,2.1113,2.0482,0.0,0.0,0.0,0.0,0.0,0.0,0.0,0.0,0.0,2.1957,2.2016,2.1806,2.1292,2.138,2.1065,2.0357,2.0504,2.0557,2.0517,2.0895,2.106,2.102,2.1533,2.1774,2.1719,2.1949,2.2766,2.3844,2.3665,2.4456,2.5843,2.7095,2.7966,0.0,3.0105,3.1375,3.2671,3.3966,3.3122,3.2387,3.7646,3.784,3.6672,3.9721,4.0589,4.0666,4.1074,4.1211,4.1211,4.1211,4.1211,4.1211,4.1211,4.1445,4.1167,3.9295,4.0752,4.1975,4.0478,4.159,4.3105,4.4121,4.4141,4.4394,4.541,4.5312,4.5391,4.6113,4.6504,4.6875,4.7324,4.8112,4.8444,4.8125,4.8483,4.8346,4.75,4.7539,4.7734,4.8086,4.8105,4.8457,4.918,4.9199,4.9375,4.9726,4.9512,4.9414,4.9414,4.9226,4.9128,4.9128,4.9128,4.9297,4.9648,4.9648,5.0019,5.0586,5.0586,5.0801,5.1045,5.1045,5.1104,5.1172,0.0,0.0,0.0,0.0,0.0,0.0,0.0,2.1874,2.2342,2.3672,2.3127,2.2521,2.2318,2.1811,2.1841,0.0,0.0,0.0,0.0,0.0,0.0,2.2817,2.2478,2.2183,2.1974,2.2361,2.2286,2.1752,0.0,2.2677,2.2557,2.302,2.3169,2.3005,2.3138,2.3108,2.2975,2.2975,2.3429,2.4183,2.4183,2.5269,2.7036,2.7777,2.8766,0.0,3.0616,3.1719,3.2891,3.3516,3.3851,3.4533,3.7834,3.8683,3.8709,4.0085,4.084,4.1211,4.1211,4.1211,4.0919,3.9786,3.9492,3.9492,3.9492,3.9642,3.983,4.0055,4.1159,4.1888,4.1181,4.1986,4.2525,4.1805,4.3199,4.4133,4.3433,4.4683,4.584,4.625,4.6875,4.7344,4.7558,4.8405,4.8815,4.8555,4.8776,4.862,4.7949,4.834,4.8691,4.8887,4.9121,4.9433,4.9863,4.9863,4.998,5.0176,5.0195,5.0078,4.9883,5.0098,4.9961,4.9617,5.0,5.0195,5.0215,5.0382,5.0625,5.0801,5.0801,5.0937,5.1113,5.1113,5.125,5.1358,0.0,0.0,0.0,0.0,0.0,0.0,0.0,2.2908,2.3437,2.5278,2.5117,2.4707,2.4375,2.3148,2.294,0.0,0.0,0.0,0.0,0.0,0.0,0.0,2.316,2.2783,2.2828,0.0,0.0,2.3212,2.4187,0.0,0.0,0.0,0.0,0.0,2.4995,2.4894,2.4707,2.4707,2.4911,0.0,0.0,2.6406,2.8187,0.0,0.0,0.0,0.0,3.166,3.2734,3.3144,3.4668,3.6616,3.7676,3.8887,3.998,4.0391,4.084,4.1211,4.1211,4.1211,4.0685,3.8469,3.7896,3.7896,3.7896,3.7968,3.8609,4.0652,4.1461,4.1736,4.1567,4.2159,4.1933,3.9595,4.1792,4.3183,4.1379,4.3608,4.5609,4.6128,4.7012,4.7578,4.7578,4.8405,4.8913,4.8913,4.8991,4.8848,4.8516,4.9238,4.9668,4.9668,5.0,5.0215,5.0312,5.0312,5.0351,5.0449,5.0683,5.0625,5.0332,5.0898,5.0801,5.0262,5.0879,5.0976,5.0703,5.1035,5.1016,5.0801,5.0801,5.0859,5.0937,5.0937,5.1152,5.1377,0.0,0.0,0.0,0.0,0.0,0.0,0.0,2.3415,2.4434,2.6562,2.6465,2.6191,2.6177,2.496,2.4392,0.0,0.0,0.0,0.0,0.0,0.0,0.0,0.0,0.0,0.0,0.0,0.0,2.3212,2.3316,0.0,0.0,0.0,0.0,0.0,0.0,2.4724,2.4707,2.4707,0.0,0.0,0.0,0.0,0.0,0.0,0.0,0.0,0.0,3.1494,3.2316,3.2715,3.4043,3.5586,3.6094,3.793,3.998,4.0391,4.084,4.1211,4.1211,4.1211,4.0685,3.8469,3.7896,3.7896,3.7896,3.8166,3.8477,3.8594,4.0311,4.1144,3.9069,4.0183,4.0893,3.9427,3.9708,4.033,4.0995,4.1942,4.3366,4.5506,4.6861,4.7578,4.7578,4.8405,4.8913,4.8913,4.9238,4.9453,4.9367,4.9863,5.0117,5.0117,5.0156,5.0371,5.0742,5.0742,5.0937,5.1308,5.0976,5.0781,5.0742,5.043,5.0254,5.0176,5.0254,5.0273,5.0234,5.0273,5.0488,5.0801,5.0801,5.1035,5.1319,5.1319,5.1358,5.1377,0.0,0.0,0.0,0.0,0.0,0.0,2.3591,2.404,2.5039,2.7461,2.7448,2.7174,2.7174,2.6255,2.5352,2.4727,0.0,0.0,0.0,0.0,0.0,0.0,0.0,0.0,0.0,0.0,2.5724,2.5493,2.5996,0.0,0.0,0.0,0.0,0.0,0.0,2.6865,2.6865,2.6865,0.0,0.0,0.0,0.0,0.0,0.0,0.0,0.0,0.0,0.0,3.1836,3.2296,3.343,3.4759,3.543,3.6875,3.8516,3.9453,4.0234,4.084,4.1094,4.0236,3.8666,3.6522,3.5943,3.5943,3.5943,3.7085,3.8489,3.9775,4.0799,4.1132,4.0229,4.0664,4.0174,3.7003,3.8418,3.9145,3.6925,3.8859,4.1339,4.3567,4.4939,4.6158,4.7463,4.8405,4.9011,4.9238,4.9668,5.0039,5.0273,5.0469,5.0547,5.0547,5.0801,5.1016,5.1172,5.1172,5.1221,5.1377,5.1269,5.1055,5.0801,5.0898,5.0664,5.0215,5.0723,5.0781,5.0586,5.082,5.1035,5.1172,5.1172,5.1289,5.1377,5.1377,5.1377,5.1377,0.0,0.0,0.0,0.0,0.0,2.1873,2.3903,2.4453,2.541,2.7637,2.78,2.7585,2.735,2.6783,2.5918,2.4707,2.4219,0.0,0.0,0.0,0.0,0.0,0.0,0.0,0.0,0.0,2.6953,2.7207,2.7812,2.8164,0.0,0.0,2.8301,2.8301,0.0,0.0,0.0,0.0,0.0,0.0,0.0,0.0,0.0,0.0,0.0,0.0,0.0,0.0,0.0,0.0,0.0,3.4004,3.4766,3.5879,3.7082,3.7861,3.9159,4.0277,4.0143,3.9476,3.8192,3.5379,3.5177,3.5443,3.4681,3.5709,3.7403,3.9484,3.9892,3.9931,4.0065,4.0084,3.8871,3.5282,3.6484,3.6837,3.3842,3.6165,3.9031,4.1315,4.2632,4.4275,4.6565,4.8064,4.8745,4.8375,4.8747,4.8813,4.8417,4.8499,4.9322,5.0948,5.1221,5.1377,5.1377,5.1377,5.1377,5.1377,5.1377,5.1221,5.0996,5.124,5.1113,5.0586,5.1172,5.1221,5.1016,5.126,5.1377,5.1377,5.1377,5.1377,5.1377,5.1377,5.1377,5.1358,0.0,0.0,0.0,0.0,0.0,0.0,2.3535,2.4535,2.5571,2.683,2.7402,2.737,2.6509,2.6412,2.606,2.516,2.4668,0.0,0.0,0.0,0.0,0.0,0.0,0.0,0.0,0.0,2.6842,2.7682,2.7702,2.7917,2.8301,2.8301,2.8301,2.8301,0.0,0.0,0.0,0.0,0.0,0.0,0.0,0.0,2.9637,0.0,0.0,0.0,0.0,0.0,0.0,0.0,0.0,0.0,0.0,3.498,3.5935,3.5614,3.7596,3.9564,3.7967,3.9309,4.0118,3.5799,3.6322,3.7192,3.4605,3.4107,3.4722,3.6505,3.6857,3.6965,3.7441,3.7436,3.6776,3.5006,3.3624,3.2815,3.2902,3.4307,3.6328,3.8917,4.0226,4.1939,4.4589,4.7307,4.7982,4.5693,4.5928,4.5186,4.2924,4.3171,4.5835,5.1231,5.1377,5.1377,5.1377,5.1377,5.1377,5.1377,5.1377,5.1377,5.1377,5.1377,5.1377,5.1377,5.1377,5.1377,5.1377,5.1377,5.1377,5.1377,5.1377,5.1377,5.1377,5.1377,5.1377,5.1319,0.0,0.0,0.0,0.0,0.0,0.0,0.0,2.3887,2.4883,2.561,2.6074,2.6367,2.6387,2.6387,2.6294,2.6021,2.5019,0.0,0.0,0.0,0.0,0.0,0.0,0.0,0.0,0.0,2.7565,2.8112,2.8699,2.9051,2.9188,2.9453,2.9434,2.9188,2.9188,2.9004,0.0,0.0,0.0,0.0,0.0,2.9481,2.9676,0.0,0.0,0.0,0.0,0.0,0.0,0.0,0.0,0.0,0.0,0.0,0.0,3.406,3.6284,3.8656,3.7064,3.6136,3.5059,3.2467,3.2181,3.2751,3.3553,3.3822,3.4458,3.6394,3.68,3.6484,3.5445,3.6359,3.6245,3.2975,3.2568,3.228,3.1045,3.341,3.6236,3.8775,4.1296,4.3392,4.4789,4.4163,4.3539,4.3256,4.336,4.3353,4.312,4.3252,4.4077,4.5803,4.5853,4.5853,4.5853,4.5853,4.5853,4.5853,4.5853,4.5853,4.5853,4.5853,4.6918,4.8688,4.8688,4.9708,5.1377,5.1377,5.1377,5.1377,5.1377,5.1377,5.1377,5.1377,5.125,5.0976,0.0,0.0,0.0,0.0,0.0,0.0,0.0,2.373,2.4707,2.4828,2.5328,2.5874,2.6348,2.625,2.6211,2.6367,2.5464,0.0,0.0,0.0,0.0,0.0,0.0,0.0,2.6621,2.7487,2.821,2.8797,2.95,2.9833,2.9833,3.0078,3.0009,2.9598,2.9598,2.9442,0.0,0.0,0.0,0.0,2.9246,2.9598,2.9696,0.0,0.0,0.0,0.0,0.0,0.0,0.0,0.0,0.0,0.0,0.0,0.0,0.0,3.499,3.6577,3.5868,3.4903,3.3648,3.1834,3.1363,3.1465,3.2078,3.2379,3.2861,3.3981,3.426,3.4071,3.3162,3.4102,3.4235,3.1941,3.1727,3.1733,3.1486,3.3794,3.6153,3.8071,4.0838,4.2558,4.2251,4.1607,4.1065,4.0709,4.0707,4.0573,4.024,4.0219,4.0219,4.0219,4.2251,4.3318,4.3318,4.3318,4.3318,4.3318,4.3318,4.3318,4.3318,4.3318,4.4228,4.5903,4.6968,4.8342,0.0,4.9904,5.0462,5.128,5.0266,5.051,5.126,5.0143,4.9555,4.9144,0.0,0.0,0.0,0.0,0.0,0.0,0.0,2.3987,2.4906,2.4473,2.5132,2.5815,2.625,2.5932,2.5874,2.6309,0.0,0.0,0.0,0.0,0.0,0.0,0.0,0.0,2.7064,2.791,2.875,2.9637,3.0059,3.0293,3.0293,3.0351,3.0137,2.9735,2.9735,2.9676,0.0,0.0,0.0,0.0,2.9227,2.9579,0.0,0.0,0.0,0.0,0.0,0.0,0.0,0.0,0.0,0.0,0.0,0.0,0.0,0.0,0.0,0.0,0.0,3.4989,3.4747,3.2901,3.262,3.2272,3.036,3.0047,0.0,2.9953,3.0131,3.0404,3.0691,3.1003,3.1274,3.1532,3.0851,3.1121,3.3427,3.4934,3.6193,3.7474,3.9336,3.9818,3.7909,3.9474,3.9895,3.8052,3.7894,3.7133,3.5322,3.5191,3.5191,3.5191,4.008,4.2709,4.2709,4.2709,4.2709,4.2709,4.2709,4.2709,4.2709,4.2709,4.2811,4.3166,4.5703,4.6918,4.7117,4.7117,4.8589,5.0578,4.8077,4.862,5.0482,4.7668,4.6587,4.6101,0.0,0.0,0.0,0.0,0.0,0.0,0.0,0.0,0.0,0.0,2.4883,2.5297,2.5395,2.5562,2.5732,0.0,0.0,0.0,0.0,0.0,0.0,0.0,0.0,0.0,2.7969,2.8516,2.9199,3.0059,3.082,3.1181,3.1211,3.1875,3.1777,3.1055,3.1055,3.0508,0.0,0.0,0.0,0.0,2.8867,2.9277,0.0,0.0,0.0,0.0,3.0898,3.0898,0.0,0.0,0.0,0.0,0.0,0.0,0.0,0.0,3.4243,3.4743,3.3739,0.0,3.0129,2.8378,2.7809,2.8103,0.0,2.8747,2.8141,2.9872,3.0255,2.9936,2.8689,2.9816,3.0583,2.9506,2.9366,2.9757,3.1062,3.3651,3.7196,4.1983,3.9434,3.7396,3.7665,3.6218,3.5221,3.5215,3.5219,3.5221,3.5217,3.5191,3.5191,3.5191,3.6425,3.7078,3.7078,3.7078,3.7078,3.7078,3.7078,3.7078,3.7078,3.7078,3.8248,4.0286,4.0887,4.2353,4.4279,4.4279,4.4631,4.5134,4.4531,4.4511,4.4803,4.4121,4.3483,4.2861,0.0,0.0,0.0,0.0,0.0,0.0,0.0,0.0,0.0,0.0,0.0,0.0,0.0,0.0,0.0,0.0,0.0,0.0,0.0,0.0,0.0,0.0,0.0,2.8079,2.8574,2.9394,3.0156,3.0801,3.1289,3.1621,3.1816,3.209,3.1953,3.1474,3.1328,3.0605,0.0,0.0,0.0,2.832,2.875,0.0,0.0,0.0,0.0,0.0,3.0898,3.0898,0.0,3.1113,3.1328,3.1562,0.0,0.0,0.0,0.0,3.3666,3.3657,3.2105,3.0647,2.9276,2.786,2.6605,2.6243,2.8058,2.7712,2.7459,2.9015,2.9433,2.9229,2.8293,3.031,3.136,2.9136,3.0288,3.1765,3.2556,3.5388,3.8228,4.0464,3.8286,3.6398,3.5764,3.4469,3.3828,3.4282,3.4442,3.4723,3.5177,3.5191,3.5191,3.5191,3.5191,3.5191,3.5191,3.5191,3.5191,3.5191,3.5191,3.5191,3.5191,3.5191,3.6006,3.7496,3.8767,4.0132,4.1451,4.1451,4.2201,4.3166,4.1946,4.2042,4.2723,4.1359,4.051,3.9822,0.0,0.0,0.0,0.0,0.0,0.0,0.0,0.0,0.0,0.0,0.0,0.0,0.0,0.0,0.0,0.0,0.0,0.0,0.0,0.0,0.0,0.0,2.7988,2.8859,2.9004,3.0176,3.0996,3.1426,3.1591,3.1875,3.2198,3.1992,3.1797,3.1601,3.1172,3.0517,2.9696,2.9618,2.9129,2.8418,2.8711,0.0,0.0,0.0,0.0,0.0,0.0,0.0,0.0,3.1309,3.1426,3.1484,3.1885,0.0,0.0,0.0,0.0,0.0,3.0123,2.9822,2.9749,2.867,2.699,2.5865,2.6694,2.7081,2.7483,2.8125,2.8433,2.8706,2.917,3.1223,3.2135,3.0035,3.205,3.4166,3.5128,3.7258,3.8166,3.6792,3.6505,3.5656,3.3668,3.3734,3.4002,3.4295,3.4603,3.4949,3.5177,3.5191,3.5191,3.5191,3.5191,3.5191,3.5191,3.5191,3.5191,3.5191,3.5191,3.5191,3.5191,3.5191,3.5191,3.5349,3.7638,3.8663,3.8663,3.8663,4.0029,4.1844,3.958,3.9851,4.1272,3.8741,3.7557,3.684,0.0,0.0,0.0,0.0,0.0,0.0,0.0,0.0,0.0,0.0,0.0,0.0,0.0,0.0,0.0,0.0,0.0,0.0,0.0,0.0,0.0,2.6914,2.7871,2.873,2.9481,3.0019,3.0527,3.0996,3.207,3.2441,3.2218,3.3234,3.3137,3.2081,3.1621,3.0918,3.0078,2.9755,2.9277,2.8762,2.8496,0.0,0.0,0.0,0.0,0.0,0.0,0.0,0.0,3.0957,3.0996,3.0996,3.1074,0.0,0.0,0.0,0.0,0.0,2.8513,2.8209,2.832,2.6804,2.634,2.6426,2.7095,2.7269,2.755,2.8364,2.8406,2.9111,3.1915,3.0736,3.0161,3.2514,3.202,3.2213,3.4645,3.4016,3.4103,3.6341,3.4829,3.3688,3.3812,3.3855,3.4002,3.4295,3.4603,3.4949,3.5177,3.5191,3.5191,3.5191,3.5191,3.5191,3.5191,3.5191,3.5191,3.5191,3.5191,3.5191,3.5191,3.5191,3.5191,3.5191,3.5651,3.5809,3.5809,3.5809,3.6058,3.6425,3.6019,3.5729,3.5581,3.5079,3.4558,3.4005,0.0,0.0,0.0,0.0,0.0,0.0,0.0,0.0,0.0,0.0,0.0,0.0,0.0,0.0,0.0,0.0,0.0,0.0,0.0,0.0,2.7129,2.7363,2.8425,2.9305,2.9931,3.083,3.1484,3.1914,3.25,3.2812,3.2851,3.3019,3.2628,3.1797,3.1367,3.0957,3.0527,2.9891,2.9316,2.8859,0.0,0.0,0.0,0.0,0.0,0.0,0.0,0.0,0.0,0.0,3.123,3.123,3.123,0.0,0.0,0.0,0.0,0.0,2.8135,2.7992,2.8089,2.6763,2.664,2.7405,2.9378,2.8869,2.815,2.8681,2.8724,2.9136,3.0814,3.1221,3.1902,3.3724,3.2352,3.1589,3.3154,3.2907,3.316,3.4703,3.4046,3.3507,3.3614,3.3935,3.4175,3.4309,3.4736,3.5057,3.5191,3.5191,3.5191,3.5191,3.5191,3.5191,3.5191,3.5191,3.5191,3.5191,3.5191,3.5191,3.5191,3.5191,3.5191,3.5191,3.5191,3.5191,3.5191,3.5191,3.5191,3.5191,3.5191,3.4843,3.4282,3.3948,3.3654,3.3414,0.0,0.0,0.0,0.0,0.0,0.0,0.0,0.0,0.0,0.0,0.0,0.0,0.0,0.0,0.0,0.0,0.0,0.0,0.0,0.0,2.7246,2.7819,2.907,2.995,3.0351,3.1573,3.2413,3.2793,3.3086,3.3359,3.3555,3.2812,3.2187,3.166,3.1445,3.123,3.0996,3.0243,2.9598,2.9043,0.0,0.0,0.0,0.0,0.0,0.0,0.0,0.0,0.0,0.0,0.0,0.0,0.0,0.0,0.0,3.0186,2.9629,2.8897,2.7658,2.763,2.7952,2.7951,2.7541,2.7907,3.0675,2.9873,2.8657,2.9232,2.9245,2.9461,3.0582,3.2481,3.3874,3.3773,3.2343,3.1436,3.2024,3.2545,3.2986,3.328,3.3587,3.3681,3.3427,3.3961,3.4322,3.4322,3.487,3.5191,3.5191,3.5191,3.5191,3.5191,3.5191,3.5191,3.5191,3.5191,3.5191,3.5191,3.5191,3.5191,3.5191,3.5191,3.5191,3.5191,3.5191,3.5191,3.5191,3.5191,3.5191,3.5191,3.5124,3.4736,3.4148,3.3614,3.3414,3.3414,0.0,0.0,0.0,0.0,0.0,0.0,0.0,0.0,0.0,0.0,0.0,0.0,0.0,0.0,0.0,0.0,0.0,0.0,0.0,0.0,2.7383,2.8203,2.9473,3.0371,3.084,3.1749,3.2413,3.2793,3.3984,3.4375,3.4055,3.3555,3.2891,3.2159,3.25,3.2207,3.1445,3.0996,3.0341,2.952,2.9043,0.0,0.0,0.0,0.0,0.0,0.0,0.0,0.0,0.0,0.0,0.0,0.0,0.0,3.1591,2.9254,2.877,2.8544,2.6294,2.6086,2.7302,3.0483,2.9037,2.7228,2.8843,2.8692,2.862,3.0025,2.9833,3.0479,3.3895,3.468,3.4185,3.219,3.1477,3.1436,3.2024,3.242,3.2728,3.2973,3.3267,3.344,3.3414,3.3961,3.4322,3.4322,3.487,3.5191,3.5191,3.5191,3.5191,3.5191,3.5191,3.5191,3.5191,3.5191,3.5191,3.5191,3.5191,3.5191,3.5191,3.5191,3.5191,3.5191,3.5191,3.5191,3.5191,3.5191,3.5191,3.5177,3.4949,3.4429,3.3881,3.3534,3.3414,3.3414,0.0,0.0,0.0,0.0,0.0,0.0,0.0,0.0,0.0,0.0,0.0,0.0,0.0,0.0,0.0,0.0,0.0,0.0,0.0,2.6777,2.7519,2.8633,2.9394,3.0273,3.1269,3.2383,3.3281,3.3984,3.4199,3.3977,3.3262,3.2851,3.2511,3.2198,3.2051,3.1973,3.1855,3.0879,3.0146,2.9559,2.9101,2.8672,0.0,0.0,0.0,0.0,0.0,0.0,0.0,0.0,3.0825,3.0092,3.0439,2.9198,2.7553,2.6954,2.6534,2.6191,2.5886,2.6346,2.7365,2.9077,2.8578,2.8395,3.1122,3.0338,2.9236,2.9927,2.9766,3.0038,3.1777,3.2375,3.2412,3.1813,3.173,3.1917,3.2367,3.2674,3.2969,3.3213,3.3347,3.3414,3.3414,3.3961,3.4322,3.4322,3.487,3.5191,3.5191,3.5191,3.5284,3.5458,3.5284,3.5378,3.5738,3.5378,3.5378,3.5738,3.5378,3.5191,3.5191,3.5191,3.5191,3.5191,3.5191,3.5191,3.5191,3.5191,3.5191,3.5151,3.467,3.4242,3.3841,3.3534,3.3414,3.3414,0.0,0.0,0.0,0.0,0.0,0.0,0.0,0.0,0.0,0.0,0.0,0.0,0.0,0.0,0.0,0.0,0.0,0.0,2.6543,2.6855,2.7611,2.9062,2.9531,3.04,3.1699,3.2801,3.3679,3.4297,3.4004,3.3437,3.2598,3.2335,3.2198,3.2179,3.1855,3.1894,3.212,3.1055,3.0215,2.9579,2.9394,2.8906,0.0,0.0,0.0,0.0,0.0,0.0,0.0,0.0,3.066,2.938,2.9789,2.7985,2.5751,2.6036,2.6383,2.6618,2.6347,2.7416,2.8606,2.8482,2.8473,2.917,3.1839,3.0926,2.9619,3.01,3.0181,3.0346,3.0748,3.1169,3.1597,3.1952,3.2038,3.2238,3.2674,3.2902,3.3093,3.3374,3.3414,3.3414,3.3414,3.3961,3.4322,3.4322,3.487,3.5231,3.5324,3.5338,3.5471,3.5765,3.5578,3.5672,3.6126,3.5672,3.5672,3.6126,3.5658,3.5471,3.5471,3.5284,3.5244,3.5324,3.5231,3.5191,3.5191,3.5191,3.5084,3.4883,3.4482,3.4082,3.3708,3.3494,3.3414,3.3414,0.0,0.0,0.0,0.0,0.0,0.0,0.0,0.0,0.0,0.0,0.0,0.0,0.0,0.0,0.0,0.0,0.0,0.0,2.6928,2.6986,2.7773,2.952,2.9961,3.0801,3.2159,3.2969,3.3386,3.3406,3.3386,3.2988,3.2198,3.2198,3.2198,3.2198,3.2198,3.2198,3.2159,3.1699,3.0762,2.9637,3.0039,2.9434,2.8359,0.0,0.0,0.0,0.0,0.0,0.0,0.0,3.0717,2.9115,3.0379,2.9247,2.736,2.6908,2.8869,3.051,2.7613,2.9147,3.1155,2.9433,2.9001,2.9228,3.0199,2.9958,2.974,3.0621,3.1263,3.1711,3.1711,3.1904,3.2198,3.2541,3.2291,3.2305,3.2942,3.2986,3.3093,3.3374,3.3414,3.3414,3.3414,3.3961,3.4322,3.4322,3.487,3.5324,3.5565,3.5578,3.5765,3.6072,3.6072,3.6072,3.614,3.6072,3.6072,3.614,3.6072,3.6072,3.6059,3.5471,3.5364,3.5565,3.5324,3.5204,3.5204,3.5204,3.4857,3.4322,3.4322,3.3948,3.3414,3.3414,3.3414,3.3414,0.0,0.0,0.0,0.0,0.0,0.0,0.0,0.0,0.0,0.0,0.0,0.0,0.0,0.0,0.0,0.0,0.0,0.0,2.6928,2.6986,2.7611,2.9043,2.9559,3.0106,3.0762,3.1934,3.2969,3.3887,3.3574,3.2988,3.2198,3.2511,3.2285,3.1738,3.2344,3.2285,3.1719,3.1894,3.1211,3.0059,3.0508,3.0106,2.9227,0.0,0.0,0.0,0.0,0.0,0.0,0.0,0.0,0.0,2.7244,2.5777,2.4354,2.4838,2.6008,2.7188,2.7162,2.8424,2.9652,2.9122,2.9001,2.9121,2.9633,2.9972,3.0287,3.0955,3.1076,3.1183,3.1644,3.157,3.1717,3.2487,3.2527,3.2594,3.2969,3.316,3.332,3.34,3.3614,3.3654,3.3427,3.4336,3.4857,3.4643,3.5364,3.5845,3.5939,3.5939,3.6072,3.6366,3.6179,3.6273,3.6687,3.6273,3.6273,3.6687,3.6273,3.6072,3.6059,3.5899,3.5859,3.5939,3.5845,3.5819,3.5819,3.5819,3.5471,3.491,3.471,3.4269,3.3721,3.3494,3.3414,3.3414,0.0,0.0,0.0,0.0,0.0,0.0,0.0,0.0,2.6279,2.5791,2.6135,2.6279,0.0,0.0,0.0,2.5693,2.5693,0.0,2.6719,2.6889,2.7519,2.8613,2.9082,2.9668,3.0449,3.1612,3.2667,3.3574,3.3301,3.2832,3.2218,3.2598,3.2598,3.2274,3.2812,3.2754,3.2255,3.2383,3.166,3.0527,3.1152,3.0693,2.9637,0.0,0.0,0.0,0.0,0.0,0.0,0.0,0.0,0.0,2.5749,2.4283,2.3247,2.4262,2.5917,2.744,2.7608,2.9234,3.0618,2.9491,2.9392,2.9646,2.994,3.0239,3.0533,3.0955,3.1102,3.1209,3.145,3.1637,3.1931,3.25,3.2688,3.2875,3.3106,3.3293,3.3414,3.3414,3.3694,3.3814,3.3614,3.4563,3.5124,3.495,3.5645,3.6126,3.6233,3.6246,3.638,3.6632,3.65,3.658,3.6885,3.658,3.658,3.6885,3.658,3.6433,3.6393,3.6179,3.6139,3.6233,3.6126,3.6072,3.6059,3.5952,3.5618,3.5164,3.487,3.4469,3.4015,3.3708,3.3601,3.3587,0.0,0.0,2.5839,0.0,0.0,0.0,0.0,2.6764,2.7054,2.6014,2.6788,2.6982,0.0,0.0,0.0,2.5693,2.5693,2.5893,2.6367,2.6777,2.7383,2.8203,2.8711,2.957,3.0859,3.1768,3.2394,3.2734,3.2812,3.2637,3.2257,3.2695,3.3066,3.3347,3.3406,3.3406,3.3308,3.3008,3.2129,3.1074,3.1925,3.126,2.9872,3.0644,0.0,0.0,0.0,0.0,0.0,0.0,0.0,0.0,2.526,2.4162,2.3554,2.4743,2.7395,2.9684,2.8508,3.0748,3.2776,3.0165,2.9985,3.0467,3.0662,3.0568,3.0574,3.0808,3.1276,3.1557,3.1316,3.1944,3.2567,3.2594,3.2835,3.308,3.3374,3.344,3.3454,3.3454,3.3761,3.3961,3.3935,3.475,3.5271,3.5231,3.5805,3.6273,3.654,3.654,3.6647,3.6885,3.6885,3.6885,3.6885,3.6885,3.6885,3.6885,3.6885,3.6885,3.6885,3.6393,3.6299,3.654,3.6273,3.6153,3.6126,3.5832,3.5538,3.5244,3.4923,3.4603,3.4282,3.4002,3.3868,3.3801,0.0,0.0,2.6884,2.5868,0.0,0.0,2.703,2.6572,2.6356,2.7102,2.6572,2.5989,2.5742,2.5693,0.0,2.5693,2.5693,2.5893,2.6367,2.6777,2.7246,2.78,2.8875,2.9883,3.0859,3.1768,3.2237,3.2335,3.2969,3.3066,3.2676,3.3469,3.3476,3.2969,3.3633,3.3555,3.2949,3.3152,3.2754,3.1964,3.2492,3.2031,3.1113,3.1309,3.1113,0.0,0.0,0.0,0.0,0.0,0.0,0.0,2.3691,2.333,2.3554,2.4743,2.6117,2.7386,2.7996,2.9274,3.0339,2.9927,3.01,3.036,3.014,3.0595,3.1129,3.1423,3.1396,3.137,3.1543,3.1917,3.2278,3.2554,3.2835,3.308,3.3374,3.3627,3.3788,3.3788,3.4255,3.4482,3.4242,3.5231,3.5792,3.5551,3.6286,3.6739,3.6834,3.6834,3.6861,3.6885,3.6885,3.6885,3.6885,3.6885,3.6885,3.6885,3.6885,3.6885,3.6885,3.6794,3.6739,3.6834,3.6739,3.6754,3.6727,3.6433,3.6153,3.5832,3.5311,3.4776,3.4282,3.4002,3.3734,3.3507,0.0,0.0,0.0,0.0,0.0,0.0,0.0,0.0,2.7508,2.7579,2.7006,2.638,2.5791,2.5693,0.0,0.0,2.6279,2.6456,2.6079,2.7018,2.7612,2.7689,2.8523,2.9403,3.0263,3.1309,3.1953,3.2198,3.3008,3.3269,3.3105,3.3801,3.386,3.3469,3.4082,3.4036,3.3449,3.3633,3.3242,3.2531,3.293,3.2578,3.1855,3.2051,3.1875,3.1415,3.052,0.0,0.0,0.0,0.0,0.0,0.0,0.0,2.3768,2.4943,2.5812,2.668,2.8045,2.8911,2.9593,3.002,3.0293,3.036,3.0167,3.0702,3.1276,3.1423,3.145,3.149,3.1684,3.2072,3.246,3.2755,3.3169,3.3521,3.3801,3.3988,3.4095,3.4095,3.4482,3.471,3.4549,3.5338,3.5859,3.5845,3.6393,3.6739,3.6885,3.6885,3.6885,3.6885,3.6885,3.6885,3.6885,3.6885,3.6885,3.6885,3.6885,3.6885,3.6885,3.6885,3.6885,3.6885,3.6885,3.6885,3.6845,3.6473,3.6206,3.6019,3.5431,3.4923,3.4496,3.4202,3.3895,3.3614,0.0,0.0,0.0,0.0,0.0,0.0,0.0,0.0,0.0,2.8308,2.8049,2.7508,2.6452,2.6332,2.6332,0.0,0.0,0.0,2.611,2.7195,2.7846,2.7695,2.8015,2.864,2.9579,3.0703,3.1582,3.2198,3.293,3.3328,3.3406,3.3867,3.4114,3.4114,3.4434,3.4394,3.4114,3.4114,3.3672,3.3047,3.3476,3.3184,3.257,3.2891,3.2568,3.1731,3.0221,2.9297,2.8335,2.5506,0.0,0.0,0.0,0.0,2.4062,2.5184,2.5932,2.6707,2.8136,2.9032,2.9686,3.0266,3.04,3.0426,3.0467,3.0849,3.1203,3.1309,3.153,3.1711,3.1711,3.2233,3.2755,3.2933,3.3534,3.4042,3.4282,3.4362,3.4402,3.4402,3.4656,3.4895,3.4895,3.5324,3.5752,3.6046,3.634,3.6592,3.6885,3.6885,3.6885,3.6885,3.6885,3.6885,3.6885,3.6885,3.6885,3.6885,3.6885,3.6885,3.6885,3.6885,3.6885,3.6885,3.6885,3.6885,3.6845,3.6313,3.6072,3.6019,3.5431,3.499,3.4656,3.4416,3.4108,3.3761,0.0,0.0,0.0,0.0,0.0,0.0,0.0,0.0,0.0,0.0,2.9806,2.9096,2.8913,2.8912,2.8912,2.8912,2.8119,2.7529,2.7363,0.0,0.0,2.7689,2.7741,2.8347,2.9579,3.0098,3.0957,3.2198,3.2656,3.3066,3.3406,3.3867,3.4114,3.4114,3.4173,3.4153,3.4114,3.4114,3.4036,3.3977,3.4355,3.4238,3.386,3.3919,3.2637,3.0787,3.0545,2.8456,2.5783,2.5316,2.4451,0.0,0.0,0.0,2.4329,2.5237,2.5932,2.6653,2.7911,2.9018,2.994,3.0319,3.04,3.0467,3.0675,3.0996,3.137,3.1877,3.181,3.1711,3.1711,3.2407,3.2982,3.2973,3.3694,3.4282,3.4309,3.4536,3.471,3.471,3.4963,3.5137,3.5137,3.5431,3.5752,3.6046,3.634,3.6592,3.6885,3.6885,3.6885,3.6885,3.6885,3.6885,3.6885,3.6885,3.6885,3.6885,3.6885,3.6885,3.6885,3.6885,3.6885,3.6885,3.6885,3.6885,3.6845,3.6313,3.6072,3.6019,3.5431,3.4857,3.4376,3.4336,3.3961,3.3467,0.0,0.0,0.0,0.0,0.0,0.0,0.0,0.0,0.0,0.0,0.0,2.9396,2.9396,2.9396,2.9396,2.9396,2.8912,2.8308,2.7626,2.6585,2.6309,2.6939,2.6979,2.7656,2.918,2.9629,3.0488,3.1797,3.2461,3.3008,3.3406,3.3867,3.3977,3.3711,3.3711,3.3711,3.373,3.3997,3.4114,3.4134,3.4531,3.4049,3.3088,3.2931,3.1679,2.9817,2.8655,2.7236,2.5761,2.4789,2.4078,2.3621,2.3915,0.0,0.0,0.0,2.5812,2.6519,2.7989,2.9032,2.974,3.0034,3.0354,3.0635,3.0768,3.1022,3.1343,3.177,3.1757,3.1764,3.1877,3.2407,3.2888,3.3173,3.3547,3.4042,3.4723,3.479,3.4882,3.499,3.5124,3.5191,3.5191,3.5311,3.5511,3.5805,3.6099,3.6393,3.6687,3.6805,3.6885,3.6885,3.6885,3.6885,3.6885,3.6885,3.6885,3.6885,3.6885,3.6885,3.6885,3.6885,3.6885,3.6885,3.6885,3.6885,3.6845,3.65,3.6219,3.6032,3.5605,3.4977,3.4322,3.4322,3.3935,3.3414,0.0,0.0,0.0,0.0,0.0,0.0,0.0,0.0,0.0,0.0,0.0,2.973,2.973,0.0,0.0,0.0,2.9186,2.8425,2.7197,2.6231,2.5854,2.6211,2.623,2.7012,2.8703,2.9082,3.0,3.1494,3.2148,3.2793,3.3406,3.375,3.3848,3.375,3.3633,3.3503,3.3425,3.4004,3.4271,3.4264,3.4456,3.3799,3.2661,3.2156,3.0914,2.921,2.7594,2.6702,2.6078,2.4598,2.4138,2.4165,2.4275,2.4315,0.0,0.0,0.0,2.6774,2.8297,2.9098,2.9593,3.0034,3.0354,3.0608,3.0755,3.0955,3.1223,3.1644,3.173,3.1864,3.2158,3.25,3.2875,3.3334,3.3614,3.4068,3.4963,3.4963,3.495,3.5177,3.5191,3.5191,3.5191,3.5191,3.5311,3.5551,3.5832,3.6126,3.6473,3.6672,3.6805,3.6885,3.6885,3.6885,3.6885,3.6885,3.6885,3.6885,3.6885,3.6885,3.6885,3.6885,3.6885,3.6885,3.6885,3.6885,3.6901,3.662,3.634,3.6046,3.5738,3.5097,3.4322,3.4322,3.3935,3.3414,0.0,0.0,0.0,0.0,0.0,0.0,0.0,0.0,0.0,0.0,0.0,3.0617,3.0617,3.0241,2.9973,2.9973,2.8567,2.7149,2.5868,2.5742,2.5693,2.5757,2.5757,0.0,2.8281,2.8367,2.9394,3.1494,3.1562,3.2177,3.3386,3.3406,3.3867,3.4609,3.4251,3.3809,3.3476,3.4316,3.4668,3.464,3.42,3.4001,3.3766,3.2563,3.0896,2.9168,2.8803,2.753,2.5899,2.5273,2.5048,2.497,2.4653,2.4572,2.4693,0.0,0.0,0.0,2.8721,2.9245,2.9686,3.0528,3.0354,3.01,3.0662,3.0808,3.0982,3.1604,3.1891,3.2171,3.2514,3.2808,3.3066,3.3337,3.4148,3.4762,3.4829,3.5004,3.5177,3.5191,3.5191,3.5191,3.5191,3.5191,3.5311,3.5551,3.5645,3.5899,3.6473,3.6513,3.6647,3.6885,3.6885,3.6885,3.6885,3.6885,3.6885,3.6885,3.6885,3.6885,3.6885,3.6885,3.6885,3.6885,3.6885,3.6885,3.6901,3.662,3.634,3.6046,3.5738,3.5097,3.4322,3.4322,3.3935,3.3414,0.0,0.0,0.0,0.0,0.0,0.0,0.0,0.0,0.0,0.0,0.0,0.0,0.0,3.0552,3.0462,3.0462,2.9155,2.7746,2.6246,2.6152,2.601,2.5693,2.5971,2.6836,2.8262,2.8555,2.9492,3.1113,3.1357,3.1894,3.2637,3.3164,3.373,3.4329,3.4173,3.4016,3.3887,3.4453,3.4707,3.4679,3.4186,3.3381,3.2295,3.0788,2.9154,2.7661,2.755,2.6842,2.5998,2.5971,2.5665,2.5304,2.501,2.505,2.532,2.6132,2.6466,2.6894,2.8364,2.8845,2.9138,3.0007,3.0354,3.0528,3.0742,3.0795,3.0902,3.1303,3.1463,3.169,3.2171,3.2554,3.2915,3.3347,3.3534,3.3932,3.4708,3.4683,3.4776,3.5151,3.5191,3.5191,3.5191,3.5191,3.5244,3.5351,3.5525,3.5671,3.5925,3.6299,3.654,3.6647,3.6834,3.6885,3.6885,3.6885,3.6885,3.6885,3.6885,3.6885,3.6885,3.6885,3.6885,3.6885,3.6885,3.6885,3.6885,3.6779,3.65,3.6113,3.5952,3.5257,3.4322,3.4322,3.3935,3.3414,0.0,0.0,0.0,0.0,0.0,2.8819,2.8819,2.9685,3.0329,3.0329,0.0,0.0,0.0,0.0,2.9782,2.9483,2.867,2.7718,2.6671,2.6465,2.625,2.5952,2.6094,2.6836,2.8262,2.8574,2.9434,3.0898,3.1172,3.1601,3.2218,3.2891,3.3516,3.4114,3.4114,3.4114,3.4134,3.4531,3.4371,3.3874,3.35,3.2405,3.079,2.9385,2.827,2.7402,2.7295,2.7148,2.6987,2.6974,2.6787,2.6453,2.5852,2.5732,2.5959,2.6747,2.6734,2.676,2.8203,2.8604,2.8791,2.9579,3.0207,3.0648,3.0648,3.0795,3.0969,3.1062,3.1236,3.149,3.1891,3.2198,3.2634,3.3173,3.328,3.3561,3.4414,3.4389,3.4509,3.499,3.5057,3.5084,3.5191,3.5191,3.5191,3.5191,3.5378,3.5525,3.5631,3.5992,3.6299,3.65,3.6739,3.6885,3.6885,3.6885,3.6885,3.6885,3.6885,3.6885,3.6885,3.6885,3.6885,3.6885,3.6885,3.6885,3.6885,3.6885,3.6552,3.6072,3.6072,3.5351,3.4322,3.4322,3.3935,3.3414,0.0,0.0,0.0,0.0,2.8672,2.8918,2.8918,2.9297,2.9598,2.9598,0.0,0.0,0.0,0.0,0.0,2.7168,2.7045,2.7045,2.7025,2.666,2.6451,2.6451,2.601,2.6576,2.8301,2.834,2.918,3.0898,3.0898,3.1358,3.2179,3.2578,3.3254,3.4095,3.403,3.4018,3.4076,3.4466,3.3694,3.2257,3.2093,3.1097,2.963,2.862,2.8419,2.8617,2.8379,2.8604,2.8948,2.846,0.0,2.8404,2.7215,2.664,2.652,2.7135,2.7296,2.7469,0.0,0.0,0.0,2.9325,2.9958,3.04,3.0413,3.0808,3.1129,3.0862,3.1263,3.1698,3.1698,3.1904,3.2291,3.2853,3.3454,3.3855,3.3855,3.4108,3.4402,3.4748,3.4775,3.4843,3.5137,3.5151,3.5164,3.5177,3.5177,3.5311,3.5551,3.5631,3.5899,3.6473,3.6739,3.6885,3.6885,3.6885,3.6885,3.6885,3.6885,3.6885,3.6885,3.6885,3.6885,3.6885,3.6885,3.6885,3.6885,3.6885,3.6607,3.6086,3.6072,3.5364,3.4336,3.4322,3.3935,3.3414,0.0,0.0,0.0,2.9188,2.9344,2.9422,2.9422,2.952,2.9598,0.0,0.0,0.0,2.9422,2.9305,2.9149,2.8914,2.8574,2.8262,2.7969,2.7565,2.733,2.733,2.748,2.8086,2.9227,2.954,3.0078,3.0898,3.0898,3.1172,3.1699,3.2179,3.2824,3.355,3.2501,3.2291,3.2808,3.2918,3.224,3.1029,3.0566,3.0485,3.0548,2.9525,2.9476,2.9913,3.0247,3.0207,3.0007,0.0,2.9419,2.843,2.7455,2.6947,2.6774,2.7202,2.7001,2.6774,2.7496,0.0,0.0,0.0,0.0,0.0,3.0581,3.0795,3.0942,3.1076,3.1236,3.1343,3.1343,3.1757,3.2091,3.2038,3.2706,3.3227,3.3227,3.348,3.3694,3.3774,3.3788,3.3908,3.4215,3.4255,3.4429,3.4909,3.4936,3.5004,3.5297,3.5511,3.5899,3.6473,3.658,3.6727,3.6885,3.6885,3.6885,3.6885,3.6885,3.6885,3.6885,3.6885,3.6885,3.6885,3.6885,3.6885,3.6885,3.6885,3.6727,3.6366,3.6153,3.5485,3.4551,3.4389,3.3935,3.3414,0.0,0.0,2.9277,2.9559,2.9911,3.0087,2.9891,3.0156,3.0312,0.0,0.0,0.0,2.9891,2.9852,2.9794,2.9618,2.9492,2.9355,2.9101,2.8718,2.8484,2.8484,2.8386,2.8718,2.9579,2.9833,3.0254,3.0898,3.0898,3.1113,3.1494,3.1983,3.2162,3.2043,3.1476,3.0779,3.0023,3.0532,3.0357,2.98,3.0115,3.0144,2.9958,2.9751,2.9953,3.0453,3.0742,3.0808,3.0742,3.0915,3.0087,0.0,2.8687,2.7843,2.7094,2.755,2.7162,2.6667,2.7175,2.7429,2.7642,2.8163,0.0,0.0,3.0167,3.0621,3.1022,3.1196,3.133,3.137,3.1249,3.161,3.1824,3.153,3.2118,3.2612,3.2612,3.2866,3.3053,3.3053,3.316,3.3347,3.3654,3.3694,3.3881,3.4414,3.4402,3.4576,3.499,3.5404,3.5845,3.6313,3.6433,3.6647,3.6885,3.6885,3.6885,3.6885,3.6885,3.6885,3.6885,3.6885,3.6885,3.6885,3.6885,3.6885,3.6885,3.6885,3.6754,3.6473,3.6046,3.5418,3.4644,3.4295,3.3828,3.3414,0.0,0.0,2.9755,2.9813,3.043,3.084,3.0469,3.1035,3.1406,0.0,3.1035,3.0879,3.0469,3.0371,3.0195,2.9852,3.0106,3.0273,3.0273,2.995,2.9755,2.9813,2.9031,2.8965,2.9794,2.9774,3.0126,3.0898,3.0898,3.1044,3.1283,3.17,3.1225,2.9998,3.0475,2.9255,2.6962,2.7958,2.8472,2.8735,3.015,2.9958,2.8885,2.9673,3.0167,3.0507,3.0574,3.0862,3.1263,3.1156,3.0488,0.0,3.0145,2.9062,2.7724,2.8085,2.763,2.7001,2.7175,2.7255,2.7269,2.7296,2.8353,0.0,2.9419,3.0261,3.1036,3.1076,3.1343,3.1476,3.1183,3.1396,3.153,3.1276,3.1637,3.1971,3.1998,3.2291,3.2527,3.246,3.2625,3.2893,3.3187,3.3213,3.3374,3.3761,3.3881,3.4175,3.4788,3.5284,3.5725,3.6019,3.6313,3.6552,3.6845,3.6885,3.6885,3.6885,3.6885,3.6885,3.6885,3.6885,3.6885,3.6885,3.6885,3.6885,3.6885,3.6885,3.6754,3.6433,3.5859,3.5218,3.4631,3.4095,3.3681,3.3414,3.0723,3.0654,3.0742,3.1074,3.1289,3.1484,3.1768,3.1641,3.1621,3.1905,3.1944,3.1905,3.1827,3.1465,3.123,3.1152,3.0898,3.0762,3.0762,3.0684,3.0781,3.1133,3.0644,3.0625,3.1133,3.0801,3.0723,3.0898,3.0898,3.0568,2.9891,2.9983,2.9505,2.8557,2.7691,2.7403,2.7512,2.7251,2.7717,2.8643,2.8943,2.946,3.0079,3.0253,3.0595,3.1116,3.1597,3.169,3.1524,3.0814,3.0688,3.0702,0.0,2.9513,2.9584,2.85,2.8058,2.7791,2.7081,2.6907,2.6961,2.7242,2.7884,0.0,2.9018,2.9486,2.9887,3.0127,3.0595,3.0875,3.0627,3.0955,3.1289,3.1189,3.1129,3.1129,3.137,3.1851,3.2011,3.1543,3.153,3.1677,3.1984,3.2011,3.2332,3.3093,3.3828,3.4389,3.4802,3.5097,3.5418,3.5712,3.6006,3.6299,3.658,3.6779,3.6885,3.6885,3.6885,3.6885,3.6885,3.6885,3.6885,3.6885,3.6885,3.6885,3.6885,3.6885,3.6754,3.6433,3.5859,3.5218,3.4631,3.4095,3.3681,3.3414,3.1016,3.1055,3.1269,3.1455,3.1699,3.1992,3.2422,3.248,3.2508,3.2773,3.3019,3.3078,3.2812,3.2988,3.293,3.2469,3.2656,3.2695,3.2531,3.2285,3.2246,3.243,3.1875,3.1213,3.0539,3.0174,2.9642,2.8918,2.8733,2.8592,2.8501,2.8501,2.8311,2.7901,2.7009,2.7027,2.7701,2.7568,2.8163,2.9259,2.9259,2.97,3.0426,3.0574,3.0849,3.1216,3.1557,3.1664,3.1631,3.0996,3.0889,0.0,3.014,2.9913,2.9798,2.8858,2.8419,2.8018,2.7241,2.7041,2.7081,2.7269,2.775,0.0,0.0,2.9165,2.9566,2.986,3.0274,3.0627,3.0627,3.0808,3.1009,3.1009,3.1009,3.1009,3.1009,3.1263,3.1343,3.1049,3.1142,3.1289,3.1436,3.1583,3.1965,3.2492,3.336,3.4002,3.4309,3.475,3.5177,3.5618,3.5778,3.6059,3.65,3.6647,3.6794,3.6885,3.6885,3.6885,3.6885,3.6885,3.6885,3.6885,3.6885,3.6885,3.6885,3.6885,3.6687,3.6233,3.5645,3.5137,3.467,3.3921,3.3547,3.3414,3.1338,3.1484,3.1758,3.1758,3.2129,3.255,3.2871,3.3281,3.3574,3.362,3.4062,3.429,3.4062,3.459,3.4746,3.4219,3.439,3.4569,3.4609,3.383,3.3534,3.3894,3.2618,3.1275,2.991,2.9092,2.8102,2.69,2.662,2.6691,2.7003,2.7003,2.6972,2.6845,2.6663,2.6861,2.7415,2.8152,2.9035,2.9927,3.01,3.0381,3.0748,3.0768,3.1009,3.1289,3.1183,3.133,3.1543,3.1303,3.1102,3.0955,3.0889,3.0474,2.9887,2.9322,2.8858,2.8366,2.767,2.7429,2.7376,2.7322,2.771,2.8165,0.0,0.0,0.0,2.9526,2.986,3.0181,3.0408,3.0501,3.0528,3.0461,3.0648,3.0682,3.0488,3.0501,3.0608,3.0768,3.0955,3.1076,3.1129,3.161,3.1971,3.2091,3.2973,3.3587,3.3788,3.4362,3.4923,3.5444,3.5578,3.5885,3.6433,3.6473,3.6647,3.6885,3.6885,3.6885,3.6885,3.6885,3.6885,3.6885,3.6885,3.6885,3.6885,3.6861,3.654,3.6073,3.5485,3.503,3.4589,3.3788,3.3467,3.3414,3.2218,3.2394,3.2656,3.2656,3.3008,3.3269,3.3308,3.3711,3.4173,3.4512,3.4961,3.5541,3.6265,3.6035,3.6133,3.6797,3.503,3.4618,3.6283,3.442,3.3974,3.5641,3.2656,3.1051,3.1186,2.8548,2.7089,2.69,2.6867,2.628,2.5189,2.5189,2.4713,2.385,2.5093,2.5844,2.6332,2.8473,2.9553,2.998,3.0722,3.141,3.1824,3.1076,3.1142,3.1557,3.1036,3.1022,3.1276,0.0,3.1383,3.1577,3.1263,3.1463,3.1543,3.0207,2.9766,2.9472,2.8393,2.7898,2.7589,2.7376,2.755,2.7762,2.7789,0.0,2.8353,2.8379,0.0,2.9161,2.9188,0.0,0.0,2.9242,2.9228,2.9228,2.9202,2.9472,2.9913,3.0702,3.0641,3.0555,3.0822,3.2051,3.2625,3.2144,3.3173,3.3721,3.348,3.4042,3.4523,3.4909,3.5364,3.5792,3.6126,3.638,3.6647,3.6885,3.6885,3.6885,3.6885,3.6885,3.6885,3.6885,3.6885,3.6885,3.6901,3.6647,3.6366,3.6046,3.5712,3.5084,3.4322,3.3961,3.3654,3.3414,3.2695,3.2676,3.2871,3.3105,3.3301,3.3738,3.4733,3.5703,3.6289,3.6211,3.6816,3.7285,3.7383,3.6565,3.6181,3.6627,3.4854,3.3928,0.0,0.0,3.2631,3.3073,3.115,2.9581,2.853,2.6906,2.5593,2.4598,2.436,2.4185,2.3988,2.3826,2.4135,2.4877,2.5491,2.66,2.8138,2.9476,3.0461,3.1223,3.1583,3.2291,3.3,3.177,3.1557,3.1904,3.1885,3.1938,3.1971,0.0,3.2051,0.0,3.1677,3.1998,3.2318,3.0849,3.0421,3.0207,2.9236,2.8951,2.8911,2.8631,2.8898,2.9112,2.8591,2.8577,2.8564,2.8259,0.0,0.0,0.0,0.0,0.0,0.0,2.9299,2.9299,2.9299,2.9406,2.9798,3.0507,3.0627,3.0795,3.1263,3.1864,3.2118,3.1864,3.2786,3.3227,3.2969,3.3467,3.4015,3.4496,3.491,3.5351,3.5805,3.6112,3.6393,3.6687,3.6805,3.6885,3.6885,3.6885,3.6885,3.6885,3.6885,3.6885,3.6901,3.662,3.634,3.6046,3.5738,3.5097,3.4282,3.4002,3.3681,3.3414,3.3437,3.3223,3.3242,3.3555,3.3874,3.4655,3.6255,3.7191,3.7773,3.7812,3.8359,3.8769,3.8809,3.7462,3.6758,3.723,3.5003,3.3679,0.0,0.0,3.1918,3.2254,3.0295,2.8623,2.7394,2.59,2.4424,2.3027,2.2779,2.2812,2.3193,2.306,2.3928,2.565,2.6145,2.7403,2.9222,3.0226,3.1089,3.1877,3.2038,3.2719,3.3521,3.2532,3.2171,3.2265,3.2607,3.2661,3.2581,3.2478,3.2692,0.0,3.2273,3.246,3.2688,3.149,3.1089,3.0862,3.006,2.994,2.9967,2.9673,2.986,2.9967,2.9406,2.9175,2.9018,2.854,2.8511,0.0,0.0,0.0,2.8684,2.8751,0.0,2.8845,2.8764,2.8898,2.9272,3.0079,3.0381,3.0782,3.137,3.1845,3.1979,3.1738,3.2559,3.2906,3.25,3.2906,3.3454,3.4055,3.4362,3.4843,3.5498,3.5725,3.6059,3.65,3.6727,3.6805,3.6885,3.6885,3.6885,3.6885,3.6805,3.6779,3.6739,3.6378,3.6139,3.5925,3.5631,3.5017,3.4295,3.4082,3.3748,3.3414,3.4648,3.4349,3.4075,3.4075,3.5098,3.6333,3.7621,3.7559,3.7754,3.8984,3.916,3.9668,4.0976,3.9279,3.8544,3.9874,0.0,3.437,3.6145,0.0,3.2628,3.5326,3.094,2.8866,0.0,2.6131,2.391,2.3278,2.3265,2.3153,2.292,2.318,2.3759,2.4719,2.6466,2.763,2.8353,3.0341,3.1223,3.1303,3.1877,3.2465,3.3026,3.3267,3.3013,3.2621,3.2915,0.0,0.0,3.3187,3.32,0.0,0.0,3.2808,3.2541,3.2158,3.1864,3.1564,3.0915,3.06,3.0319,2.998,2.97,2.9579,2.9833,2.9673,2.9379,0.0,0.0,0.0,2.8272,2.7978,2.7562,2.7001,2.7148,0.0,0.0,2.7402,2.819,2.9366,2.9766,3.0181,3.0768,3.2104,3.2585,3.1778,3.2759,3.299,3.2158,3.246,3.2888,3.3427,3.3748,3.4336,3.5204,3.5217,3.5658,3.65,3.6513,3.6647,3.6885,3.6885,3.6885,3.6885,3.6647,3.6513,3.6473,3.5899,3.5591,3.5618,3.5324,3.4843,3.4322,3.4309,3.3921,3.3414,3.4766,3.4824,3.4941,3.4941,3.5547,3.6543,3.8125,3.8965,3.9104,3.82,3.8598,3.8609,3.7706,3.597,3.5169,0.0,0.0,3.2193,3.2641,3.1276,0.0,0.0,0.0,2.762,0.0,2.5954,2.4489,2.3915,2.3714,2.3661,2.3754,2.4026,2.4663,2.5623,2.7188,2.8326,2.9182,3.0808,3.1851,3.2438,3.304,3.3641,3.416,3.3601,3.3427,3.3517,3.3761,3.3801,0.0,3.3948,3.4082,3.4055,3.3454,3.348,3.3547,3.2701,3.238,3.2206,0.0,0.0,3.1738,3.1196,0.0,0.0,0.0,0.0,0.0,0.0,0.0,0.0,0.0,2.8245,2.7965,2.7764,2.7657,2.7522,0.0,2.7415,2.775,2.854,2.9249,2.994,3.0715,3.141,3.1784,3.1724,3.2225,3.2332,3.1837,3.2091,3.2519,3.3106,3.3414,3.3908,3.4603,3.4817,3.5151,3.5645,3.6032,3.6366,3.6647,3.6647,3.6647,3.6592,3.6353,3.6219,3.6193,3.5792,3.5578,3.5551,3.5311,3.4963,3.4589,3.4389,3.3935,3.3414,3.5644,3.5742,3.5801,3.5644,3.6348,3.7461,3.9023,3.9568,3.9386,3.8132,3.8053,3.77,3.6512,3.4756,3.3902,0.0,3.271,3.1503,3.1423,3.0675,0.0,3.0675,2.8911,0.0,0.0,2.6961,2.5917,2.5291,2.469,2.4436,2.4529,2.4917,2.5518,2.6319,2.7737,2.8901,2.9905,3.0962,3.1965,3.2929,3.3601,3.4055,3.4282,3.4108,3.4175,3.4362,0.0,3.4402,3.4336,3.4442,3.4536,3.4509,3.3921,3.3935,3.4015,3.3303,3.2995,3.2835,3.2492,3.2527,0.0,3.2126,3.2233,0.0,3.1617,0.0,3.0761,0.0,0.0,0.0,0.0,2.8791,2.8379,2.8486,2.7949,2.7509,0.0,2.7134,2.7215,2.7804,2.8567,2.9436,3.0381,3.0929,3.1303,3.149,3.1971,3.2131,3.1837,3.1904,3.2211,3.2848,3.3013,3.34,3.3951,3.4295,3.4643,3.5044,3.5525,3.5912,3.6193,3.6299,3.6353,3.634,3.6046,3.5912,3.5899,3.5605,3.5471,3.5458,3.5271,3.5017,3.4775,3.4429,3.3935,3.3414,3.7266,3.709,3.6738,3.6348,3.7617,3.9084,4.02,3.9385,3.863,3.8577,3.7511,3.6885,3.7229,3.5547,3.4679,3.5377,3.34,3.2265,3.2581,3.149,0.0,0.0,3.0728,3.0087,3.0426,2.8981,2.7938,2.7349,2.6146,2.5451,2.5235,2.581,2.636,2.6947,2.8136,2.9312,3.0493,3.0715,3.1577,3.2741,3.3598,3.3761,3.3644,3.4776,3.5231,3.5244,3.4989,3.4643,3.4442,3.4788,3.4643,3.4402,3.4376,3.4175,3.3948,3.3921,3.3694,3.34,3.3106,3.2875,3.2648,3.2621,3.2407,0.0,0.0,0.0,3.1738,0.0,0.0,0.0,0.0,0.0,0.0,2.8975,2.8083,2.7242,2.6894,2.6587,2.6613,2.7242,2.7804,2.862,2.9793,3.0662,3.1122,3.1223,3.2011,3.2407,3.2078,3.1837,3.2005,3.2554,3.2607,3.2839,3.3364,3.3708,3.4148,3.4775,3.5017,3.5311,3.5565,3.5899,3.6032,3.6032,3.5738,3.5551,3.5591,3.5311,3.5191,3.5191,3.5191,3.5017,3.4775,3.4429,3.3948,3.3454,3.8164,3.8945,3.9609,3.9805,4.0253,4.0106,3.8909,3.8983,3.8318,3.5943,3.5331,3.4782,3.396,3.338,3.3154,3.3367,3.3016,0.0,0.0,0.0,0.0,3.246,3.1236,3.0608,3.0675,2.9446,0.0,2.7965,2.6961,2.656,2.6747,2.7122,2.7682,2.8454,2.9018,3.0034,3.139,3.1457,3.2251,3.3561,3.3788,3.4496,3.5378,3.5244,3.5738,3.6378,3.5912,3.5685,3.5631,3.5765,3.5685,3.5551,3.511,3.4923,3.4776,3.4336,3.4148,3.4028,3.3734,3.3601,3.3491,3.3036,3.2812,3.2719,0.0,0.0,0.0,0.0,0.0,0.0,0.0,0.0,0.0,0.0,0.0,0.0,0.0,2.6707,2.6613,2.7242,2.7443,2.8136,2.9766,2.9927,3.0287,3.1156,3.1436,3.153,3.145,3.2045,3.234,3.2211,3.2639,3.2946,3.3093,3.3387,3.3734,3.4122,3.4402,3.4817,3.5311,3.5391,3.5538,3.5725,3.5431,3.5311,3.5297,3.5231,3.5191,3.5191,3.5191,3.5017,3.4775,3.4429,3.4215,3.4082,3.9629,3.9893,4.0041,4.0137,3.9977,3.9597,3.8781,3.7964,3.6781,3.4919,3.4262,3.3788,3.3215,3.3062,3.3036,3.3169,3.3146,0.0,3.3183,0.0,0.0,3.2781,3.2032,3.1604,3.1604,3.0662,0.0,2.9486,2.8604,2.8136,2.8056,2.847,2.8938,2.9402,2.9873,3.0707,3.1751,3.2211,3.3,3.3921,3.4309,3.495,0.0,3.5752,3.6179,3.6727,3.6513,3.6286,3.6072,3.6072,3.6072,3.6019,3.5685,3.5578,3.5458,3.487,3.4696,3.4616,3.4189,3.4068,3.3961,3.3494,3.3374,3.3293,3.3049,3.2692,3.2519,0.0,3.2211,3.1784,0.0,0.0,0.0,0.0,0.0,0.0,0.0,0.0,0.0,2.7402,2.7228,2.7776,2.9553,2.9806,3.0194,3.0982,3.1156,3.1343,3.1597,3.1957,3.2193,3.2104,3.2933,3.3187,3.2848,3.3467,3.3761,3.3681,3.3988,3.4362,3.4817,3.495,3.5164,3.5431,3.5271,3.5191,3.5191,3.5191,3.5191,3.5191,3.5191,3.5097,3.4937,3.4763,3.4536,3.4322,4.1054,4.0095,3.9132,3.8772,3.8174,3.8034,3.8854,3.6731,3.4941,3.4747,3.3962,3.3587,3.3908,3.3734,3.3694,3.3975,0.0,3.3748,3.3988,3.3507,3.3173,3.3106,3.2902,3.2728,3.2648,3.2112,0.0,0.0,3.0461,2.9806,2.9348,2.9833,3.0074,3.0167,3.0675,3.1249,3.1965,3.3053,3.3734,3.4122,3.4897,3.5271,3.5444,3.6219,3.654,3.658,3.6834,3.662,3.6179,3.6179,3.6179,3.6179,3.6139,3.6126,3.6019,3.5471,3.5311,3.5177,3.4589,3.4429,3.4362,3.4028,3.3948,3.3855,3.3547,3.328,3.316,3.3374,3.3013,3.2781,0.0,0.0,0.0,0.0,0.0,0.0,0.0,0.0,0.0,0.0,0.0,0.0,2.9325,2.9913,3.04,3.0768,3.1102,3.1476,3.1904,3.1837,3.1912,3.2038,3.3133,3.345,3.2781,3.3668,3.3935,3.3534,3.3734,3.3975,3.4269,3.4576,3.4857,3.5137,3.5177,3.5191,3.5191,3.5191,3.498,3.465,3.465,3.4385,3.4108,3.4491,3.4059,3.3369,4.0621,3.9236,3.8302,3.8252,3.6999,3.6168,3.6526,3.6141,3.5299,3.3852,3.3758,3.3921,3.4215,3.4416,3.4601,3.4655,3.4776,0.0,0.0,0.0,0.0,3.3748,3.3681,3.3414,3.2969,3.2621,3.23,0.0,3.1062,3.0835,3.1196,3.0822,3.0902,3.1417,3.151,3.2019,3.2812,3.3761,3.4469,3.4977,3.5137,3.5631,3.6299,3.6433,3.6647,3.6861,3.6901,3.6861,3.6739,3.6739,3.6739,3.6699,3.65,3.6433,3.6366,3.6019,3.5925,3.5792,3.5204,3.5044,3.491,3.4376,3.4242,3.4162,3.3868,3.3761,3.3668,3.3454,3.3334,3.32,3.3013,0.0,0.0,0.0,0.0,0.0,0.0,0.0,0.0,0.0,0.0,2.8871,0.0,2.9352,2.97,3.0715,3.1289,3.1423,3.1049,3.1938,3.2246,3.1757,3.2474,3.3116,0.0,0.0,3.3534,3.4162,3.3708,3.3654,3.3975,3.4269,3.4549,3.4791,3.5084,3.5191,3.5191,3.5191,3.3778,3.1657,3.1657,3.0193,2.8307,3.0739,3.0029,2.8562,3.9509,3.8074,3.7025,3.7025,3.5735,3.4809,3.5068,3.5377,3.524,3.4184,3.4376,3.4736,3.5177,3.5084,3.499,3.499,3.5124,3.5137,3.5004,3.5124,3.5017,3.4589,3.4269,0.0,3.3681,3.3227,3.2933,3.2786,3.2358,3.2225,3.2393,3.2225,3.2318,3.2585,3.2906,3.328,3.3721,3.4456,3.5017,3.5431,3.5591,3.5992,3.6513,3.6632,3.6779,3.6885,3.6885,3.6885,3.6885,3.6885,3.6885,3.6901,3.6754,3.6727,3.6632,3.638,3.6299,3.6206,3.5765,3.5645,3.5511,3.4923,3.4776,3.4656,3.4215,3.4108,3.4028,3.3721,3.3774,3.3748,3.328,3.2732,0.0,0.0,0.0,0.0,0.0,0.0,0.0,0.0,0.0,0.0,0.0,2.9806,3.002,3.0742,3.1062,3.1089,3.0808,3.1671,3.1938,3.145,3.1146,3.1026,3.1039,0.0,2.9397,2.958,2.9272,2.9295,2.9655,3.125,3.1365,3.0417,3.2037,3.1961,3.0686,3.0686,2.9872,2.8629,2.8629,2.7769,2.6691,2.8092,2.7715,2.7338,3.8282,3.6839,3.5555,3.5628,3.4773,3.4189,3.4549,3.499,3.5204,3.4911,3.5191,3.5551,3.6073,3.5712,3.5471,3.5471,3.5525,3.5538,3.5485,3.5685,3.5685,3.5391,3.4883,3.4576,3.4509,3.3975,3.3668,0.0,3.3547,3.3267,3.2799,3.3307,3.3561,3.3627,3.4108,3.4389,3.4536,3.507,3.5498,3.5832,3.6072,3.634,3.662,3.6805,3.6885,3.6885,3.6885,3.6885,3.6885,3.6885,3.6885,3.6885,3.6885,3.6885,3.6845,3.6647,3.6607,3.654,3.6246,3.6166,3.6046,3.5511,3.5338,3.5151,3.4629,3.4456,3.4336,3.4042,3.4162,3.4175,3.3694,3.336,0.0,0.0,0.0,0.0,0.0,0.0,0.0,0.0,0.0,0.0,3.0641,0.0,3.0564,3.0153,3.0644,3.0929,3.0795,3.1356,3.1299,3.0501,2.9628,2.8766,2.7967,0.0,2.5542,2.5408,2.5255,2.5306,2.5571,2.7858,2.7882,2.6266,2.8542,2.8411,2.6529,2.6529,2.6151,2.561,2.561,2.5231,2.4743,2.5339,2.5176,2.5501,3.7189,3.5515,3.4182,3.4401,3.4597,3.487,3.5418,3.5551,3.5525,3.5498,3.5805,3.606,3.6059,3.6259,3.638,3.638,3.662,3.6647,3.6393,3.6393,3.6299,3.6006,3.5685,3.5378,3.5124,3.4803,3.4509,0.0,0.0,3.328,3.2211,3.332,3.3988,3.4242,3.4295,3.4616,3.5137,3.5458,3.5912,3.6433,3.6473,3.6592,3.6845,3.6885,3.6885,3.6885,3.6885,3.6885,3.6885,3.6885,3.6885,3.6885,3.6885,3.6885,3.6885,3.6845,3.6845,3.6779,3.654,3.6473,3.6393,3.6072,3.5792,3.5511,3.5191,3.491,3.4643,3.4336,3.4295,3.4295,3.4242,3.4002,3.3868,0.0,0.0,0.0,0.0,0.0,3.2313,3.1931,0.0,0.0,0.0,3.1784,3.0807,2.8093,3.0216,3.1403,3.0822,3.1356,3.0599,2.8171,2.8028,2.7469,2.65,2.5257,2.5084,2.6021,2.5458,2.5225,2.5245,2.5758,2.587,2.5723,2.6384,2.6638,2.6529,2.6529,2.496,2.2593,2.2593,2.1015,1.9004,2.1664,2.096,1.9555,3.593,3.5385,3.4963,3.5084,3.5351,3.5685,3.6099,3.6153,3.6219,3.6338,3.6366,3.6393,3.658,3.6393,3.6313,3.65,3.6473,3.6433,3.65,3.6632,3.6592,3.6353,3.6219,3.6019,3.5725,3.5431,3.5217,0.0,0.0,0.0,3.4229,3.471,3.4897,3.4857,3.5217,3.5404,3.5485,3.5952,3.6286,3.65,3.65,3.6687,3.6885,3.6885,3.6779,3.6687,3.6861,3.6779,3.6659,3.6874,3.6885,3.6885,3.6885,3.6885,3.6885,3.6885,3.6885,3.6901,3.6794,3.6754,3.6687,3.6393,3.6246,3.6086,3.5792,3.5498,3.5204,3.491,3.471,3.4589,3.4589,3.4496,3.4336,0.0,0.0,0.0,0.0,0.0,0.0,3.2144,0.0,0.0,0.0,3.2139,3.1082,2.7948,2.9092,2.9602,2.8934,2.794,2.7589,2.8035,2.5017,2.3247,2.308,2.0899,2.0101,2.0648,2.0405,2.0279,2.034,2.2107,2.2998,2.3077,2.1652,2.1173,2.1343,2.1343,2.0639,1.961,1.961,1.8894,1.8033,1.9177,1.8887,1.824,3.5391,3.5618,3.5792,3.5872,3.6059,3.6299,3.658,3.6592,3.6672,3.6901,3.6834,3.6767,3.6794,3.6513,3.638,3.65,3.6393,3.6393,3.662,3.6779,3.6834,3.6647,3.6592,0.0,3.6206,3.5992,3.5845,3.5765,3.5765,0.0,3.5124,3.5124,3.5244,3.5471,3.5885,3.6006,3.5912,3.6326,3.654,3.6592,3.6592,3.6754,3.6885,3.6834,3.6687,3.6513,3.6647,3.654,3.6393,3.662,3.6699,3.6779,3.6901,3.6885,3.6885,3.6885,3.6885,3.6885,3.6885,3.6885,3.6845,3.6687,3.658,3.6473,3.6246,3.5965,3.5672,3.5391,3.5164,3.4963,3.4842,3.4882,3.475,3.4336,0.0,0.0,0.0,3.3143,0.0,0.0,3.2572,3.2412,3.2332,3.2822,3.1726,2.8351,2.8606,2.8196,2.655,2.5192,2.485,2.5844,2.2278,2.0163,1.9759,1.7692,1.6777,1.6978,1.6978,1.6978,1.7083,1.9045,2.0102,2.0182,1.8383,1.7683,1.7915,1.7915,1.7915,1.7915,1.7915,1.7915,1.7915,1.7915,1.7915,1.7915,3.6006,3.6059,3.6166,3.6433,3.65,3.6607,3.6845,3.6885,3.6885,3.6885,3.7195,3.7155,3.658,3.6754,3.6779,3.654,3.6754,3.6885,3.6885,3.6885,3.6885,0.0,0.0,3.6794,3.65,3.65,3.6353,3.6072,0.0,0.0,3.3908,3.3908,3.4683,3.6113,3.6126,3.6233,3.65,3.65,3.6632,3.6885,3.6885,3.6885,3.6845,3.662,3.65,3.6473,3.6179,3.614,3.614,3.6086,3.6273,3.658,3.6834,3.6885,3.6885,3.6885,3.6885,3.6885,3.6885,3.6885,3.6885,3.6885,3.6727,3.65,3.65,3.6273,3.5979,3.5685,3.5565,3.5444,3.4922,3.5004,3.5191,3.5177,0.0,0.0,0.0,3.3961,0.0,3.4215,3.4295,3.4175,3.3881,3.4122,3.2775,2.9167,2.9276,2.7795,2.3951,2.4097,2.3086,2.0385,2.0259,0.0,1.7076,1.6829,1.6777,1.6978,1.6978,1.6978,1.6985,1.718,1.7323,1.748,1.7582,1.7683,1.7915,1.7915,1.7915,1.7915,1.7915,1.7915,1.7915,1.7915,1.7915,1.7915,3.6607,3.6647,3.6687,3.6739,3.6981,3.7128,3.7235,3.7408,3.7529,3.7529,3.7635,3.7529,3.7155,3.7008,3.7048,3.7382,3.7059,3.7059,0.0,3.7529,3.651,3.4189,3.412,3.3031,3.0689,3.0633,3.0455,3.0154,0.0,0.0,2.9457,2.9457,2.9622,3.0009,3.2292,3.3329,3.358,3.5806,3.6727,3.6647,3.6647,3.654,3.634,3.6246,3.6086,3.5925,3.6032,3.5939,3.5805,3.6006,3.6259,3.6473,3.638,3.662,3.6885,3.6885,3.6885,3.6885,3.6885,3.6885,3.6885,3.6885,3.6861,3.6794,3.6794,3.658,3.6286,3.5992,3.5939,3.5819,3.5431,3.5271,3.5137,3.4989,3.4576,0.0,3.4442,0.0,3.348,3.3644,3.336,3.2359,0.0,3.2284,0.0,2.3987,2.5754,2.64,2.4658,2.3016,2.1739,0.0,1.887,0.0,1.7121,1.6978,1.6931,1.6978,1.6978,1.7032,1.7127,1.7168,1.7331,1.7527,1.7575,1.7683,1.7915,1.7915,1.7915,1.7915,1.7915,1.7915,1.7915,1.7915,1.7915,1.7915,3.7048,3.7059,3.7128,3.7235,3.7422,3.7555,3.7555,3.7595,3.7635,3.7635,3.7635,3.7595,3.7422,3.6281,3.6039,3.7509,3.7408,3.7408,3.7782,3.7809,3.6317,3.3039,3.2913,3.1363,2.8032,2.7995,0.0,2.7595,2.7783,2.7762,2.7464,2.7464,2.7353,2.7317,3.0463,3.1899,3.2088,3.5281,3.65,3.634,3.634,3.6233,3.6113,3.5952,3.5792,3.5591,3.5712,3.5631,3.5498,3.5685,3.5939,3.6166,3.6099,3.6326,3.6592,3.6699,3.6805,3.6885,3.6885,3.6885,3.6885,3.6885,3.6885,3.6885,3.6885,3.6794,3.658,3.6299,3.6233,3.6139,3.5845,3.5551,3.5297,3.5124,3.475,3.4482,3.4482,0.0,3.3841,0.0,0.0,0.0,0.0,3.1205,2.9761,0.0,2.4682,2.5236,2.3613,2.1051,1.9597,1.9464,1.767,1.6784,1.7026,1.6998,1.6978,1.6978,1.7032,1.7107,1.7195,1.7311,1.7412,1.7595,1.7704,1.7772,1.7915,1.7915,1.7915,1.7915,1.7915,1.7915,1.7915,1.7915,1.7915,1.7915,3.7342,3.7422,3.7489,3.7782,3.7823,3.7849,3.7809,3.7595,3.7478,3.7422,3.7422,3.7352,3.7141,3.4708,3.4118,3.6579,3.7041,3.7155,3.7212,3.7212,3.5762,3.2609,3.2471,3.091,2.7565,2.7478,2.737,2.7229,2.7229,2.727,2.7275,2.7275,2.7322,2.7528,3.0393,3.1687,3.1894,3.4842,3.6113,3.6046,3.6046,3.6032,3.5979,3.5698,3.5551,3.5565,3.5297,3.5191,3.5191,3.5191,3.5391,3.5672,3.5952,3.6072,3.6166,3.6433,3.6672,3.6901,3.6885,3.6885,3.6885,3.6885,3.6885,3.6885,3.6885,3.6885,3.6805,3.658,3.654,3.6433,3.6153,3.5872,3.5685,3.5658,3.5204,3.4895,3.4882,3.4563,3.4576,0.0,0.0,0.0,0.0,3.0551,2.9027,0.0,2.5177,2.3994,2.1006,1.8534,1.7053,1.6709,1.6696,1.6702,1.6716,1.691,1.6985,1.6998,1.7127,1.7202,1.7236,1.7467,1.7595,1.7615,1.7812,1.7915,1.7915,1.7915,1.7915,1.7915,1.7915,1.7915,1.7915,1.7915,1.7915,1.7915,3.7702,3.7702,3.7742,3.7809,3.7996,3.8076,3.7849,3.7956,3.8026,3.7742,3.7702,3.6854,3.4517,3.3676,3.2574,3.0932,3.0793,3.0963,3.1206,3.1265,2.9769,2.6433,2.6217,2.4601,2.1241,2.1062,2.0903,2.0728,2.0728,2.1774,2.3772,2.3772,2.4975,2.7231,3.0251,3.1566,3.1773,3.4788,3.5939,3.5738,3.5738,3.5605,3.5391,3.5324,3.5297,3.5284,3.5217,3.5191,3.5191,3.5191,3.5391,3.5591,3.5712,3.6046,3.6473,3.6754,3.6727,3.6647,3.6861,3.6885,3.6885,3.6885,3.6885,3.6885,3.6885,3.6885,3.6901,3.6805,3.6834,3.6699,3.6473,3.634,3.6219,3.6006,3.5859,3.5685,3.5458,3.5177,3.4963,0.0,3.2729,3.0154,2.7345,2.686,2.4702,0.0,0.0,2.1149,1.8419,1.7602,1.7053,1.6709,1.6696,1.6757,1.6924,1.6965,1.7032,1.7141,1.7175,1.7317,1.7487,1.7561,1.7704,1.7812,1.7902,1.7915,1.7915,1.7915,1.7915,1.7915,1.7915,1.7915,1.7915,1.7915,1.7915,1.7915,3.7996,3.7996,3.7593,3.6264,3.6172,3.5734,3.4127,3.3872,3.3836,3.3648,3.3518,3.2827,3.1182,2.9869,2.8432,2.6702,2.7874,2.8753,2.8982,2.8953,2.7531,2.4256,2.4044,2.2443,1.9051,1.8905,1.8796,1.864,1.864,1.9341,2.0765,2.2154,2.3669,2.5309,2.9679,3.1566,3.1773,3.4842,3.5979,3.5832,3.5832,3.5738,3.5591,3.5591,3.5511,3.5391,3.5391,3.5311,3.5191,3.5191,3.5297,3.5485,3.5752,3.5965,3.6219,3.6754,3.6779,3.6727,3.6845,3.6885,3.6885,3.6885,3.6885,3.6885,3.6885,3.6885,3.6885,3.6885,3.6885,3.6845,3.6727,3.658,3.6473,3.6299,3.6166,3.6019,3.5859,3.5698,3.5045,3.3465,3.1691,2.8943,2.4706,2.4005,2.213,1.7902,1.8811,0.0,1.7371,1.7236,1.7087,1.6863,1.6856,1.6897,1.6978,1.7046,1.7114,1.7195,1.7331,1.7433,1.7595,1.7717,1.7792,1.7915,1.7915,1.7915,1.7915,1.7915,1.7915,1.786,1.7792,1.7772,1.7758,1.7684,1.767,1.767,3.691,3.6948,3.6177,3.37,3.3217,3.2276,2.9595,2.8918,2.8718,2.8718,2.8499,2.8204,2.7737,2.5582,2.3947,2.3379,2.5807,2.7348,2.7348,2.7348,2.6177,2.3489,2.3305,2.193,1.9085,1.8972,1.8884,1.8728,1.8728,1.9094,1.9897,2.2495,2.4133,2.5133,3.013,3.2343,3.2519,3.5017,3.6072,3.6072,3.6072,3.6072,3.6072,3.6072,3.5912,3.5698,3.5645,3.5471,3.5257,3.5204,3.5191,3.5297,3.5832,3.5832,3.5738,3.662,3.6861,3.6874,3.6885,3.6885,3.6885,3.6885,3.6885,3.6885,3.6885,3.6885,3.6885,3.6885,3.6885,3.6885,3.6885,3.6727,3.6607,3.6687,3.6433,3.6219,3.6259,3.5799,3.45,3.1828,3.0605,2.8018,2.2911,2.1811,2.0365,1.7834,1.7467,1.7365,1.7236,1.7229,1.7168,1.7053,1.7026,1.7026,1.7046,1.7168,1.7236,1.7263,1.7467,1.7609,1.7629,1.7812,1.7915,1.7915,1.7915,1.7915,1.7915,1.7915,1.7915,1.7902,1.7704,1.7595,1.7575,1.7473,1.7419,1.7419,3.0732,3.0685,3.0556,3.0316,3.0079,2.9784,2.9261,2.903,2.89,2.8712,2.8682,2.7654,2.511,2.4452,2.3154,2.0594,2.0808,2.1081,2.1081,2.1081,2.0907,2.037,2.0109,1.9716,1.9169,1.8918,1.8728,1.8565,1.8565,2.102,2.5867,2.6349,2.9227,3.4069,3.5017,3.541,3.5464,3.591,3.6072,3.6072,3.6072,3.6072,3.6072,3.6072,3.6046,3.5965,3.5712,3.5551,3.5525,3.5284,3.5191,3.5257,3.5591,3.5672,3.5752,3.6393,3.658,3.662,3.6861,3.6885,3.6885,3.6885,3.6885,3.6885,3.6885,3.6885,3.6885,3.6885,3.6885,3.6885,3.6885,3.6845,3.6992,3.7529,3.7155,3.6845,3.7183,3.4547,3.2363,3.159,2.7045,2.3593,2.2662,2.0132,1.8377,1.7881,1.7575,1.7412,1.7385,1.7385,1.7372,1.7351,1.7229,1.7222,1.7351,1.7372,1.7453,1.7527,1.7575,1.7663,1.7826,1.7902,1.7915,1.7915,1.7915,1.7915,1.7915,1.7915,1.7915,1.7902,1.7704,1.7595,1.7575,1.7473,1.7419,1.7419,2.9492,2.9482,2.8929,2.7319,2.6864,2.6192,2.457,2.421,2.4083,2.4044,2.406,2.3512,2.213,2.2036,2.1497,2.0032,1.9976,1.9976,1.9908,1.9752,1.9725,1.9725,1.9522,1.9379,1.9203,1.8993,1.8816,1.8654,1.8654,2.0036,2.2724,2.6052,2.9027,3.1822,3.5074,3.654,3.654,3.654,3.654,3.654,3.654,3.654,3.654,3.654,3.6433,3.6286,3.6153,3.5899,3.5551,3.5471,3.5324,3.5244,3.5538,3.5578,3.5752,3.634,3.662,3.6754,3.6845,3.6885,3.6885,3.6885,3.6885,3.6885,3.6885,3.6885,3.6885,3.6885,3.6885,3.6885,3.6885,3.6885,3.6466,3.5119,3.603,3.6347,3.4741,3.3171,3.1491,2.9501,2.546,2.2235,2.0569,1.8866,1.7915,1.7915,1.7589,1.7419,1.7419,1.7419,1.7419,1.7419,1.7351,1.7351,1.7419,1.7446,1.7527,1.7595,1.7717,1.7792,1.7915,1.7915,1.7915,1.7915,1.7915,1.7915,1.7915,1.7915,1.7868,1.7738,1.7582,1.7473,1.7385,1.7236,1.7182,1.7182,2.7412,2.7427,2.664,2.4298,2.3696,2.2781,2.054,2.0085,2.0031,2.0187,2.0207,2.0207,2.0207,2.0246,2.0329,2.0207,2.0315,2.0329,2.0207,1.9997,1.9841,1.9827,1.9732,1.959,1.9305,1.9128,1.8993,1.8871,1.8854,1.9161,1.9965,2.5379,2.827,2.9155,3.4513,3.6885,3.6885,3.6885,3.6885,3.6885,3.6885,3.6885,3.6885,3.6885,3.6794,3.6552,3.654,3.6179,3.5725,3.5658,3.5431,3.5231,3.5458,3.5525,3.5645,3.6233,3.6647,3.6885,3.6885,3.6885,3.6885,3.6885,3.6885,3.6885,3.6885,3.6885,3.6885,3.6885,3.6885,3.6885,3.6885,3.6331,3.5151,3.2943,3.3836,3.398,3.1516,3.0667,2.9267,2.6676,2.3753,2.1061,1.8655,1.8145,1.797,1.797,1.767,1.7521,1.7521,1.7521,1.7521,1.7521,1.7494,1.7487,1.7521,1.7629,1.7649,1.7649,1.7812,1.7915,1.7915,1.7915,1.7915,1.7915,1.7915,1.7846,1.7812,1.7812,1.7717,1.7527,1.7426,1.7297,1.7175,1.7032,1.6978,1.6978,2.0971,2.088,2.0797,2.0831,2.0581,2.0429,2.0471,2.0383,2.0349,2.0422,2.0442,2.0442,2.0442,2.0462,2.0462,2.0442,2.0462,2.0462,2.0442,2.0422,2.0349,2.0085,1.9929,1.9848,1.9684,1.9345,1.9183,1.9169,1.8905,2.0247,2.3039,2.6329,2.9402,3.2228,3.5459,3.6885,3.6885,3.6885,3.6885,3.6885,3.6885,3.6885,3.6885,3.6885,3.6885,3.6861,3.6607,3.6299,3.6006,3.5725,3.5431,3.5204,3.5217,3.5231,3.5338,3.5939,3.65,3.6885,3.6885,3.6885,3.6885,3.6885,3.6885,3.6885,3.6885,3.6885,3.6885,3.6885,3.6885,3.6885,3.6885,3.4599,3.2819,3.3168,3.0591,2.8626,2.8725,2.5921,2.3658,2.3298,2.0512,1.8555,1.8335,1.8179,1.8077,1.8077,1.797,1.7881,1.7881,1.7881,1.7881,1.7881,1.7704,1.7649,1.7881,1.7846,1.7902,1.7902,1.786,1.7915,1.7915,1.7915,1.7915,1.7915,1.7915,1.7792,1.7609,1.7609,1.7521,1.7419,1.727,1.7202,1.7175,1.7032,1.6978,1.6978,2.0388,2.0354,2.0354,2.0462,2.032,2.0315,2.0442,2.0417,2.032,2.0462,2.0476,2.0476,2.0476,2.0476,2.0476,2.0476,2.0476,2.0476,2.0476,2.0476,2.0422,2.032,2.0241,2.0085,1.9942,1.9644,1.94,1.9203,1.9006,1.9491,2.0644,2.5598,2.8487,2.9832,3.4723,3.6885,3.6885,3.6885,3.6885,3.6885,3.6885,3.6885,3.6885,3.6885,3.6885,3.6885,3.6779,3.658,3.6299,3.6006,3.5712,3.5431,3.5257,3.5191,3.5311,3.5899,3.6473,3.6885,3.6885,3.6885,3.6885,3.6885,3.6885,3.6885,3.6885,3.6885,3.6885,3.6885,3.6885,3.6331,3.4445,3.318,3.124,2.7675,2.7576,2.717,2.5112,2.3841,2.2985,2.2616,2.0042,1.8321,1.8321,1.8179,1.8091,1.8091,1.8004,1.7915,1.7915,1.7915,1.7915,1.7915,1.7812,1.7812,1.7915,1.7915,1.7915,1.7915,1.7915,1.7915,1.7915,1.7915,1.7915,1.7915,1.7915,1.7881,1.7772,1.7772,1.7629,1.7412,1.7358,1.7222,1.7053,1.6998,1.6978,1.6978,2.0476,2.0476,2.0476,2.0476,2.0388,2.0374,2.0462,2.0388,2.0374,2.0462,2.0476,2.0476,2.0476,2.0476,2.0476,2.0476,2.0476,2.0476,2.0476,2.0476,2.0476,2.0476,2.0388,2.0349,2.0241,1.9942,2.013,2.0751,2.0606,2.0919,2.1782,2.6888,2.9335,2.955,3.4655,3.6885,3.6885,3.6885,3.6885,3.6885,3.6885,3.6885,3.6885,3.6885,3.6885,3.6885,3.6885,3.6754,3.6473,3.6273,3.5952,3.5591,3.5391,3.5391,3.5565,3.6059,3.654,3.6885,3.6885,3.6885,3.6885,3.6885,3.6885,3.6885,3.6885,3.6885,3.6901,3.6779,3.6063,3.4739,3.2562,3.0667,2.8024,2.388,2.4116,2.4001,2.1559,2.139,2.1366,2.1057,1.9328,1.8179,1.8179,1.8077,1.8023,1.8023,1.797,1.7915,1.7915,1.7915,1.7915,1.7915,1.7915,1.7915,1.7915,1.7915,1.7915,1.7915,1.7915,1.7915,1.7915,1.7915,1.7915,1.7915,1.7915,1.7868,1.7724,1.7724,1.7548,1.7283,1.7283,1.7161,1.6978,1.6978,1.6978,1.6978,2.0476,2.0476,2.0476,2.0476,2.0476,2.0476,2.0476,2.0476,2.0476,2.0476,2.0476,2.0476,2.0476,2.0476,2.0476,2.0476,2.0476,2.0476,2.0476,2.0476,2.0476,2.0476,2.0476,2.0476,2.0476,2.0261,2.1461,2.4177,2.3935,2.5234,2.7987,3.097,3.2385,3.2508,3.5528,3.6885,3.6885,3.6885,3.6885,3.6885,3.6885,3.6885,3.6885,3.6885,3.6885,3.6885,3.6885,3.6754,3.65,3.65,3.6112,3.5631,3.5578,3.5832,3.6126,3.6433,3.6672,3.6885,3.6885,3.6885,3.6885,3.6885,3.6885,3.6885,3.6885,3.6885,3.6805,3.6512,3.4186,3.206,3.1691,2.6864,2.2863,2.2863,2.0312,1.8267,1.8111,1.8091,1.8036,1.7936,1.7915,1.7915,1.7915,1.7915,1.7915,1.7915,1.7915,1.7915,1.7915,1.7915,1.7915,1.7915,1.7915,1.7915,1.7915,1.7915,1.7915,1.7915,1.7915,1.7915,1.7915,1.7915,1.7915,1.7915,1.7915,1.7704,1.7419,1.7419,1.7249,1.6985,1.6985,1.6985,1.6978,1.6978,1.6978,1.6978,2.0476,2.0476,2.0476,2.0476,2.0476,2.0476,2.0476,2.0476,2.0476,2.0476,2.0476,2.0476,2.0476,2.0476,2.0476,2.0476,2.0476,2.0476,2.0476,2.0476,2.0476,2.0476,2.0476,2.0476,2.0476,2.2476,2.3824,2.4482,2.6225,2.7444,2.8267,3.106,3.2385,3.2508,3.5528,3.6885,3.6885,3.6885,3.6885,3.6885,3.6885,3.6885,3.6885,3.6885,3.6885,3.6885,3.6885,3.6874,3.6739,3.658,3.6393,3.6206,3.6006,3.6006,3.6126,3.6433,3.6672,3.6845,3.6687,3.6739,3.6885,3.6885,3.6885,3.6347,3.4253,3.5391,3.5659,3.1156,3.1277,3.082,2.6349,2.4093,2.22,2.0038,1.8923,1.8267,1.8111,1.8091,1.8036,1.7936,1.7915,1.7915,1.7915,1.7915,1.7915,1.7915,1.7915,1.7915,1.7915,1.7915,1.7915,1.7915,1.7915,1.7915,1.7915,1.7915,1.7915,1.7915,1.7915,1.7915,1.7915,1.7915,1.7915,1.7915,1.7915,1.7758,1.7527,1.7527,1.7405,1.7127,1.7127,1.7066,1.6978,1.6978,1.6978,1.6978,2.0476,2.0476,2.0476,2.0476,2.0476,2.0476,2.0476,2.0476,2.0476,2.0476,2.0476,2.0476,2.0476,2.0476,2.0476,2.0476,2.0476,2.0476,2.0476,2.0476,2.0476,2.0476,2.0476,2.1097,2.2483,2.4207,2.6238,2.8555,2.9884,3.105,3.2104,3.3529,3.4197,3.4253,3.6083,3.6885,3.6885,3.6885,3.6885,3.6885,3.6885,3.6885,3.6885,3.6885,3.6885,3.6885,3.6885,3.6885,3.6901,3.6727,3.6607,3.6473,3.6299,3.6246,3.6273,3.6473,3.6672,3.6805,3.6433,3.654,3.6452,3.5151,3.4939,3.4547,3.2678,3.2705,3.2032,2.8255,2.7939,2.7196,2.3342,2.1716,2.0291,1.8419,1.8145,1.8111,1.8023,1.8002,1.7968,1.7936,1.7915,1.7915,1.7915,1.7915,1.7915,1.7915,1.7915,1.7915,1.7915,1.7915,1.7915,1.7915,1.7915,1.7915,1.7915,1.7915,1.7915,1.7915,1.7915,1.7915,1.7915,1.7915,1.7881,1.7772,1.7846,1.7724,1.7473,1.748,1.7378,1.7107,1.7107,1.706,1.6978,1.6978,1.6978,1.6978,2.0476,2.0476,2.0476,2.0476,2.0476,2.0476,2.0476,2.0476,2.0476,2.0476,2.0476,2.0476,2.0476,2.0476,2.0476,2.0476,2.0476,2.0476,2.0476,2.0476,2.0476,2.0476,2.0476,2.2238,2.5847,2.5893,2.8798,3.4614,3.4312,3.5411,3.7849,3.7206,3.6912,3.6885,3.6885,3.6885,3.6885,3.6885,3.6885,3.6885,3.6885,3.6885,3.6885,3.6885,3.6885,3.6885,3.6885,3.6885,3.6885,3.6885,3.6699,3.65,3.654,3.654,3.654,3.6513,3.6672,3.6794,3.6193,3.607,3.5342,3.2343,3.1476,3.133,3.1187,2.9225,2.7231,2.6512,2.4366,2.2439,2.1916,1.965,1.7915,1.7915,1.7915,1.7915,1.7915,1.7915,1.7915,1.7915,1.7915,1.7915,1.7915,1.7915,1.7915,1.7915,1.7915,1.7915,1.7915,1.7915,1.7915,1.7915,1.7915,1.7915,1.7915,1.7915,1.7915,1.7915,1.7915,1.7915,1.7915,1.7915,1.7792,1.7595,1.7792,1.7595,1.7202,1.7344,1.7236,1.6978,1.6978,1.6978,1.6978,1.6978,1.6978,1.6978,2.0476,2.0476,2.0476,2.0476,2.0476,2.0476,2.0476,2.0476,2.0476,2.0476,2.0476,2.0476,2.0476,2.0476,2.0476,2.0476,2.0476,2.0476,2.0476,2.0476,2.0476,2.0476,2.0476,2.3298,2.9268,2.9218,3.0997,3.4932,3.6761,3.7798,3.82,3.7569,3.7155,3.6885,3.6885,3.6885,3.6885,3.6885,3.6885,3.6885,3.6885,3.6885,3.6885,3.6885,3.6885,3.6885,3.6885,3.6885,3.6885,3.6885,3.6699,3.654,3.6754,3.6834,3.6794,3.658,3.6672,3.6754,3.5952,3.428,3.2483,3.1343,2.7879,2.4689,2.4827,2.6172,2.6039,2.108,2.1406,2.1823,1.9309,1.8302,1.7915,1.7915,1.7915,1.7915,1.7915,1.7915,1.7915,1.7915,1.7915,1.7915,1.7915,1.7915,1.7915,1.7915,1.7915,1.7915,1.7915,1.7915,1.7915,1.7915,1.7915,1.7915,1.7915,1.7915,1.7915,1.7915,1.7915,1.7915,1.7915,1.7915,1.7792,1.7595,1.7629,1.75,1.7195,1.7229,1.7141,1.6978,1.6978,1.6978,1.6978,1.6978,1.6978,1.6978,2.0476,2.0476,2.0476,2.0476,2.0476,2.0476,2.0476,2.0476,2.0476,2.0476,2.0476,2.0476,2.0476,2.0476,2.0476,2.0476,2.0476,2.0476,2.0476,2.0476,2.0476,2.0476,2.0476,2.3669,3.0326,3.0349,3.2691,3.7648,3.8375,3.8651,3.8477,3.7595,3.7088,3.6885,3.6885,3.6885,3.6885,3.6885,3.6885,3.6885,3.6885,3.6885,3.6885,3.6885,3.6885,3.6885,3.6885,3.6885,3.6885,3.6885,3.5881,3.4578,3.4716,3.3763,3.2561,3.2246,3.2313,3.2333,3.1584,3.0459,2.9032,2.7205,2.4555,2.2451,2.2629,2.2779,2.1944,1.8748,1.9289,1.9865,1.8205,1.7915,1.7915,1.7915,1.7915,1.7915,1.7915,1.7915,1.7915,1.7915,1.7915,1.7915,1.7915,1.7915,1.7915,1.7915,1.7915,1.7915,1.7915,1.7915,1.7915,1.7915,1.7915,1.7915,1.7915,1.7915,1.7915,1.7915,1.7915,1.7915,1.7915,1.7915,1.7738,1.7487,1.7561,1.7439,1.71,1.7161,1.7107,1.6978,1.6978,1.6978,1.6978,1.6978,1.6978,1.6978,2.0476,2.0476,2.0476,2.0476,2.0476,2.0476,2.0476,2.0476,2.0476,2.0476,2.0476,2.0476,2.0476,2.0476,2.0476,2.0476,2.0476,2.0476,2.0476,2.0476,2.0476,2.0476,2.0476,2.3669,3.0326,3.0522,3.378,4.0401,3.9306,3.87,3.8611,3.7529,3.6981,3.6885,3.6885,3.6885,3.6885,3.6885,3.6885,3.6885,3.6885,3.6885,3.6885,3.6885,3.6885,3.6885,3.6885,3.6885,3.6817,3.6318,3.4476,3.2317,3.1768,2.9921,2.7863,2.7534,2.754,2.7545,2.6979,2.6519,2.5555,2.2889,2.1853,2.1494,2.1624,1.9692,1.7956,1.8023,1.8004,1.7915,1.7915,1.7915,1.7915,1.7915,1.7915,1.7915,1.7915,1.7915,1.7915,1.7915,1.7915,1.7915,1.7915,1.7915,1.7915,1.7915,1.7915,1.7915,1.7915,1.7915,1.7915,1.7915,1.7915,1.7915,1.7915,1.7915,1.7902,1.7826,1.7826,1.7826,1.7826,1.7902,1.7684,1.7392,1.7487,1.7372,1.6992,1.7107,1.7087,1.6978,1.6978,1.6978,1.6978,1.6978,1.6978,1.6978,2.0476,2.0476,2.0476,2.0476,2.0476,2.0476,2.0476,2.0476,2.0476,2.0476,2.0476,2.0476,2.0476,2.0476,2.0476,2.0476,2.0476,2.0476,2.0476,2.0476,2.0476,2.0476,2.0476,2.3669,3.0326,3.0522,3.3651,4.0047,3.9353,3.8838,3.8348,3.7635,3.7195,3.6885,3.6885,3.6885,3.6885,3.6885,3.6885,3.6885,3.6885,3.6885,3.6885,3.6885,3.6885,3.6885,3.6885,3.6885,3.6484,3.3918,3.272,3.1924,2.9335,2.8404,2.8113,2.7595,2.7595,2.7732,2.7156,2.502,2.2897,2.2494,2.0418,1.8474,1.8488,1.8205,1.7915,1.7901,1.7936,1.7915,1.7915,1.7915,1.7915,1.7915,1.7915,1.7915,1.7915,1.7915,1.7915,1.7915,1.7915,1.7915,1.7915,1.7915,1.7915,1.7915,1.7915,1.7915,1.7915,1.7915,1.7915,1.7915,1.7915,1.7915,1.7915,1.7915,1.7806,1.7629,1.7629,1.7629,1.7629,1.7812,1.7629,1.7229,1.7385,1.727,1.6985,1.7005,1.6998,1.6978,1.6978,1.6978,1.6978,1.6978,1.6978,1.6978,2.0476,2.0476,2.0476,2.0476,2.0476,2.0476,2.0476,2.0476,2.0476,2.0476,2.0476,2.0476,2.0476,2.0476,2.0476,2.0476,2.0476,2.0476,2.0476,2.0476,2.0476,2.0476,2.2286,2.5542,3.0388,3.232,3.542,3.9786,3.9313,3.8953,3.8758,3.7996,3.7448,3.7195,3.7195,3.7088,3.6885,3.6885,3.6885,3.6885,3.6885,3.6885,3.6885,3.6885,3.6885,3.6664,3.5002,3.3304,3.1678,3.0351,2.8759,2.7069,2.575,2.4288,2.295,2.2678,2.2612,2.2571,2.2341,2.1173,2.008,2.0038,1.9018,1.7968,1.7936,1.7915,1.7915,1.7915,1.7915,1.7915,1.7915,1.7915,1.7915,1.7915,1.7915,1.7915,1.7915,1.7915,1.7915,1.7915,1.7915,1.7915,1.7915,1.7915,1.7915,1.7915,1.7915,1.7915,1.7915,1.7915,1.7915,1.7915,1.7915,1.7915,1.7915,1.7792,1.7663,1.7595,1.7507,1.7467,1.7467,1.7589,1.746,1.7195,1.7263,1.7175,1.6978,1.6978,1.6978,1.6978,1.6978,1.6978,1.6978,1.6978,1.6978,1.6978]},{"header":{"parameterUnit":"m.s-1","parameterCategory":1,"la1":30.6,"la2":28.766,"lo1":-90.7593,"lo2":-88.6598,"dx":0.0162,"dy":0.0183,"nx":116,"ny":114,"refTime":"2022-12-15T06:00:00:Z","depth":0,"parameterNumber":3,"parameterNumberName":"V-component_of_WINDS"},"data":[0.0,0.0,0.0,0.0,0.0,0.0,0.0,0.0,0.0,0.0,0.0,0.0,0.0,0.0,0.0,0.0,0.0,0.0,0.0,0.0,0.0,0.0,0.0,0.0,0.0,0.0,0.0,0.0,0.0,0.0,0.0,0.0,0.0,0.0,0.0,0.0,0.0,0.0,0.0,0.0,0.0,0.0,0.0,0.0,0.0,0.0,0.0,0.0,0.0,0.0,0.0,0.0,0.0,0.0,0.0,0.0,0.0,0.0,0.0,0.0,0.0,0.0,0.0,0.0,0.0,0.0,0.0,0.0,0.0,0.0,0.0,0.0,0.0,0.0,0.0,0.0,0.0,0.0,0.0,0.0,0.0,0.0,0.0,0.0,0.0,0.0,0.0,0.0,0.0,0.0,0.0,0.0,0.0,0.0,0.0,0.0,0.0,0.0,0.0,0.0,0.0,0.0,0.0,0.0,0.0,0.0,0.0,0.0,0.0,0.0,0.0,0.0,0.0,0.0,0.0,0.0,0.0,0.0,0.0,0.0,0.0,0.0,0.0,0.0,0.0,0.0,0.0,0.0,0.0,0.0,0.0,0.0,0.0,0.0,0.0,0.0,0.0,0.0,0.0,0.0,0.0,0.0,0.0,0.0,0.0,0.0,0.0,0.0,0.0,0.0,0.0,0.0,0.0,0.0,0.0,0.0,0.0,0.0,0.0,0.0,0.0,0.0,0.0,0.0,0.0,0.0,0.0,0.0,0.0,0.0,0.0,0.0,0.0,0.0,0.0,0.0,0.0,0.0,0.0,0.0,0.0,0.0,0.0,0.0,0.0,0.0,0.0,0.0,0.0,0.0,0.0,0.0,0.0,0.0,0.0,0.0,0.0,0.0,0.0,0.0,0.0,0.0,0.0,0.0,0.0,0.0,0.0,0.0,0.0,0.0,0.0,0.0,0.0,0.0,0.0,0.0,0.0,0.0,0.0,0.0,0.0,0.0,0.0,0.0,0.0,0.0,0.0,0.0,0.0,0.0,0.0,0.0,0.0,0.0,0.0,0.0,0.0,0.0,0.0,0.0,0.0,0.0,0.0,0.0,0.0,0.0,0.0,0.0,0.0,0.0,0.0,0.0,0.0,0.0,0.0,0.0,0.0,0.0,0.0,0.0,0.0,0.0,0.0,0.0,0.0,0.0,0.0,0.0,0.0,0.0,0.0,0.0,0.0,0.0,0.0,0.0,0.0,0.0,0.0,0.0,0.0,0.0,0.0,0.0,0.0,0.0,0.0,0.0,0.0,0.0,0.0,0.0,0.0,0.0,0.0,0.0,0.0,0.0,0.0,0.0,0.0,0.0,0.0,0.0,0.0,0.0,0.0,0.0,0.0,0.0,0.0,0.0,0.0,0.0,0.0,0.0,0.0,0.0,0.0,0.0,0.0,0.0,0.0,0.0,0.0,0.0,0.0,0.0,0.0,0.0,0.0,0.0,0.0,0.0,0.0,0.0,0.0,0.0,0.0,0.0,0.0,0.0,0.0,0.0,0.0,0.0,0.0,0.0,0.0,0.0,0.0,0.0,0.0,0.0,0.0,0.0,0.0,0.0,0.0,0.0,0.0,0.0,0.0,0.0,0.0,0.0,0.0,0.0,0.0,0.0,0.0,0.0,0.0,0.0,0.0,0.0,0.0,0.0,0.0,0.0,0.0,0.0,0.0,0.0,0.0,0.0,0.0,0.0,0.0,0.0,0.0,0.0,0.0,0.0,0.0,0.0,0.0,0.0,0.0,0.0,0.0,0.0,0.0,0.0,0.0,0.0,0.0,0.0,0.0,0.0,0.0,0.0,0.0,0.0,0.0,0.0,0.0,0.0,0.0,0.0,0.0,0.0,0.0,0.0,0.0,0.0,0.0,0.0,0.0,0.0,0.0,0.0,0.0,0.0,0.0,0.0,0.0,0.0,0.0,0.0,0.0,0.0,0.0,0.0,0.0,0.0,0.0,0.0,0.0,0.0,0.0,0.0,0.0,0.0,0.0,0.0,0.0,0.0,0.0,0.0,0.0,0.0,0.0,0.0,0.0,0.0,0.0,0.0,0.0,0.0,0.0,0.0,0.0,0.0,0.0,0.0,0.0,0.0,0.0,0.0,0.0,0.0,0.0,0.0,0.0,0.0,0.0,0.0,0.0,0.0,0.0,0.0,0.0,0.0,0.0,0.0,0.0,0.0,0.0,0.0,0.0,0.0,0.0,0.0,0.0,0.0,0.0,0.0,0.0,0.0,0.0,0.0,0.0,0.0,0.0,0.0,0.0,0.0,0.0,0.0,0.0,0.0,0.0,0.0,0.0,0.0,0.0,0.0,0.0,0.0,0.0,0.0,0.0,0.0,0.0,0.0,0.0,0.0,0.0,0.0,0.0,0.0,0.0,0.0,0.0,0.0,0.0,0.0,0.0,0.0,0.0,0.0,0.0,0.0,0.0,0.0,0.0,0.0,0.0,0.0,0.0,0.0,0.0,0.0,0.0,0.0,0.0,0.0,0.0,0.0,0.0,0.0,0.0,0.0,0.0,0.0,0.0,0.0,0.0,0.0,0.0,0.0,0.0,0.0,0.0,0.0,0.0,0.0,0.0,0.0,0.0,0.0,0.0,0.0,0.0,0.0,0.0,0.0,0.0,0.0,0.0,0.0,0.0,0.0,0.0,0.0,0.0,0.0,0.0,0.0,0.0,0.0,0.0,0.0,0.0,0.0,0.0,0.0,0.0,0.0,0.0,0.0,0.0,0.0,0.0,0.0,0.0,0.0,0.0,0.0,0.0,0.0,0.0,0.0,0.0,0.0,0.0,0.0,0.0,0.0,0.0,0.0,0.0,0.0,0.0,0.0,0.0,0.0,0.0,0.0,0.0,0.0,0.0,0.0,0.0,0.0,0.0,0.0,0.0,0.0,0.0,0.0,0.0,0.0,0.0,0.0,0.0,0.0,0.0,0.0,0.0,0.0,0.0,0.0,0.0,0.0,0.0,0.0,0.0,0.0,0.0,0.0,0.0,0.0,0.0,0.0,0.0,0.0,0.0,0.0,0.0,0.0,0.0,0.0,0.0,0.0,0.0,0.0,0.0,0.0,0.0,0.0,0.0,0.0,0.0,0.0,0.0,0.0,0.0,0.0,0.0,0.0,0.0,0.0,0.0,0.0,0.0,0.0,0.0,0.0,0.0,0.0,0.0,0.0,0.0,0.0,0.0,0.0,0.0,0.0,0.0,0.0,0.0,0.0,0.0,0.0,0.0,0.0,0.0,0.0,0.0,0.0,0.0,0.0,0.0,0.0,0.0,0.0,0.0,0.0,0.0,0.0,0.0,0.0,0.0,0.0,0.0,0.0,0.0,0.0,0.0,0.0,0.0,0.0,0.0,0.0,0.0,0.0,0.0,0.0,0.0,0.0,0.0,0.0,0.0,0.0,0.0,0.0,0.0,0.0,0.0,0.0,0.0,0.0,0.0,0.0,0.0,0.0,0.0,0.0,0.0,0.0,0.0,0.0,0.0,0.0,0.0,0.0,0.0,0.0,0.0,0.0,0.0,0.0,0.0,0.0,0.0,0.0,0.0,0.0,0.0,0.0,0.0,0.0,0.0,0.0,0.0,0.0,0.0,0.0,0.0,0.0,0.0,0.0,0.0,0.0,0.0,0.0,0.0,0.0,0.0,0.0,0.0,0.0,0.0,0.0,0.0,0.0,0.0,0.0,0.0,0.0,0.0,0.0,0.0,0.0,0.0,0.0,0.0,0.0,0.0,0.0,0.0,0.0,0.0,0.0,0.0,0.0,0.0,0.0,0.0,0.0,0.0,0.0,0.0,0.0,0.0,0.0,0.0,0.0,0.0,0.0,0.0,0.0,0.0,0.0,0.0,0.0,0.0,0.0,0.0,0.0,0.0,0.0,0.0,0.0,0.0,0.0,0.0,0.0,0.0,0.0,0.0,0.0,0.0,0.0,0.0,0.0,0.0,0.0,0.0,0.0,0.0,0.0,0.0,0.0,0.0,0.0,0.0,0.0,0.0,0.0,0.0,0.0,0.0,0.0,0.0,0.0,0.0,0.0,0.0,0.0,0.0,0.0,0.0,0.0,0.0,0.0,0.0,0.0,0.0,0.0,0.0,0.0,0.0,0.0,0.0,0.0,0.0,0.0,0.0,0.0,0.0,0.0,0.0,0.0,0.0,0.0,0.0,0.0,0.0,0.0,0.0,0.0,0.0,0.0,0.0,0.0,0.0,0.0,0.0,0.0,0.0,0.0,0.0,0.0,0.0,0.0,0.0,0.0,0.0,0.0,0.0,0.0,0.0,0.0,0.0,0.0,0.0,0.0,0.0,0.0,0.0,0.0,0.0,0.0,0.0,0.0,0.0,0.0,0.0,0.0,0.0,0.0,0.0,0.0,0.0,0.0,0.0,0.0,0.0,0.0,0.0,0.0,0.0,0.0,0.0,0.0,0.0,0.0,0.0,0.0,0.0,0.0,0.0,0.0,0.0,0.0,0.0,0.0,0.0,0.0,0.0,0.0,0.0,0.0,0.0,0.0,0.0,0.0,0.0,0.0,0.0,0.0,0.0,0.0,0.0,0.0,0.0,0.0,0.0,0.0,0.0,0.0,0.0,0.0,0.0,0.0,0.0,0.0,0.0,0.0,0.0,0.0,0.0,0.0,0.0,0.0,0.0,0.0,0.0,0.0,0.0,0.0,0.0,0.0,0.0,0.0,0.0,0.0,0.0,0.0,0.0,0.0,0.0,0.0,0.0,0.0,0.0,0.0,0.0,0.0,0.0,0.0,0.0,0.0,0.0,0.0,0.0,0.0,0.0,0.0,0.0,0.0,0.0,0.0,0.0,0.0,0.0,0.0,0.0,0.0,0.0,0.0,0.0,0.0,0.0,0.0,0.0,0.0,0.0,0.0,0.0,0.0,0.0,0.0,0.0,0.0,0.0,0.0,0.0,0.0,0.0,0.0,0.0,0.0,0.0,0.0,0.0,0.0,0.0,0.0,0.0,0.0,0.0,0.0,0.0,0.0,0.0,0.0,0.0,0.0,0.0,0.0,0.0,0.0,0.0,0.0,0.0,0.0,0.0,0.0,0.0,0.0,0.0,0.0,0.0,0.0,0.0,0.0,0.0,0.0,0.0,0.0,0.0,0.0,0.0,0.0,0.0,0.0,0.0,0.0,0.0,0.0,0.0,0.0,0.0,0.0,0.0,0.0,0.0,0.0,0.0,0.0,0.0,0.0,0.0,0.0,0.0,0.0,0.0,0.0,0.0,0.0,0.0,0.0,0.0,0.0,0.0,0.0,0.0,0.0,0.0,0.0,0.0,0.0,0.0,0.0,0.0,0.0,0.0,0.0,0.0,0.0,0.0,0.0,0.0,0.0,0.0,0.0,0.0,0.0,0.0,0.0,0.0,0.0,0.0,0.0,0.0,0.0,0.0,0.0,0.0,0.0,0.0,0.0,0.0,0.0,0.0,0.0,0.0,0.0,0.0,0.0,0.0,0.0,0.0,0.0,0.0,0.0,0.0,0.0,0.0,0.0,0.0,0.0,0.0,0.0,0.0,0.0,0.0,0.0,0.0,0.0,0.0,0.0,0.0,0.0,0.0,0.0,0.0,0.0,0.0,0.0,0.0,0.0,0.0,0.0,0.0,0.0,0.0,0.0,0.0,0.0,0.0,0.0,0.0,0.0,0.0,0.0,0.0,0.0,0.0,0.0,0.0,0.0,0.0,0.0,0.0,0.0,0.0,0.0,0.0,0.0,0.0,0.0,0.0,0.0,0.0,0.0,0.0,0.0,0.0,0.0,0.0,0.0,0.0,0.0,0.0,0.0,0.0,0.0,0.0,0.0,0.0,0.0,0.0,0.0,0.0,0.0,0.0,0.0,0.0,0.0,0.0,0.0,0.0,0.0,0.0,0.0,0.0,0.0,0.0,0.0,0.0,0.0,0.0,0.0,0.0,0.0,0.0,0.0,0.0,0.0,0.0,0.0,0.0,0.0,0.0,0.0,0.0,0.0,0.0,0.0,0.0,0.0,0.0,0.0,0.0,0.0,0.0,0.0,0.0,0.0,0.0,0.0,0.0,0.0,0.0,0.0,4.1474,3.8781,0.0,0.0,0.0,0.0,0.0,0.0,0.0,0.0,0.0,0.0,0.0,0.0,0.0,0.0,0.0,0.0,0.0,0.0,0.0,0.0,0.0,0.0,0.0,2.6387,2.6319,2.6666,2.6395,0.0,0.0,0.0,0.0,0.0,0.0,0.0,0.0,0.0,3.0601,3.164,3.2046,3.3186,3.5024,3.3829,3.2882,3.2138,0.0,0.0,0.0,0.0,0.0,0.0,0.0,0.0,0.0,0.0,0.0,0.0,0.0,0.0,0.0,0.0,0.0,0.0,0.0,0.0,0.0,0.0,0.0,0.0,0.0,0.0,0.0,0.0,0.0,0.0,0.0,0.0,0.0,0.0,0.0,0.0,0.0,0.0,0.0,0.0,0.0,0.0,0.0,0.0,0.0,0.0,0.0,0.0,0.0,0.0,0.0,0.0,0.0,0.0,0.0,0.0,0.0,0.0,0.0,0.0,0.0,0.0,0.0,0.0,0.0,0.0,0.0,0.0,0.0,0.0,4.5395,4.312,0.0,0.0,0.0,0.0,0.0,0.0,0.0,0.0,0.0,0.0,0.0,0.0,0.0,0.0,0.0,0.0,0.0,0.0,0.0,0.0,0.0,2.7478,2.7478,2.6928,2.6826,2.7444,2.7063,2.7029,2.7647,2.7918,0.0,0.0,0.0,0.0,3.1742,3.1901,3.2848,3.4675,3.5351,3.6378,3.7765,3.8497,3.8249,3.7099,3.507,0.0,0.0,0.0,0.0,0.0,0.0,0.0,0.0,0.0,0.0,0.0,0.0,0.0,0.0,0.0,0.0,0.0,0.0,0.0,0.0,0.0,0.0,0.0,0.0,0.0,0.0,0.0,0.0,0.0,0.0,0.0,0.0,0.0,0.0,0.0,0.0,0.0,0.0,0.0,0.0,0.0,0.0,0.0,0.0,0.0,0.0,0.0,0.0,0.0,0.0,0.0,0.0,0.0,0.0,0.0,0.0,0.0,0.0,0.0,0.0,0.0,0.0,0.0,5.3002,5.3034,5.2516,5.2516,5.3098,5.3896,4.9284,4.7964,4.881,4.5847,0.0,0.0,0.0,0.0,0.0,0.0,0.0,0.0,0.0,0.0,0.0,0.0,0.0,0.0,0.0,0.0,0.0,0.0,0.0,3.0625,3.0625,3.0514,3.048,3.0591,3.1099,3.1447,3.1549,3.2757,3.3535,3.3592,3.4224,3.4393,3.4077,3.4698,3.516,3.5475,3.8722,4.073,4.1589,4.2341,4.2929,4.3247,3.914,3.6907,3.6152,0.0,0.0,0.0,0.0,0.0,0.0,0.0,0.0,0.0,0.0,0.0,0.0,0.0,0.0,0.0,0.0,0.0,0.0,0.0,0.0,0.0,0.0,0.0,0.0,0.0,0.0,0.0,0.0,0.0,0.0,0.0,0.0,0.0,0.0,0.0,0.0,0.0,0.0,0.0,0.0,0.0,4.3777,4.4609,0.0,0.0,0.0,0.0,0.0,0.0,0.0,0.0,0.0,0.0,0.0,0.0,0.0,5.3002,5.3245,5.409,5.4776,5.5236,5.5921,5.6189,5.6093,5.6093,5.6221,5.636,5.5602,0.0,5.1914,5.0476,0.0,0.0,0.0,0.0,0.0,0.0,0.0,0.0,0.0,0.0,0.0,0.0,0.0,0.0,0.0,0.0,0.0,0.0,0.0,0.0,0.0,3.2442,3.278,3.3582,3.3603,3.3535,3.3535,3.4539,3.5103,3.5103,3.5859,3.6332,3.64,3.755,3.8734,3.9961,4.251,4.391,4.4215,4.4959,4.55,4.5751,4.3789,4.1305,3.8587,3.7855,0.0,0.0,0.0,0.0,0.0,0.0,0.0,0.0,0.0,0.0,0.0,0.0,0.0,0.0,0.0,0.0,0.0,0.0,0.0,0.0,0.0,0.0,0.0,0.0,0.0,0.0,0.0,0.0,0.0,0.0,0.0,0.0,0.0,0.0,0.0,0.0,0.0,0.0,0.0,4.3535,4.5635,4.6805,4.7022,4.7597,0.0,0.0,0.0,0.0,0.0,0.0,0.0,0.0,0.0,5.5412,5.619,5.6871,5.7471,5.7754,5.8011,5.8197,5.8508,5.8674,5.8674,5.8674,5.8674,5.8674,5.8674,5.7965,5.6643,5.4542,5.3608,5.3313,0.0,0.0,0.0,0.0,4.86,4.8087,0.0,0.0,0.0,0.0,0.0,0.0,0.0,0.0,0.0,0.0,0.0,0.0,3.3626,3.4032,3.4709,3.5814,3.5588,3.5453,3.5633,3.6705,3.7403,3.7594,3.8362,3.8949,3.9297,4.0574,4.2232,4.4268,4.579,4.665,4.6853,4.7394,4.7748,4.7902,4.7733,4.5365,4.1495,4.073,3.9694,3.8442,0.0,0.0,0.0,0.0,0.0,0.0,0.0,0.0,0.0,0.0,0.0,0.0,0.0,0.0,0.0,0.0,0.0,0.0,0.0,0.0,0.0,0.0,0.0,0.0,0.0,0.0,0.0,0.0,0.0,0.0,0.0,0.0,0.0,0.0,0.0,0.0,0.0,4.6955,4.8597,4.951,5.027,5.115,0.0,0.0,0.0,0.0,0.0,0.0,5.5953,5.6528,5.7442,5.8727,5.9302,5.9926,6.0689,6.0689,6.0892,6.1264,6.1264,6.1264,6.1264,6.1264,6.1264,6.1264,6.1264,6.1264,6.0994,5.781,5.6988,5.7571,5.595,5.5244,5.498,5.4102,5.3193,5.2417,0.0,0.0,0.0,0.0,0.0,0.0,0.0,0.0,0.0,0.0,0.0,3.4415,3.4449,3.5735,3.666,3.6716,3.7347,3.8024,3.8746,4.0777,4.2286,4.2983,4.3789,4.389,4.3152,4.3958,4.5108,4.6631,4.8105,4.9187,4.988,4.9914,5.0304,5.0964,5.0236,4.824,4.5365,4.4635,4.3809,4.2882,4.0777,0.0,0.0,0.0,0.0,0.0,0.0,0.0,0.0,0.0,0.0,0.0,0.0,0.0,0.0,0.0,0.0,0.0,0.0,0.0,0.0,0.0,0.0,0.0,0.0,0.0,0.0,0.0,0.0,0.0,0.0,0.0,0.0,0.0,0.0,0.0,0.0,0.0,0.0,5.4329,5.4905,0.0,0.0,0.0,0.0,5.8607,5.8709,5.9066,5.9776,5.9844,6.025,6.1095,6.1163,6.1535,6.2299,6.2299,6.299,6.4377,6.4377,6.4377,6.4377,6.4377,6.4377,6.4377,6.4377,6.4377,6.4059,6.0036,5.8036,5.7449,5.6987,5.6402,5.6048,5.7932,5.8616,5.8626,0.0,0.0,0.0,0.0,0.0,2.9001,3.0219,3.1031,3.1606,3.1877,3.3829,3.5588,3.6569,3.8036,3.93,4.0269,4.0574,4.0832,4.1115,4.2773,4.4127,4.4843,4.6061,4.7022,4.7699,4.753,4.8139,4.9627,5.0153,5.0558,5.0811,5.0811,5.093,5.1201,5.093,5.022,4.9172,4.7936,4.6718,4.5534,4.4736,4.3538,0.0,0.0,0.0,0.0,0.0,0.0,0.0,0.0,0.0,0.0,0.0,0.0,0.0,0.0,0.0,0.0,0.0,0.0,0.0,0.0,0.0,0.0,0.0,0.0,0.0,0.0,0.0,0.0,0.0,0.0,0.0,0.0,0.0,0.0,0.0,0.0,0.0,5.4668,5.6089,0.0,5.9539,5.9235,5.9539,6.1061,6.0757,6.1028,6.2226,6.1839,6.2144,6.3396,6.3429,6.3565,6.3802,6.3802,6.4072,6.4613,6.4613,6.4613,6.4613,6.4613,6.4613,6.4613,6.4613,6.4613,6.4492,6.3013,6.2287,6.2065,6.1899,6.1708,6.1513,6.1479,6.1186,6.0642,0.0,0.0,0.0,0.0,2.9373,2.988,3.1336,3.1989,3.2666,3.3681,3.5757,3.7707,3.9208,4.0709,4.2097,4.3335,4.3213,4.3382,4.4147,4.5379,4.6515,4.7515,4.8496,4.9476,5.0439,4.9984,5.0322,5.1573,5.1844,5.1979,5.1979,5.1979,5.1979,5.1979,5.1979,5.1979,5.1911,5.0947,4.9492,4.7883,4.7631,4.6481,4.4776,0.0,0.0,0.0,0.0,0.0,0.0,0.0,0.0,0.0,0.0,0.0,0.0,0.0,0.0,0.0,0.0,0.0,0.0,0.0,0.0,0.0,0.0,0.0,0.0,0.0,0.0,0.0,0.0,0.0,0.0,0.0,0.0,0.0,0.0,5.4397,5.6359,5.6122,5.7848,5.9641,6.1095,6.1467,6.2042,6.3057,6.2922,6.3226,6.4208,6.3768,6.3937,6.4918,6.4952,6.4952,6.4952,6.4952,6.5087,6.5358,6.5358,6.5358,6.5358,6.5358,6.5358,6.5358,6.5358,6.5358,6.5358,6.5358,6.5358,6.5324,6.5053,6.4952,6.4904,6.434,6.3893,6.3264,0.0,0.0,0.0,2.9963,3.0098,3.0615,3.209,3.2327,3.341,3.6423,3.8734,4.0684,4.2164,4.3721,4.4939,4.5669,4.5074,4.5616,4.7785,4.8631,4.9695,5.1201,5.1269,5.1269,5.1269,5.1269,5.1641,5.2367,5.3145,5.3551,5.3585,5.3585,5.3585,5.3585,5.3585,5.3585,5.3585,5.3551,5.2266,5.0184,4.9424,4.8631,4.7718,0.0,0.0,0.0,0.0,0.0,0.0,0.0,0.0,0.0,0.0,0.0,0.0,0.0,0.0,0.0,0.0,0.0,0.0,0.0,0.0,0.0,0.0,0.0,0.0,0.0,0.0,0.0,0.0,0.0,0.0,0.0,0.0,0.0,5.4972,5.6648,5.8287,5.9047,6.0486,6.1975,6.3443,6.4275,6.4715,6.4749,6.5358,6.5784,6.5818,6.5784,6.5751,6.5784,6.5784,6.5784,6.5784,6.5764,6.617,6.6859,6.6859,6.6859,6.6859,6.6859,6.6859,6.6859,6.6859,6.6859,6.6859,6.6859,6.6859,6.6812,6.6034,6.5751,6.5797,6.6542,6.6791,6.6677,0.0,0.0,0.0,2.9963,3.0098,3.0615,3.209,3.2757,3.4009,3.6479,3.8734,4.0886,4.2882,4.4485,4.5703,4.6413,4.6327,4.6921,4.8612,4.939,5.071,5.2773,5.2875,5.2875,5.2875,5.2875,5.3247,5.3957,5.4194,5.4566,5.509,5.509,5.509,5.509,5.509,5.509,5.5056,5.4532,5.394,5.3264,5.1928,5.0642,4.9424,0.0,0.0,0.0,0.0,0.0,0.0,0.0,0.0,0.0,0.0,0.0,0.0,0.0,0.0,0.0,0.0,0.0,0.0,0.0,0.0,0.0,0.0,0.0,0.0,0.0,0.0,0.0,0.0,0.0,0.0,0.0,5.8592,5.9066,5.8626,5.9607,6.0858,6.2091,6.3125,6.4275,6.5743,6.6576,6.7218,6.7827,6.7523,6.7557,6.8132,6.7117,6.6745,6.7286,6.7286,6.7286,6.7286,6.7861,6.8267,6.847,6.847,6.847,6.847,6.847,6.847,6.847,6.847,6.847,6.847,6.847,6.847,6.8335,6.7015,6.6508,6.6542,6.6745,6.6474,6.5967,0.0,0.0,0.0,3.048,3.0548,3.1157,3.296,3.3322,3.4675,3.8159,4.002,4.1969,4.4539,4.6177,4.7259,4.7665,4.8003,4.868,4.9848,5.1228,5.2593,5.3894,5.427,5.4424,5.4424,5.472,5.5108,5.5513,5.6184,5.6765,5.7158,5.7158,5.7158,5.7141,5.6468,5.6139,5.6105,5.5378,5.5074,5.4972,5.4093,5.2638,5.098,5.0676,5.0101,4.9357,4.8631,4.7887,4.7259,4.7124,0.0,0.0,0.0,0.0,0.0,0.0,0.0,0.0,0.0,0.0,0.0,0.0,0.0,0.0,0.0,0.0,0.0,0.0,0.0,0.0,0.0,0.0,0.0,0.0,6.1095,6.2212,6.2821,6.2787,6.3226,6.4695,6.5527,6.644,6.7658,6.8436,6.8944,6.9079,6.9248,6.9383,6.9553,6.8707,6.8402,6.8842,6.8571,6.8402,6.8402,6.8876,6.9113,6.9113,6.9113,6.9113,6.9113,6.9417,6.9553,6.9586,6.9891,7.0026,7.0026,7.0026,6.9857,6.9451,0.0,0.0,0.0,0.0,6.7489,6.7117,3.12,3.12,3.12,3.12,3.12,3.1911,3.4043,3.3829,3.525,4.0392,4.1779,4.345,4.6462,4.8173,4.912,4.912,4.9796,5.0574,5.1404,5.3695,5.4973,5.4865,5.5586,5.6015,5.6119,5.6747,5.717,5.7358,5.8769,5.9535,5.9604,5.9604,5.9604,5.9536,5.8118,5.7408,5.7306,5.6469,5.6043,5.5958,5.5768,5.4448,5.2503,5.181,5.115,5.0387,4.9627,4.8935,4.8496,4.9154,0.0,0.0,0.0,0.0,0.0,0.0,0.0,0.0,0.0,0.0,0.0,0.0,0.0,0.0,0.0,0.0,0.0,0.0,0.0,0.0,0.0,0.0,0.0,0.0,6.3565,6.5459,6.6859,6.6,6.5696,6.6893,6.7726,6.8436,6.9147,6.9958,7.0161,6.9519,7.077,7.1278,7.0623,7.0398,0.0,0.0,0.0,6.935,6.935,6.9519,6.9586,6.9586,6.9586,6.9586,6.962,7.0263,7.059,7.0623,7.1278,7.1526,7.1526,7.1526,7.1176,7.0488,6.9485,6.9113,6.9113,6.9113,6.9113,6.9113,3.12,3.12,3.12,3.12,3.12,3.1732,3.3355,3.348,3.5047,3.9694,4.1487,4.345,4.6462,4.8661,4.988,4.988,5.0574,5.1573,5.296,5.5846,5.7188,5.6488,5.7252,5.8018,5.8663,5.8814,5.9511,6.0743,6.1058,6.1526,6.2095,6.2095,6.2095,6.2095,6.1793,6.1273,6.0595,5.9124,5.8132,5.7445,5.6216,5.5074,5.4126,5.3991,5.3484,5.2739,5.1961,5.1589,5.1488,5.1623,5.0777,4.983,5.0694,5.0473,0.0,0.0,0.0,0.0,0.0,0.0,0.0,0.0,0.0,0.0,0.0,0.0,0.0,0.0,0.0,0.0,0.0,0.0,0.0,6.4681,6.6203,6.759,6.8538,6.891,6.8977,6.8707,6.9316,6.9845,6.9958,7.1176,7.1921,7.1785,7.2563,7.3003,7.2891,7.1718,7.1109,7.1109,7.0951,7.085,7.085,7.2056,7.2631,7.2631,7.2631,0.0,7.2631,7.2823,7.2857,7.2891,7.3003,7.3071,7.3071,7.3071,7.2992,7.262,7.0094,6.9113,6.9113,6.9113,6.9113,6.9113,3.12,3.12,3.12,3.12,3.12,3.1799,3.366,3.366,3.5013,3.9491,4.1048,4.2773,4.5413,4.8294,5.0255,5.0708,5.2823,5.4422,5.5157,5.7423,5.8574,5.8134,5.8873,5.9695,6.0476,6.0863,6.1623,6.2793,6.3199,6.3596,6.3939,6.353,6.3566,6.3924,6.3128,6.2746,6.2678,6.1482,6.055,5.9733,5.8961,5.7947,5.6826,5.5604,5.4702,5.3991,5.3585,5.3213,5.2909,5.2909,5.2401,5.1928,5.2672,5.2401,5.186,0.0,0.0,0.0,0.0,0.0,0.0,0.0,0.0,0.0,0.0,0.0,0.0,0.0,0.0,6.1975,6.2327,0.0,6.5493,6.6609,6.8064,6.918,6.9586,7.0601,7.1041,7.0297,7.0838,7.1447,7.1842,7.2518,7.2935,7.2935,7.3984,7.4593,7.4593,7.4289,7.4119,7.4119,7.3713,7.3341,7.2969,7.368,7.3849,7.35,7.35,7.35,7.3534,7.3883,7.4052,7.4052,7.4424,7.4593,7.4559,7.4187,7.4052,7.3883,7.2022,7.1278,7.1278,7.1278,7.1278,7.1278,3.12,3.12,3.12,3.12,3.12,3.1911,3.3975,3.3795,3.4912,3.9119,4.0688,4.2205,4.4347,4.8093,5.0934,5.2142,5.5419,5.7363,5.7162,5.8934,5.9928,5.9745,6.0476,6.134,6.2295,6.2907,6.3678,6.4657,6.5283,6.554,6.5359,6.4548,6.4621,6.5294,6.3845,6.3663,6.4341,6.3411,6.2551,6.1778,6.131,6.0372,5.9038,5.6936,5.5703,5.5026,5.4872,5.4431,5.3923,5.3923,5.3923,5.4025,5.4634,5.4499,5.4262,5.4837,5.46,0.0,0.0,0.0,0.0,0.0,0.0,0.0,0.0,5.937,6.0452,6.0129,6.1772,6.3429,6.4018,6.5459,6.6948,6.8132,6.962,7.0623,7.0623,7.1751,7.2462,7.1999,7.2326,7.2834,7.3466,7.3771,7.394,7.394,7.5303,7.6149,7.6149,7.6623,7.6893,7.6893,7.6284,7.5642,7.5043,7.5067,7.4762,7.4153,7.4153,7.4244,7.4413,7.4999,7.5337,7.5483,7.5946,7.6149,7.6082,7.5506,7.527,7.5202,7.4593,7.438,7.4312,7.3737,7.35,7.35,3.12,3.12,3.12,3.12,3.12,3.1732,3.3288,3.3446,3.4529,3.7719,4.045,4.2673,4.424,4.8943,5.2848,5.5044,5.7548,5.8738,5.7998,6.0738,6.2094,6.1357,6.2102,6.3266,6.4854,6.4958,6.576,6.7287,6.7355,6.7029,6.632,6.55,6.5574,6.632,6.5421,6.5467,6.6098,6.4548,6.3416,6.2479,6.0282,5.9296,5.9006,5.8024,5.7225,5.6544,5.5842,5.553,5.5462,5.5462,5.5462,5.5462,5.5564,5.5969,5.6461,5.6528,5.6494,5.6427,5.6325,5.6359,5.6765,5.8168,5.8675,5.9554,0.0,6.2448,6.2482,6.3734,6.5222,6.6318,6.6419,6.8233,6.9744,6.9913,7.1176,7.2157,7.2157,7.2868,7.3578,7.4153,7.3713,7.3432,7.35,7.4661,7.5439,7.5439,7.686,7.7764,7.7764,7.7198,7.6893,7.6893,7.6826,7.6724,7.6657,7.6657,7.6589,7.6521,7.6521,7.686,7.7493,7.7594,7.7976,7.856,7.7976,7.7764,7.7764,7.7638,7.7604,7.7604,7.7527,7.7493,7.7188,7.4481,7.35,7.35,3.12,3.12,3.12,3.12,3.12,3.1539,3.2588,3.3119,3.4157,3.6287,3.8761,4.1047,4.292,4.8538,5.276,5.4146,5.774,5.9608,5.8779,6.1282,6.2667,6.2311,6.2605,6.338,6.4567,6.5081,6.5852,6.699,6.699,6.6843,6.6476,6.5692,6.5742,6.6476,6.6145,6.6439,6.7123,6.5961,6.4701,6.338,6.1843,6.0709,5.9768,5.8926,5.8427,5.8041,5.6795,5.6071,0.0,5.5699,5.5699,5.5699,5.5699,5.5902,5.624,5.6664,5.7103,5.7712,5.9066,5.9438,5.9674,6.0723,6.1637,6.2584,6.3869,6.4241,6.4613,6.5662,6.6711,6.759,6.8064,6.9248,7.0466,7.1345,7.1988,7.2563,7.2969,7.368,7.4424,7.5168,7.4965,7.4965,7.5439,7.642,7.7029,7.7029,7.8044,7.8653,7.8653,7.8754,7.8822,7.8822,7.9228,7.9228,7.8822,7.9228,7.9228,7.8822,7.8822,7.8991,7.9261,7.9261,7.9431,7.9735,7.9397,7.9025,7.8653,7.8653,7.8382,7.8,7.8,7.8,7.7865,7.6579,7.6139,7.6139,3.12,3.12,3.12,3.12,3.12,3.1437,3.2192,3.2926,3.3852,3.5137,3.7432,4.0156,4.3325,4.8331,5.2036,5.3402,5.6932,5.9098,5.9184,6.1031,6.2352,6.2793,6.2793,6.3196,6.4066,6.4677,6.5375,6.6182,6.6402,6.6402,6.6145,6.5582,6.5742,6.6476,6.6256,6.6623,6.7283,6.6239,6.4981,6.3538,6.2274,6.1092,5.9944,5.9077,5.8755,5.8634,5.7755,5.6944,5.6361,5.6828,5.6673,5.6393,5.6781,5.6916,5.7052,5.7814,5.8558,5.9592,6.1637,6.2212,6.2448,6.3362,6.458,6.5493,6.5493,6.5933,6.6406,6.6745,6.7387,6.8132,6.8944,6.9857,7.0906,7.2191,7.2732,7.3206,7.3713,7.4627,7.5371,7.5676,7.6082,7.6487,7.686,7.7367,7.7696,7.7696,7.8382,7.8889,7.9092,7.9803,8.0276,8.0479,8.1224,8.1359,8.0818,8.1122,8.1046,8.0513,8.0513,8.0615,8.0818,8.1021,8.0987,8.0818,8.0818,8.0513,8.0006,8.0006,7.9701,7.9194,7.9194,7.9194,7.9194,7.9194,7.8686,7.8,3.12,3.12,3.12,3.12,3.12,3.1437,3.2192,3.2926,3.366,3.4438,3.7025,4.101,4.6792,4.8725,5.0865,5.4069,5.5218,5.6712,5.9049,6.0003,6.1178,6.2719,6.2793,6.3196,6.4066,6.4139,6.453,6.5325,6.6109,6.6109,6.5325,6.5288,6.5742,6.6476,6.5692,6.5778,6.6436,6.4768,6.3596,6.263,6.0196,5.9161,5.9044,5.8228,5.7936,5.8011,5.8755,5.853,5.8079,5.9633,5.9129,5.8103,5.9505,5.9979,6.0114,6.0926,6.167,6.2603,6.4072,6.4512,6.485,6.6284,6.7252,6.7793,6.7793,6.7827,6.7624,6.6927,6.7387,6.8132,6.8944,7.0297,7.1526,7.2293,7.3612,7.4559,7.4536,7.5879,7.6555,7.5777,7.7029,7.7638,7.6961,7.6927,7.6927,7.6927,7.7604,7.8348,7.9034,7.9803,8.0513,8.1249,8.1968,8.2374,8.234,8.1629,8.1283,8.1283,8.1283,8.1629,8.2374,8.3084,8.3016,8.234,8.234,8.234,8.2306,8.2306,8.2306,8.2272,8.2272,8.2272,8.2272,8.2272,8.0445,7.8,3.12,3.12,3.12,3.12,3.12,3.1292,3.1539,3.2182,3.2757,3.3004,3.6275,0.0,0.0,0.0,0.0,0.0,5.3078,5.5133,5.5967,5.8756,6.0627,6.1178,6.2242,6.2939,6.3246,6.3796,6.4237,6.4494,6.5301,6.5582,6.5288,6.5288,6.5435,6.5692,6.5398,6.5124,6.4746,6.3145,6.1664,6.0253,5.8384,5.7308,5.6866,5.7093,5.7495,5.8135,0.0,5.9737,5.9736,6.0739,6.105,6.1112,6.161,6.1698,6.1772,6.255,6.4005,6.5425,6.5933,6.644,6.7049,6.8064,6.8876,6.9439,6.9439,6.9045,6.8639,6.8368,6.891,6.9485,6.9755,7.1447,7.3003,7.3747,7.4289,7.4965,7.598,7.6589,7.6961,7.7198,7.7232,7.7367,7.7604,7.7638,7.7841,7.8314,7.8585,7.9058,7.9803,8.0073,8.031,8.0547,8.1291,8.1663,8.1663,8.2374,8.2746,8.2746,8.3253,8.3599,8.387,8.4106,8.4072,8.3836,8.3836,8.3565,8.3118,8.3118,8.2847,8.2408,8.2408,8.2408,8.2408,8.2408,8.1765,8.0919,3.12,3.12,3.12,3.12,3.1437,0.0,0.0,0.0,0.0,0.0,0.0,0.0,0.0,0.0,0.0,0.0,0.0,5.3151,5.4326,5.6822,5.8756,5.993,6.1251,6.2059,6.2352,6.3209,6.3649,6.3649,6.4457,6.4861,6.4897,6.5191,6.5288,6.5275,6.4965,6.4343,6.3444,6.1592,6.0538,5.9884,5.7749,5.7058,5.7378,5.7275,5.7529,0.0,5.9424,6.0271,6.0912,6.1623,6.2178,6.2646,6.2905,6.3348,6.4011,6.5176,6.6371,6.7448,6.8183,6.8571,6.891,6.9688,7.0229,7.0534,7.0263,6.9823,6.9417,6.9147,6.9688,7.0285,7.0534,7.2214,7.3713,7.4492,7.5067,7.5777,7.6758,7.713,7.7367,7.757,7.7198,7.7096,7.7536,7.7604,7.7908,7.8653,7.872,7.9025,7.9769,8.0073,8.031,8.0581,8.1291,8.1697,8.1697,8.2644,8.3118,8.3118,8.3862,8.4208,8.4208,8.4478,8.4614,8.4614,8.4614,8.4309,8.3896,8.3896,8.3625,8.3219,8.3219,8.3219,8.3219,8.3219,8.3219,8.3092,3.12,3.12,3.119,0.0,0.0,0.0,0.0,0.0,0.0,0.0,0.0,0.0,0.0,0.0,0.0,0.0,0.0,0.0,5.3959,5.4326,5.5757,5.8829,5.9783,6.0639,6.1459,6.2242,6.2646,6.2683,6.3503,6.3919,6.3919,6.4677,6.5031,6.5005,6.4165,6.3357,6.2457,6.0113,6.0013,6.1074,5.8009,5.8116,5.9977,5.8471,5.7861,5.7953,5.8699,6.0012,6.1502,6.2265,6.2664,6.296,6.3648,6.504,6.6761,6.8541,6.8699,6.8773,7.0697,7.077,7.0398,7.1142,7.1289,7.1142,7.0398,7.0251,6.9992,6.9316,6.9755,7.0534,7.1255,7.2631,7.3849,7.4593,7.5912,7.686,7.6961,7.7536,7.7705,7.7096,7.7029,7.7029,7.7063,7.7096,7.7401,7.8136,7.8102,7.8382,7.9101,7.9837,8.0513,8.1215,8.1968,8.234,8.234,8.2441,8.2475,8.2543,8.3219,8.3558,8.3592,8.4275,8.4614,8.4614,8.4614,8.4614,8.4647,8.4647,8.4681,8.4715,8.4715,8.4715,8.4715,8.4715,8.4715,8.4512,0.0,0.0,0.0,0.0,0.0,0.0,0.0,0.0,0.0,0.0,0.0,0.0,0.0,0.0,0.0,0.0,0.0,0.0,5.0775,5.3078,5.4766,5.5611,5.7556,5.8988,5.9783,6.0003,6.0407,6.0994,6.1227,6.1337,6.1337,6.1557,6.1655,6.1655,6.1408,6.0856,6.0047,5.8862,5.8267,5.796,5.6552,5.6335,5.6855,5.6438,5.6644,5.7173,5.7312,5.8456,6.0215,6.2039,6.4247,6.6221,6.6047,6.7581,6.9257,6.8434,6.9308,7.0512,7.0487,7.0737,7.1075,7.1255,7.1289,7.1255,7.1075,7.0601,7.015,6.9958,7.0939,7.2056,7.28,7.4119,7.5405,7.6183,7.6149,7.642,7.7536,7.7401,7.7536,7.845,7.8551,7.8754,7.9295,7.9837,8.0242,8.0437,7.9431,7.916,7.987,8.0107,8.0276,8.0479,8.119,8.1562,8.1562,8.2678,8.349,8.4039,8.4208,8.4309,8.4309,8.4512,8.4614,8.4614,8.4614,8.4945,8.5486,8.5486,8.5824,8.6305,8.6305,8.6305,8.6305,8.6305,8.6305,8.6169,0.0,0.0,0.0,0.0,0.0,0.0,0.0,0.0,0.0,0.0,0.0,0.0,0.0,0.0,0.0,0.0,0.0,0.0,0.0,5.0697,5.2331,5.3389,5.5342,5.6969,5.8132,5.8829,5.9233,5.9355,6.0419,6.075,6.0407,6.1104,6.1251,6.0921,6.0539,5.994,5.9146,5.8057,5.79,0.0,0.0,5.6652,5.7196,5.6502,5.6288,5.6359,5.6347,5.7574,5.9603,6.1813,6.4233,6.6512,6.7496,6.8856,6.9993,6.9531,7.0355,7.1318,7.0836,7.0973,7.1289,7.1289,7.1289,7.1289,7.1289,7.0973,7.077,7.1075,7.209,7.3105,7.3849,7.5202,7.6251,7.6352,7.6826,7.7367,7.7908,7.7908,7.8179,7.9,7.9101,7.9397,8.0141,8.0877,8.1426,8.1765,8.1021,8.0581,8.0682,8.0987,8.1156,8.1156,8.1562,8.1765,8.1765,8.2611,8.3219,8.3633,8.4275,8.4614,8.4614,8.529,8.5594,8.5594,8.5594,8.5892,8.6264,8.6264,8.6332,8.6433,8.6433,8.6433,8.6433,8.6433,8.6636,8.6839,0.0,0.0,0.0,0.0,0.0,0.0,0.0,0.0,0.0,3.5159,3.481,3.5468,3.7663,4.0274,0.0,0.0,0.0,0.0,0.0,0.0,4.9399,5.1524,5.2913,5.4444,5.6159,5.7551,5.8062,5.7666,5.9758,6.0456,5.9795,6.1288,6.163,6.0946,6.0342,5.969,5.8941,5.7622,5.8164,5.9772,5.7729,5.7667,5.8646,0.0,5.617,5.5529,5.5453,5.6871,5.9133,6.1246,6.3289,6.543,6.8085,6.9311,6.9898,7.0887,7.1327,7.1517,7.1354,7.1289,7.1289,7.1289,7.1289,7.1289,7.1289,7.1357,7.1661,7.2429,7.3107,7.3783,7.4634,7.5727,7.6318,7.5912,7.7435,7.8551,7.8179,7.8619,7.9025,7.9203,7.9329,7.9701,8.0412,8.1257,8.1968,8.2509,8.2644,8.234,8.1494,8.2069,8.2441,8.2543,8.2543,8.2644,8.2847,8.2847,8.2915,8.3016,8.4174,8.4749,8.4783,8.6034,8.6575,8.6575,8.6575,8.667,8.6771,8.6771,8.6501,8.6088,8.6088,8.6129,8.6257,8.6257,8.6636,8.7177,0.0,0.0,0.0,0.0,0.0,0.0,0.0,0.0,0.0,0.0,3.6569,3.6434,0.0,0.0,0.0,0.0,0.0,0.0,0.0,0.0,0.0,4.8461,4.9376,5.0832,5.2949,5.3251,5.4257,5.6025,5.6429,5.6576,5.6466,5.7409,5.7765,5.7655,5.8174,5.8334,5.8188,5.7934,5.7702,5.7477,5.7044,5.6667,5.6219,5.5323,5.4887,0.0,5.4102,5.5315,5.7454,5.9053,6.2376,6.6128,6.7653,6.9152,7.0352,7.0386,7.0836,7.1331,7.1323,7.1289,7.1289,7.1289,7.1289,7.1289,7.1289,7.1785,7.2485,7.3516,7.3613,7.4002,7.563,7.4935,7.4661,7.642,7.6454,7.6893,7.8653,7.8483,7.8619,7.987,8.0547,8.119,8.1968,8.3227,8.3802,8.3355,8.387,8.3633,8.2272,8.234,8.2678,8.3287,8.3321,8.393,8.5182,8.5215,8.552,8.6129,8.5757,8.5587,8.5587,8.5155,8.4986,8.4986,8.4986,8.5384,8.5993,8.5993,8.6636,8.7617,8.7617,8.7989,8.8525,8.8525,8.8626,8.8632,0.0,0.0,0.0,0.0,0.0,0.0,0.0,3.7934,3.8746,4.1001,4.0007,3.9454,4.0419,4.1182,4.2181,0.0,0.0,0.0,0.0,0.0,0.0,4.6588,4.766,4.8959,5.0462,5.1274,5.2029,5.2678,0.0,5.4916,5.4543,5.5747,5.6108,5.571,5.612,5.6048,5.5638,5.5638,5.5448,5.5124,5.5124,5.4892,5.4524,5.415,5.403,0.0,5.3635,5.4938,5.6968,5.8051,6.1226,6.5033,6.6786,6.8459,6.9833,7.0134,7.0737,7.1289,7.1289,7.1289,7.1412,7.196,7.2077,7.2077,7.2077,7.2351,7.2694,7.3105,7.3028,7.3288,7.4581,7.44,7.4498,7.5709,7.6452,7.7314,7.8558,7.8978,7.9397,8.0107,8.119,8.2002,8.2374,8.3734,8.4444,8.4099,8.4377,8.4106,8.305,8.3727,8.4336,8.4674,8.508,8.5621,8.6366,8.6366,8.6569,8.6907,8.6941,8.6738,8.6399,8.6771,8.6535,8.5831,8.6602,8.6941,8.6974,8.7374,8.7685,8.7989,8.7989,8.8226,8.8531,8.8531,8.8767,8.9066,0.0,0.0,0.0,0.0,0.0,0.0,0.0,3.9728,4.0595,4.3727,4.3504,4.2794,4.2219,4.2192,4.2305,0.0,0.0,0.0,0.0,0.0,0.0,0.0,4.6199,4.7299,4.8402,0.0,0.0,4.9991,5.2466,0.0,0.0,0.0,0.0,0.0,5.4374,5.4076,5.3517,5.3517,5.3422,0.0,0.0,5.318,5.3011,0.0,0.0,0.0,0.0,5.4837,5.6697,5.7408,6.0047,6.3342,6.5256,6.7354,6.9248,6.9958,7.0737,7.1289,7.1289,7.1289,7.1546,7.254,7.2797,7.2797,7.2797,7.2936,7.2996,7.2775,7.2542,7.2655,7.347,7.3763,7.4116,7.4861,7.6474,7.7804,7.8337,7.9487,8.0204,7.9997,8.1426,8.2408,8.2408,8.3734,8.4614,8.4614,8.4749,8.4606,8.4031,8.5283,8.6027,8.6027,8.6602,8.6974,8.7144,8.7144,8.7211,8.738,8.7786,8.7685,8.7177,8.8158,8.7989,8.6947,8.8125,8.8294,8.782,8.8395,8.8361,8.7989,8.7989,8.8091,8.8226,8.8226,8.8598,8.91,0.0,0.0,0.0,0.0,0.0,0.0,0.0,4.0608,4.232,4.6007,4.5838,4.5365,4.5283,4.3505,4.2569,0.0,0.0,0.0,0.0,0.0,0.0,0.0,0.0,0.0,0.0,0.0,0.0,4.9991,5.0287,0.0,0.0,0.0,0.0,0.0,0.0,5.3553,5.3517,5.3517,0.0,0.0,0.0,0.0,0.0,0.0,0.0,0.0,0.0,5.4481,5.5902,5.6664,5.8964,6.1637,6.2516,6.5696,6.9248,6.9958,7.0737,7.1289,7.1289,7.1289,7.1546,7.254,7.2797,7.2797,7.2797,7.3317,7.3816,7.3843,7.3098,7.2722,7.3769,7.2678,7.237,7.4641,7.5773,7.6858,7.8229,7.9718,8.0287,7.9318,8.1063,8.2408,8.2408,8.3734,8.4614,8.4614,8.5283,8.5655,8.5614,8.6366,8.6805,8.6805,8.6873,8.7245,8.7888,8.7888,8.8226,8.8869,8.8294,8.7955,8.7888,8.7347,8.7042,8.6907,8.7042,8.7076,8.7008,8.7076,8.7448,8.7989,8.7989,8.8395,8.8998,8.8998,8.9066,8.91,0.0,0.0,0.0,0.0,0.0,0.0,4.0912,4.169,4.3369,4.7564,4.7481,4.7008,4.7008,4.5418,4.391,4.2828,0.0,0.0,0.0,0.0,0.0,0.0,0.0,0.0,0.0,0.0,4.7194,4.8072,4.8956,0.0,0.0,0.0,0.0,0.0,0.0,5.0794,5.0794,5.0794,0.0,0.0,0.0,0.0,0.0,0.0,0.0,0.0,0.0,0.0,5.5141,5.5868,5.7829,6.0129,6.1366,6.3869,6.6711,6.8335,6.9688,7.0737,7.1176,7.1754,7.2435,7.3452,7.3694,7.3694,7.3694,7.3476,7.3059,7.2501,7.202,7.1875,7.2295,7.1782,7.2013,7.4216,7.591,7.7556,7.9413,8.1698,8.2574,8.0977,8.2767,8.3702,8.2519,8.3734,8.4783,8.5283,8.6027,8.667,8.7076,8.7414,8.755,8.755,8.7989,8.8361,8.8632,8.8632,8.8829,8.91,8.8801,8.8429,8.7989,8.8158,8.7753,8.6974,8.7854,8.7955,8.7617,8.8023,8.8395,8.8632,8.8632,8.8835,8.91,8.91,8.91,8.91,0.0,0.0,0.0,0.0,0.0,3.798,4.1454,4.2354,4.4012,4.7868,4.809,4.7718,4.7312,4.6331,4.4891,4.2794,4.1948,0.0,0.0,0.0,0.0,0.0,0.0,0.0,0.0,0.0,4.6684,4.7124,4.8173,4.8781,0.0,0.0,4.9018,4.9018,0.0,0.0,0.0,0.0,0.0,0.0,0.0,0.0,0.0,0.0,0.0,0.0,0.0,0.0,0.0,0.0,0.0,5.8896,6.0216,6.2144,6.4471,6.7174,6.8863,7.0114,7.1134,7.1863,7.2686,7.3966,7.4062,7.3892,7.3951,7.3417,7.2525,7.1323,7.1051,7.1119,7.1358,7.1392,7.2059,7.397,7.6382,7.8549,7.997,8.2926,8.4422,8.2979,8.481,8.5506,8.379,8.4201,8.5071,8.6269,8.7045,8.7948,8.9057,8.9323,8.9094,8.8355,8.8829,8.91,8.91,8.91,8.91,8.91,8.91,8.8829,8.8328,8.8863,8.8531,8.7617,8.8632,8.8829,8.8361,8.8897,8.91,8.91,8.91,8.91,8.91,8.91,8.91,8.9066,0.0,0.0,0.0,0.0,0.0,0.0,4.0764,4.2442,4.4234,4.653,4.7462,4.7346,4.5858,4.5689,4.508,4.3524,4.2726,0.0,0.0,0.0,0.0,0.0,0.0,0.0,0.0,0.0,4.6433,4.7887,4.7921,4.8293,4.9018,4.9018,4.9018,4.9018,0.0,0.0,0.0,0.0,0.0,0.0,0.0,0.0,5.1269,0.0,0.0,0.0,0.0,0.0,0.0,0.0,0.0,0.0,0.0,6.0588,6.3192,6.7068,6.8617,6.9487,7.1125,7.1465,7.182,7.3807,7.3552,7.2896,7.3166,7.3142,7.2592,7.0878,7.0519,7.0727,7.1448,7.1627,7.2275,7.4014,7.7215,7.9468,7.9432,8.2824,8.5195,8.4904,8.6882,8.7803,8.6575,8.5344,8.5459,8.7542,8.8345,8.9647,9.1658,9.2448,9.1681,8.9184,8.91,8.91,8.91,8.91,8.91,8.91,8.91,8.91,8.91,8.91,8.91,8.91,8.91,8.91,8.91,8.91,8.91,8.91,8.91,8.91,8.91,8.91,8.91,8.8998,0.0,0.0,0.0,0.0,0.0,0.0,0.0,4.1373,4.3098,4.4302,4.5162,4.5669,4.5703,4.5703,4.5486,4.5012,4.3335,0.0,0.0,0.0,0.0,0.0,0.0,0.0,0.0,0.0,4.7684,4.8631,4.9645,5.0254,5.0491,5.1014,5.098,5.0491,5.0491,5.0236,0.0,0.0,0.0,0.0,0.0,5.0998,5.1336,0.0,0.0,0.0,0.0,0.0,0.0,0.0,0.0,0.0,0.0,0.0,0.0,6.4311,6.6308,6.7891,6.9615,7.054,7.1387,7.3244,7.3028,7.2389,7.2365,7.2326,7.1939,7.0759,7.0505,7.0933,7.2372,7.2136,7.2499,7.4941,7.7666,7.9897,8.1139,8.3611,8.4979,8.4109,8.4904,8.5739,8.6384,8.6793,8.7806,8.9553,8.9894,9.0764,9.2472,9.2755,9.2539,9.1741,9.1716,9.1716,9.1716,9.1716,9.1716,9.1716,9.1716,9.1716,9.1716,9.1716,9.1219,9.0376,9.0376,8.9908,8.91,8.91,8.91,8.91,8.91,8.91,8.91,8.91,8.8767,8.8294,0.0,0.0,0.0,0.0,0.0,0.0,0.0,4.1102,4.2794,4.2949,4.3924,4.4871,4.5635,4.5466,4.5399,4.5669,4.4161,0.0,0.0,0.0,0.0,0.0,0.0,0.0,4.6109,4.7549,4.88,4.9814,5.1032,5.1607,5.1607,5.2097,5.1911,5.1201,5.1201,5.093,0.0,0.0,0.0,0.0,5.0592,5.1201,5.137,0.0,0.0,0.0,0.0,0.0,0.0,0.0,0.0,0.0,0.0,0.0,0.0,0.0,6.3943,6.6414,6.8083,6.9152,7.0248,7.2029,7.2022,7.1722,7.2049,7.2299,7.221,7.1344,7.1427,7.2036,7.3403,7.3445,7.3943,7.5939,7.8899,8.1207,8.189,8.4172,8.5821,8.6013,8.5861,8.6417,8.8086,8.8219,8.9076,9.1167,9.1296,9.221,9.4228,9.4322,9.4322,9.4322,9.3386,9.2896,9.2896,9.2896,9.2896,9.2896,9.2896,9.2896,9.2896,9.2896,9.2467,9.1691,9.1194,9.0561,0.0,8.9799,8.9532,8.9156,8.9642,8.9504,8.9122,8.9308,8.9055,8.8658,0.0,0.0,0.0,0.0,0.0,0.0,0.0,4.1495,4.3085,4.2388,4.3586,4.477,4.5466,4.4973,4.4871,4.5568,0.0,0.0,0.0,0.0,0.0,0.0,0.0,0.0,4.6936,4.8342,4.9796,5.1269,5.2063,5.2469,5.2469,5.257,5.2198,5.1438,5.1438,5.1336,0.0,0.0,0.0,0.0,5.0558,5.1167,0.0,0.0,0.0,0.0,0.0,0.0,0.0,0.0,0.0,0.0,0.0,0.0,0.0,0.0,0.0,0.0,0.0,6.7572,6.8749,7.0557,7.086,7.1019,7.2069,7.2877,0.0,7.2535,7.2969,7.3744,7.4555,7.5313,7.6089,7.6954,8.0501,8.2823,8.1961,8.4467,8.7243,8.9503,8.8871,8.9041,9.1099,8.9579,8.9606,9.2435,9.2626,9.3817,9.6554,9.6685,9.6685,9.6685,9.4423,9.3178,9.3178,9.3178,9.3178,9.3178,9.3178,9.3178,9.3178,9.3178,9.3131,9.2967,9.179,9.1219,9.1117,9.1117,9.0429,8.9511,9.0658,9.0368,8.9341,8.9769,8.9851,8.9751,0.0,0.0,0.0,0.0,0.0,0.0,0.0,0.0,0.0,0.0,4.3098,4.3761,4.393,4.433,4.4682,0.0,0.0,0.0,0.0,0.0,0.0,0.0,0.0,0.0,4.8443,4.939,5.0574,5.2063,5.3382,5.4076,5.4059,5.5209,5.504,5.3788,5.3788,5.2841,0.0,0.0,0.0,0.0,4.9999,5.071,0.0,0.0,0.0,0.0,5.3518,5.3518,0.0,0.0,0.0,0.0,0.0,0.0,0.0,0.0,6.0065,6.2518,6.4127,0.0,6.9917,7.1697,7.1627,7.1344,0.0,7.2979,7.355,7.3244,7.3382,7.3977,7.5473,7.533,7.5696,7.7879,7.9599,8.1204,8.2803,8.4482,8.58,8.6437,8.7287,8.8773,9.1073,9.107,9.1753,9.3719,9.3885,9.4676,9.6593,9.6685,9.6685,9.6685,9.6143,9.581,9.581,9.581,9.581,9.581,9.581,9.581,9.581,9.581,9.5265,9.4336,9.4034,9.334,9.2442,9.2442,9.2273,9.2028,9.2321,9.1897,9.1102,9.1218,9.0528,8.9483,0.0,0.0,0.0,0.0,0.0,0.0,0.0,0.0,0.0,0.0,0.0,0.0,0.0,0.0,0.0,0.0,0.0,0.0,0.0,0.0,0.0,0.0,0.0,4.8695,4.9492,5.0913,5.2232,5.3348,5.4194,5.4769,5.5108,5.5581,5.5344,5.4583,5.4262,5.301,0.0,0.0,0.0,4.9052,4.9796,0.0,0.0,0.0,0.0,0.0,5.3518,5.3518,0.0,5.389,5.4262,5.4668,0.0,0.0,0.0,0.0,5.9808,6.2312,6.3956,6.6005,6.8243,7.0726,7.1041,7.1134,7.2619,7.3629,7.4432,7.5097,7.5564,7.6145,7.7081,7.7318,7.7741,7.8976,8.034,8.1949,8.3989,8.504,8.5987,8.69,8.8052,8.9524,9.1375,9.2038,9.2941,9.4189,9.463,9.5401,9.6649,9.6685,9.6685,9.6685,9.6685,9.6685,9.6685,9.6685,9.6685,9.6685,9.6685,9.6685,9.6685,9.6685,9.6301,9.5647,9.5055,9.4402,9.3787,9.3787,9.3409,9.2967,9.3524,9.2924,9.1751,9.1946,9.1256,9.0236,0.0,0.0,0.0,0.0,0.0,0.0,0.0,0.0,0.0,0.0,0.0,0.0,0.0,0.0,0.0,0.0,0.0,0.0,0.0,0.0,0.0,0.0,4.8477,5.0049,5.0236,5.2266,5.3687,5.4431,5.4786,5.5209,5.5699,5.5412,5.5074,5.4735,5.3991,5.279,5.137,5.1235,5.0389,4.9221,4.9729,0.0,0.0,0.0,0.0,0.0,0.0,0.0,0.0,5.4228,5.4431,5.4532,5.5158,0.0,0.0,0.0,0.0,0.0,6.4784,6.5439,6.6329,6.943,7.031,7.1064,7.334,7.4404,7.538,7.7142,7.7986,7.8469,7.8672,7.9519,8.0166,7.9934,8.1755,8.3642,8.4936,8.5815,8.6996,8.8687,8.9649,9.0662,9.1877,9.2684,9.3418,9.4226,9.507,9.5859,9.6649,9.6685,9.6685,9.6685,9.6685,9.6685,9.6685,9.6685,9.6685,9.6685,9.6685,9.6685,9.6685,9.6685,9.6685,9.6628,9.5549,9.5097,9.5097,9.5097,9.4445,9.357,9.4677,9.3884,9.2157,9.2529,9.2089,9.1326,0.0,0.0,0.0,0.0,0.0,0.0,0.0,0.0,0.0,0.0,0.0,0.0,0.0,0.0,0.0,0.0,0.0,0.0,0.0,0.0,0.0,4.6616,4.8274,4.9763,5.0998,5.1995,5.2875,5.3687,5.5547,5.619,5.5733,5.7491,5.7322,5.5496,5.4769,5.3551,5.2097,5.1472,5.071,4.988,4.9357,0.0,0.0,0.0,0.0,0.0,0.0,0.0,0.0,5.3619,5.3687,5.3687,5.3822,0.0,0.0,0.0,0.0,0.0,6.5381,6.7168,6.8688,7.0632,7.1639,7.2606,7.4316,7.4793,7.5564,7.7928,7.7913,7.7861,7.8992,7.9038,7.9218,8.0224,8.2605,8.433,8.429,8.6354,8.8123,8.883,8.9853,9.1162,9.2739,9.3015,9.3418,9.4226,9.507,9.5859,9.6649,9.6685,9.6685,9.6685,9.6685,9.6685,9.6685,9.6685,9.6685,9.6685,9.6685,9.6685,9.6685,9.6685,9.6685,9.6685,9.6475,9.6416,9.6416,9.6416,9.6282,9.6143,9.6338,9.5404,9.3915,9.3979,9.3047,9.1711,0.0,0.0,0.0,0.0,0.0,0.0,0.0,0.0,0.0,0.0,0.0,0.0,0.0,0.0,0.0,0.0,0.0,0.0,0.0,0.0,4.6989,4.7394,4.9172,5.0694,5.1776,5.3332,5.4532,5.5277,5.6292,5.6833,5.69,5.7119,5.6443,5.5074,5.4329,5.3619,5.2875,5.1708,5.0777,5.0049,0.0,0.0,0.0,0.0,0.0,0.0,0.0,0.0,0.0,0.0,5.4093,5.4093,5.4093,0.0,0.0,0.0,0.0,0.0,6.6182,6.7893,6.9415,7.1941,7.3193,7.4161,7.5669,7.6449,7.7341,7.8935,7.8919,7.8976,8.0013,7.9898,8.0091,8.1543,8.3733,8.5483,8.6229,8.816,8.9733,9.0404,9.1363,9.206,9.2354,9.3235,9.3896,9.4263,9.5437,9.6318,9.6685,9.6685,9.6685,9.6685,9.6685,9.6685,9.6685,9.6685,9.6685,9.6685,9.6685,9.6685,9.6685,9.6685,9.6685,9.6685,9.6685,9.6685,9.6685,9.6685,9.6685,9.6685,9.6685,9.5731,9.4189,9.3272,9.2464,9.1803,0.0,0.0,0.0,0.0,0.0,0.0,0.0,0.0,0.0,0.0,0.0,0.0,0.0,0.0,0.0,0.0,0.0,0.0,0.0,0.0,4.7192,4.8124,5.0288,5.181,5.257,5.4617,5.6071,5.6799,5.7306,5.778,5.8118,5.6833,5.575,5.4837,5.4465,5.4093,5.3687,5.2317,5.1201,5.0304,0.0,0.0,0.0,0.0,0.0,0.0,0.0,0.0,0.0,0.0,0.0,0.0,0.0,0.0,0.0,5.9324,6.1171,6.35,6.7186,6.8926,7.0396,7.3413,7.4402,7.5141,7.7132,7.7948,7.8736,8.0314,8.0351,8.0397,8.1523,8.1542,8.1904,8.3591,8.4949,8.6371,8.7986,8.9417,9.0629,9.1436,9.2281,9.2537,9.184,9.3308,9.4299,9.4299,9.5804,9.6685,9.6685,9.6685,9.6685,9.6685,9.6685,9.6685,9.6685,9.6685,9.6685,9.6685,9.6685,9.6685,9.6685,9.6685,9.6685,9.6685,9.6685,9.6685,9.6685,9.6685,9.6685,9.6685,9.6502,9.5437,9.3822,9.2354,9.1803,9.1803,0.0,0.0,0.0,0.0,0.0,0.0,0.0,0.0,0.0,0.0,0.0,0.0,0.0,0.0,0.0,0.0,0.0,0.0,0.0,0.0,4.7428,4.8849,5.1048,5.2604,5.3416,5.4921,5.6071,5.6799,5.8863,5.9539,5.8912,5.8118,5.6968,5.5631,5.6292,5.5784,5.4465,5.3687,5.2486,5.1066,5.0304,0.0,0.0,0.0,0.0,0.0,0.0,0.0,0.0,0.0,0.0,0.0,0.0,0.0,5.6628,6.0397,6.2139,6.383,6.861,7.1067,7.2782,7.4977,7.467,7.4808,7.871,7.8432,7.85,8.2353,8.1966,8.152,8.35,8.3854,8.4478,8.6384,8.619,8.6371,8.7986,8.8923,8.9767,9.0592,9.14,9.1877,9.1803,9.3308,9.4299,9.4299,9.5804,9.6685,9.6685,9.6685,9.6685,9.6685,9.6685,9.6685,9.6685,9.6685,9.6685,9.6685,9.6685,9.6685,9.6685,9.6685,9.6685,9.6685,9.6685,9.6685,9.6685,9.6685,9.6685,9.6649,9.5859,9.4593,9.3088,9.2134,9.1803,9.1803,0.0,0.0,0.0,0.0,0.0,0.0,0.0,0.0,0.0,0.0,0.0,0.0,0.0,0.0,0.0,0.0,0.0,0.0,0.0,4.638,4.7665,4.9593,5.0913,5.2435,5.416,5.6089,5.7645,5.8863,5.9235,5.8776,5.7611,5.69,5.624,5.5699,5.5513,5.5378,5.5175,5.3484,5.2148,5.1133,5.0405,4.9661,0.0,0.0,0.0,0.0,0.0,0.0,0.0,0.0,5.5042,5.5713,5.628,5.746,5.9173,6.1714,6.4058,6.6597,6.9933,7.2386,7.4425,7.6245,7.6308,7.671,7.9643,7.9945,8.0188,8.2223,8.1782,8.1558,8.3326,8.4477,8.555,8.6815,8.7178,8.7692,8.8776,8.962,9.0427,9.1253,9.162,9.1803,9.1803,9.3308,9.4299,9.4299,9.5804,9.6685,9.6685,9.6685,9.6942,9.7419,9.6942,9.7199,9.819,9.7199,9.7199,9.819,9.7199,9.6685,9.6685,9.6685,9.6685,9.6685,9.6685,9.6685,9.6685,9.6685,9.6685,9.6575,9.5254,9.4079,9.2978,9.2134,9.1803,9.1803,0.0,0.0,0.0,0.0,0.0,0.0,0.0,0.0,0.0,0.0,0.0,0.0,0.0,0.0,0.0,0.0,0.0,0.0,4.5974,4.6515,4.7883,5.0338,5.115,5.2588,5.4905,5.6885,5.8407,5.9404,5.8896,5.7915,5.6461,5.5936,5.5699,5.5665,5.5175,5.5243,5.5564,5.3788,5.2334,5.1167,5.0913,5.0067,0.0,0.0,0.0,0.0,0.0,0.0,0.0,0.0,5.567,5.6664,5.7376,5.8754,6.0574,6.2953,6.5301,6.7899,7.1178,7.3573,7.563,7.7594,7.8096,7.8672,8.0956,8.1226,8.1379,8.27,8.292,8.3234,8.4335,8.5637,8.6811,8.7638,8.8023,8.8573,8.962,9.0244,9.0922,9.1693,9.1803,9.1803,9.1803,9.3308,9.4299,9.4299,9.5804,9.6795,9.7052,9.7089,9.7456,9.8264,9.775,9.8007,9.9088,9.8007,9.8007,9.9088,9.797,9.7456,9.7456,9.6942,9.6832,9.7052,9.6795,9.6685,9.6685,9.6685,9.6392,9.5841,9.474,9.3639,9.2611,9.2024,9.1803,9.1803,0.0,0.0,0.0,0.0,0.0,0.0,0.0,0.0,0.0,0.0,0.0,0.0,0.0,0.0,0.0,0.0,0.0,0.0,4.6699,4.68,4.8105,5.1066,5.1894,5.3348,5.5631,5.7103,5.79,5.7934,5.79,5.7137,5.5699,5.5699,5.5699,5.5699,5.5699,5.5699,5.5631,5.4905,5.3281,5.1269,5.2029,5.098,4.912,0.0,0.0,0.0,0.0,0.0,0.0,0.0,5.5773,5.6229,5.8434,5.9227,6.0122,6.4071,6.5609,6.7143,7.2288,7.4711,7.6391,7.9116,7.9816,8.044,8.283,8.217,8.1709,8.4132,8.5894,8.6978,8.6978,8.7655,8.8463,8.9253,8.872,8.8757,9.0354,9.0629,9.0922,9.1693,9.1803,9.1803,9.1803,9.3308,9.4299,9.4299,9.5804,9.7052,9.7879,9.7916,9.8264,9.9108,9.9108,9.9108,9.9125,9.9108,9.9108,9.9125,9.9108,9.9108,9.9071,9.7456,9.7163,9.7879,9.7052,9.6722,9.6722,9.6722,9.5768,9.4299,9.4299,9.3272,9.1803,9.1803,9.1803,9.1803,0.0,0.0,0.0,0.0,0.0,0.0,0.0,0.0,0.0,0.0,0.0,0.0,0.0,0.0,0.0,0.0,0.0,0.0,4.6699,4.68,4.7883,5.0304,5.1133,5.208,5.3281,5.531,5.7103,5.8693,5.8152,5.7137,5.5699,5.624,5.5919,5.4972,5.6021,5.5919,5.4938,5.5243,5.4059,5.2063,5.2841,5.208,5.0558,0.0,0.0,0.0,0.0,0.0,0.0,0.0,0.0,0.0,6.0303,6.1284,6.2325,6.5236,6.7423,6.9689,7.3501,7.6533,7.8784,7.9606,7.9816,8.0147,8.1415,8.2207,8.3214,8.5049,8.538,8.5673,8.6794,8.6738,8.7142,8.9106,8.9216,8.94,9.0427,9.1106,9.1546,9.1767,9.2354,9.2464,9.184,9.4336,9.5768,9.518,9.7163,9.8484,9.8741,9.8741,9.9108,9.9916,9.9402,9.9659,10.0796,9.9659,9.9659,10.0796,9.9659,9.9108,9.9071,9.8631,9.8521,9.8741,9.8484,9.8411,9.8411,9.8411,9.7456,9.5914,9.5364,9.4153,9.2648,9.2024,9.1803,9.1803,0.0,0.0,0.0,0.0,0.0,0.0,0.0,0.0,4.4227,4.4559,4.4312,4.4227,0.0,0.0,0.0,4.4615,4.4615,0.0,4.6278,4.6631,4.7665,4.956,5.0371,5.1386,5.2739,5.4684,5.6511,5.8152,5.7679,5.6867,5.5733,5.6461,5.6461,5.5971,5.6833,5.6731,5.5937,5.6089,5.4837,5.2875,5.3957,5.3095,5.1269,0.0,0.0,0.0,0.0,0.0,0.0,0.0,0.0,0.0,6.066,6.2143,6.387,6.6659,6.9088,7.1601,7.496,7.819,8.0549,8.0344,8.0755,8.1452,8.226,8.2941,8.3748,8.5049,8.5453,8.5747,8.6407,8.6921,8.7729,8.9143,8.9657,9.017,9.0959,9.1473,9.1803,9.1803,9.2574,9.2905,9.2354,9.496,9.6502,9.6025,9.7933,9.9255,9.9548,9.9585,9.9952,10.0816,10.0283,10.0503,10.1514,10.0503,10.0503,10.1514,10.0503,10.0099,9.9989,9.9402,9.9292,9.9548,9.9255,9.9108,9.9071,9.8778,9.786,9.6612,9.5804,9.4703,9.3455,9.2611,9.2317,9.2281,0.0,0.0,4.453,0.0,0.0,0.0,0.0,4.3889,4.3665,4.4384,4.3875,4.371,0.0,0.0,0.0,4.4615,4.4615,4.4905,4.5669,4.638,4.7428,4.8849,4.9729,5.1217,5.345,5.4955,5.6037,5.6697,5.6833,5.6528,5.58,5.663,5.7273,5.7832,5.7934,5.7934,5.7764,5.7171,5.5649,5.3822,5.5225,5.4076,5.1674,5.3078,0.0,0.0,0.0,0.0,0.0,0.0,0.0,0.0,6.0145,6.2232,6.4714,6.7981,7.0447,7.2899,7.6376,7.9453,8.1635,8.122,8.2243,8.3564,8.4242,8.3985,8.3858,8.4646,8.593,8.6701,8.604,8.7766,8.9326,8.94,9.006,9.0886,9.1693,9.1877,9.1913,9.1913,9.2758,9.3308,9.3235,9.5474,9.6906,9.6795,9.8374,9.9659,10.0393,10.0393,10.0686,10.1514,10.1514,10.1514,10.1514,10.1514,10.1514,10.1514,10.1514,10.1514,10.1514,9.9989,9.9732,10.0393,9.9659,9.9328,9.9255,9.8447,9.764,9.6832,9.5951,9.507,9.4189,9.3418,9.3051,9.2868,0.0,0.0,4.3816,4.4468,0.0,0.0,4.368,4.4006,4.4136,4.3636,4.4006,4.4398,4.4587,4.4615,0.0,4.4615,4.4615,4.4905,4.5669,4.638,4.7192,4.809,4.995,5.1758,5.345,5.4955,5.5767,5.5936,5.7103,5.7273,5.6596,5.7897,5.7983,5.7103,5.8254,5.8118,5.707,5.7494,5.6731,5.5293,5.6206,5.548,5.389,5.4228,5.389,0.0,0.0,0.0,0.0,0.0,0.0,0.0,6.1618,6.3132,6.4714,6.7981,7.0556,7.3126,7.6399,7.9217,8.128,8.1807,8.27,8.3271,8.281,8.4058,8.5527,8.6334,8.6261,8.6187,8.6664,8.7692,8.8683,8.929,9.006,9.0886,9.1693,9.2391,9.2831,9.2831,9.4116,9.474,9.4079,9.6795,9.8337,9.7676,9.9695,10.111,10.12,10.12,10.1274,10.1514,10.1514,10.1514,10.1514,10.1514,10.1514,10.1514,10.1514,10.1514,10.1514,10.109,10.111,10.12,10.111,10.098,10.0907,10.0099,9.9328,9.8447,9.7016,9.5547,9.4189,9.3418,9.2684,9.206,0.0,0.0,0.0,0.0,0.0,0.0,0.0,0.0,4.3335,4.329,4.3695,4.4121,4.4559,4.4615,0.0,0.0,4.4227,4.4303,4.5114,4.5469,4.6297,4.7838,4.9341,5.0863,5.2351,5.4228,5.5344,5.5699,5.7171,5.7697,5.734,5.8472,5.8573,5.7897,5.9032,5.8878,5.7863,5.8254,5.7577,5.6274,5.7036,5.6427,5.5175,5.5513,5.5209,5.4618,5.4989,0.0,0.0,0.0,0.0,0.0,0.0,0.0,6.5301,6.8531,7.0917,7.3303,7.6922,7.9433,8.1305,8.248,8.3087,8.3271,8.2884,8.4352,8.593,8.6334,8.6407,8.6518,8.6904,8.7968,8.9033,8.984,9.0978,9.2097,9.2868,9.3382,9.3675,9.3675,9.474,9.5364,9.4923,9.7089,9.8521,9.8484,9.9989,10.111,10.1514,10.1514,10.1514,10.1514,10.1514,10.1514,10.1514,10.1514,10.1514,10.1514,10.1514,10.1514,10.1514,10.1514,10.1514,10.1514,10.1514,10.1514,10.1404,10.0209,9.9475,9.8961,9.7346,9.5951,9.4777,9.3969,9.3125,9.2354,0.0,0.0,0.0,0.0,0.0,0.0,0.0,0.0,0.0,4.2769,4.2986,4.3335,4.4078,4.415,4.415,0.0,0.0,0.0,4.4327,4.4542,4.5608,4.7789,4.8462,4.9544,5.1167,5.3179,5.4702,5.5699,5.7036,5.7798,5.7934,5.866,5.9013,5.9013,5.9641,5.9573,5.9013,5.9013,5.8321,5.7239,5.7983,5.7476,5.6341,5.6968,5.6838,5.637,5.7062,5.7498,5.7934,5.9277,0.0,0.0,0.0,0.0,6.6109,6.9192,7.1248,7.3377,7.7304,7.9764,8.1562,8.3014,8.3381,8.3454,8.3564,8.4756,8.5874,8.6168,8.6628,8.6978,8.6978,8.8409,8.984,9.0482,9.2134,9.3529,9.4189,9.441,9.452,9.452,9.5217,9.5712,9.5712,9.7052,9.8227,9.9035,9.9842,10.0706,10.1514,10.1514,10.1514,10.1514,10.1514,10.1514,10.1514,10.1514,10.1514,10.1514,10.1514,10.1514,10.1514,10.1514,10.1514,10.1514,10.1514,10.1514,10.1404,9.9769,9.9108,9.8961,9.7346,9.6135,9.5217,9.4556,9.3712,9.2758,0.0,0.0,0.0,0.0,0.0,0.0,0.0,0.0,0.0,0.0,4.1691,4.2237,4.2315,4.2363,4.2363,4.2363,4.294,4.3368,4.3472,0.0,0.0,4.7838,4.7988,4.9037,5.1167,5.2131,5.3619,5.5699,5.6562,5.7273,5.7934,5.866,5.9013,5.9013,5.9115,5.9081,5.9013,5.9013,5.8878,5.8776,5.9505,5.9302,5.8573,5.8675,5.8728,5.875,5.8832,5.9827,6.1112,6.1307,6.2371,0.0,0.0,0.0,6.6843,6.9339,7.1248,7.323,7.6555,7.9727,8.226,8.3161,8.3381,8.3564,8.4278,8.5159,8.6187,8.7582,8.7399,8.6978,8.6978,8.8886,9.0464,9.0592,9.2574,9.4189,9.4263,9.4887,9.5364,9.5364,9.6061,9.6539,9.6539,9.7346,9.8227,9.9035,9.9842,10.0706,10.1514,10.1514,10.1514,10.1514,10.1514,10.1514,10.1514,10.1514,10.1514,10.1514,10.1514,10.1514,10.1514,10.1514,10.1514,10.1514,10.1514,10.1514,10.1404,9.9769,9.9108,9.8961,9.7346,9.5768,9.4446,9.4336,9.3308,9.195,0.0,0.0,0.0,0.0,0.0,0.0,0.0,0.0,0.0,0.0,0.0,4.1981,4.1981,4.1981,4.1981,4.1981,4.2363,4.2769,4.3259,4.4409,4.5568,4.6602,4.6669,4.7902,5.0541,5.1319,5.2807,5.5074,5.6224,5.7171,5.7934,5.866,5.8776,5.8389,5.8389,5.8389,5.8423,5.881,5.9013,5.9047,5.981,6.0489,6.102,6.0572,6.1016,6.1904,6.1891,6.2358,6.3066,6.3539,6.4187,6.4897,6.5705,0.0,0.0,0.0,7.0917,7.2738,7.69,7.9764,8.1709,8.2517,8.3398,8.4168,8.4535,8.5233,8.6114,8.7288,8.7252,8.7124,8.7582,8.8886,9.0207,9.1143,9.217,9.3529,9.5401,9.5584,9.5675,9.6135,9.6502,9.6685,9.6685,9.7016,9.7566,9.8374,9.9181,9.9989,10.0796,10.1294,10.1514,10.1514,10.1514,10.1514,10.1514,10.1514,10.1514,10.1514,10.1514,10.1514,10.1514,10.1514,10.1514,10.1514,10.1514,10.1514,10.1404,10.0283,9.9512,9.8998,9.7823,9.6098,9.4299,9.4299,9.3235,9.1803,0.0,0.0,0.0,0.0,0.0,0.0,0.0,0.0,0.0,0.0,0.0,4.2558,4.2558,0.0,0.0,0.0,4.2317,4.2692,4.3577,4.4255,4.4838,4.5399,4.5432,4.6786,4.9778,5.0371,5.1961,5.4617,5.5683,5.6799,5.7934,5.8457,5.8626,5.8457,5.8254,5.8103,5.7967,5.8896,5.9284,5.9422,6.0978,6.2412,6.3586,6.3624,6.4541,6.58,6.5605,6.5678,6.5886,6.6119,6.6206,6.6279,6.6696,6.6806,0.0,0.0,0.0,7.3435,7.7745,7.9947,8.1305,8.2517,8.3398,8.4095,8.4499,8.5049,8.5783,8.6794,8.7178,8.7545,8.8353,8.9143,9.017,9.1583,9.2354,9.3602,9.6061,9.6061,9.6025,9.6649,9.6685,9.6685,9.6685,9.6685,9.7016,9.7843,9.8447,9.9255,10.0209,10.0927,10.1294,10.1514,10.1514,10.1514,10.1514,10.1514,10.1514,10.1514,10.1514,10.1514,10.1514,10.1514,10.1514,10.1514,10.1514,10.1514,10.1384,10.0613,9.9842,9.9035,9.819,9.6428,9.4299,9.4299,9.3235,9.1803,0.0,0.0,0.0,0.0,0.0,0.0,0.0,0.0,0.0,0.0,0.0,4.4083,4.4083,4.344,4.3055,4.3055,4.316,4.3606,4.4468,4.4587,4.4615,4.4668,4.4668,0.0,4.8984,4.907,5.0913,5.4617,5.4668,5.5802,5.79,5.7934,5.866,5.9945,5.925,5.8558,5.7983,5.9438,6.0047,6.0378,6.4236,6.584,6.618,6.8558,7.0009,7.0746,6.9967,7.0226,7.0677,6.9201,6.8701,6.8605,6.7847,6.7627,6.7958,0.0,0.0,0.0,7.9045,8.0351,8.1562,8.3875,8.3398,8.27,8.4242,8.4646,8.5123,8.6684,8.7619,8.839,8.9179,8.9987,9.0849,9.1748,9.3822,9.5345,9.5528,9.6171,9.6649,9.6685,9.6685,9.6685,9.6685,9.6685,9.7016,9.7843,9.7933,9.8631,10.0209,10.0319,10.0686,10.1514,10.1514,10.1514,10.1514,10.1514,10.1514,10.1514,10.1514,10.1514,10.1514,10.1514,10.1514,10.1514,10.1514,10.1514,10.1384,10.0613,9.9842,9.9035,9.819,9.6428,9.4299,9.4299,9.3235,9.1803,0.0,0.0,0.0,0.0,0.0,0.0,0.0,0.0,0.0,0.0,0.0,0.0,0.0,4.3938,4.3809,4.3809,4.4363,4.4891,4.5288,4.5297,4.5108,4.4615,4.5041,4.6481,4.8951,4.9458,5.1082,5.389,5.438,5.5243,5.6528,5.7442,5.8423,5.9385,5.9115,5.8844,5.8693,5.9674,6.0114,6.0446,6.4465,6.6769,6.7993,6.9971,7.1596,7.2771,7.2479,7.1911,7.1307,7.1233,7.0513,6.9522,6.8715,6.8825,6.9683,7.1798,7.2716,7.3891,7.7928,7.925,8.0057,8.2443,8.3398,8.3875,8.4462,8.4609,8.4903,8.6004,8.6444,8.7068,8.839,8.929,9.028,9.162,9.2134,9.307,9.5198,9.529,9.5547,9.6575,9.6685,9.6685,9.6685,9.6685,9.6832,9.7126,9.7603,9.8173,9.8704,9.9732,10.0393,10.0686,10.12,10.1514,10.1514,10.1514,10.1514,10.1514,10.1514,10.1514,10.1514,10.1514,10.1514,10.1514,10.1514,10.1514,10.1514,10.122,10.0283,9.9052,9.8778,9.6869,9.4299,9.4299,9.3235,9.1803,0.0,0.0,0.0,0.0,0.0,4.7028,4.7028,4.6765,4.6536,4.6536,0.0,0.0,0.0,0.0,4.5587,4.5129,4.5604,4.596,4.608,4.5838,4.5466,4.5007,4.5196,4.6481,4.8951,4.9492,5.098,5.3518,5.3991,5.4735,5.5733,5.6968,5.8051,5.9013,5.9013,5.9013,5.9047,5.981,6.0442,6.1347,6.5659,6.8417,7.0184,7.2388,7.4128,7.5285,7.4992,7.4588,7.4147,7.4111,7.3597,7.2679,7.1027,7.0697,7.1321,7.3487,7.3325,7.3399,7.7488,7.8589,7.9103,8.1269,8.2994,8.4205,8.4205,8.4609,8.5086,8.5343,8.582,8.6518,8.7619,8.8463,8.951,9.1143,9.1436,9.2207,9.4391,9.4483,9.4813,9.6135,9.6318,9.6392,9.6685,9.6685,9.6685,9.6685,9.7199,9.7603,9.7897,9.8888,9.9732,10.0283,10.111,10.1514,10.1514,10.1514,10.1514,10.1514,10.1514,10.1514,10.1514,10.1514,10.1514,10.1514,10.1514,10.1514,10.1514,10.1514,10.0596,9.9108,9.9108,9.7126,9.4299,9.4299,9.3235,9.1803,0.0,0.0,0.0,0.0,4.9661,5.015,5.015,5.0744,5.1201,5.1201,0.0,0.0,0.0,0.0,0.0,4.7056,4.6902,4.6902,4.6868,4.6177,4.5756,4.5756,4.5108,4.609,4.9018,4.9086,5.0541,5.3518,5.3518,5.4245,5.5665,5.6427,5.7525,5.8979,5.9016,5.9069,5.917,5.9847,6.1179,6.3223,6.8046,7.0987,7.2879,7.6167,7.7949,7.8626,7.7839,7.8589,7.9669,7.806,0.0,7.8038,7.4771,7.3193,7.2863,7.4426,7.4867,7.5344,0.0,0.0,0.0,8.0571,8.217,8.3381,8.3418,8.4646,8.5527,8.4792,8.5894,8.6941,8.6941,8.7655,8.872,9.0262,9.1913,9.3015,9.3015,9.3712,9.452,9.5308,9.5382,9.5731,9.6539,9.6575,9.6612,9.6649,9.6649,9.7016,9.7843,9.7897,9.8631,10.0209,10.111,10.1514,10.1514,10.1514,10.1514,10.1514,10.1514,10.1514,10.1514,10.1514,10.1514,10.1514,10.1514,10.1514,10.1514,10.1514,10.0576,9.9145,9.9108,9.7163,9.4336,9.4299,9.3235,9.1803,0.0,0.0,0.0,5.0491,5.0761,5.0897,5.0897,5.1066,5.1201,0.0,0.0,0.0,5.0897,5.0694,5.0423,5.0017,4.9492,4.8951,4.8443,4.7684,4.7278,4.7278,4.7597,4.8646,5.0558,5.11,5.2097,5.3518,5.3518,5.3991,5.4905,5.5665,5.6781,5.8256,5.9472,6.065,6.1703,6.191,6.3275,6.5697,6.9983,7.3033,7.5373,7.8707,8.0849,8.2186,8.3104,8.2994,8.2443,0.0,8.0828,7.8112,7.5432,7.4037,7.356,7.461,7.4059,7.356,7.5417,0.0,0.0,0.0,0.0,0.0,8.4022,8.4609,8.5013,8.538,8.582,8.6114,8.6114,8.7252,8.8169,8.8023,8.9858,9.1289,9.1289,9.1987,9.2574,9.2794,9.2831,9.3161,9.4006,9.4116,9.4593,9.5749,9.5822,9.6171,9.6979,9.7566,9.8631,10.0209,10.0503,10.0907,10.1514,10.1514,10.1514,10.1514,10.1514,10.1514,10.1514,10.1514,10.1514,10.1514,10.1514,10.1514,10.1514,10.1514,10.0907,9.9916,9.9328,9.7493,9.5089,9.4483,9.3235,9.1803,0.0,0.0,5.071,5.1133,5.1742,5.2046,5.1708,5.2232,5.2503,0.0,0.0,0.0,5.1708,5.1641,5.1539,5.1235,5.1082,5.0845,5.0405,4.9679,4.9273,4.9273,4.9104,4.9679,5.1167,5.1607,5.2401,5.3518,5.3518,5.389,5.4617,5.5327,5.6485,5.803,5.9668,6.165,6.3839,6.5197,6.6612,6.8229,7.2257,7.5199,7.7413,8.0373,8.2296,8.3528,8.4462,8.4646,8.4462,8.4939,8.2663,0.0,7.8683,7.6497,7.4441,7.5564,7.45,7.3266,7.4536,7.5234,7.5946,7.7378,0.0,0.0,8.2884,8.4132,8.5233,8.571,8.6077,8.6187,8.5857,8.6848,8.7435,8.6628,8.8243,8.9601,8.9601,9.0298,9.0812,9.0812,9.1106,9.162,9.2464,9.2574,9.3088,9.4391,9.452,9.4997,9.6135,9.7273,9.8484,9.9769,10.0099,10.0686,10.1514,10.1514,10.1514,10.1514,10.1514,10.1514,10.1514,10.1514,10.1514,10.1514,10.1514,10.1514,10.1514,10.1514,10.098,10.0209,9.9035,9.7309,9.5346,9.4226,9.2941,9.1803,0.0,0.0,5.1472,5.1573,5.2706,5.3416,5.2773,5.3754,5.4397,0.0,5.3754,5.3484,5.2773,5.2604,5.23,5.1641,5.208,5.2435,5.2435,5.181,5.1472,5.1573,5.022,5.0168,5.1539,5.1505,5.2114,5.3518,5.3518,5.3974,5.4873,5.5534,5.6696,5.8323,6.0054,6.256,6.5698,6.9089,7.0692,7.1345,7.4859,7.7413,7.936,8.1525,8.2884,8.3675,8.3858,8.4792,8.5894,8.56,8.3765,0.0,8.2684,7.9711,7.6041,7.7032,7.5784,7.4184,7.4661,7.4757,7.4793,7.4867,7.7766,0.0,8.0828,8.3141,8.527,8.538,8.6114,8.6481,8.5673,8.6261,8.6628,8.593,8.6921,8.7839,8.7912,8.872,8.9216,8.9033,8.9638,9.0372,9.1179,9.1253,9.1693,9.2758,9.3088,9.3896,9.5418,9.6942,9.8154,9.8961,9.9769,10.0596,10.1404,10.1514,10.1514,10.1514,10.1514,10.1514,10.1514,10.1514,10.1514,10.1514,10.1514,10.1514,10.1514,10.1514,10.098,10.0099,9.8521,9.6925,9.5309,9.3675,9.2537,9.1803,5.3213,5.3027,5.3247,5.3822,5.4194,5.4532,5.4955,5.4803,5.4769,5.5192,5.5259,5.5192,5.5056,5.4499,5.4093,5.3957,5.3518,5.3281,5.3281,5.3145,5.3315,5.3923,5.3078,5.3044,5.3923,5.3348,5.3213,5.3518,5.3518,5.4514,5.644,5.6613,5.783,6.0039,6.2286,6.4753,6.7457,7.1339,7.4503,7.6993,7.7798,7.9856,8.25,8.2977,8.4058,8.549,8.6811,8.7068,8.6464,8.4519,8.4315,8.4352,0.0,8.1085,8.1142,7.817,7.6959,7.6225,7.4404,7.3927,7.4074,7.472,7.6481,0.0,7.9727,8.1012,8.2113,8.2774,8.4058,8.4829,8.4005,8.5049,8.5967,8.5837,8.5527,8.5527,8.6187,8.7509,8.7949,8.6664,8.6628,8.7031,8.7876,8.7949,8.883,9.0922,9.2941,9.4483,9.5455,9.6428,9.7309,9.8117,9.8924,9.9732,10.0503,10.122,10.1514,10.1514,10.1514,10.1514,10.1514,10.1514,10.1514,10.1514,10.1514,10.1514,10.1514,10.1514,10.098,10.0099,9.8521,9.6925,9.5309,9.3675,9.2537,9.1803,5.3721,5.3788,5.416,5.455,5.4905,5.5412,5.6156,5.6258,5.6377,5.6765,5.7119,5.7221,5.6833,5.7137,5.7036,5.6309,5.6562,5.663,5.6274,5.5919,5.5852,5.6242,5.5209,5.4958,5.5737,5.5001,5.5023,5.5848,5.5416,5.6191,5.8114,5.8114,6.0198,6.4071,6.441,6.7316,7.2045,7.4475,7.7378,8.0388,8.0388,8.1599,8.3454,8.3858,8.4756,8.5911,8.6701,8.6995,8.6757,8.5159,8.4866,0.0,8.281,8.2186,8.1729,7.9286,7.7949,7.6848,7.4845,7.4294,7.4404,7.4793,7.6114,0.0,0.0,8.0131,8.1232,8.2039,8.3177,8.4005,8.4005,8.4646,8.5196,8.5196,8.5196,8.5196,8.5196,8.5894,8.6114,8.5306,8.5563,8.5967,8.6371,8.6775,8.7675,8.9271,9.1657,9.3418,9.4263,9.5474,9.6649,9.786,9.83,9.9071,10.0283,10.0686,10.109,10.1514,10.1514,10.1514,10.1514,10.1514,10.1514,10.1514,10.1514,10.1514,10.1514,10.1514,10.0796,9.9548,9.7933,9.6539,9.5254,9.3198,9.217,9.1803,5.4211,5.4532,5.5006,5.5006,5.5649,5.6308,5.6934,5.7645,5.8152,5.8306,5.8998,5.9317,5.8998,5.9911,6.0182,5.9268,6.0476,6.0868,5.9945,5.9491,5.912,5.878,5.7215,5.6714,5.7533,5.6637,5.683,5.8184,5.7496,5.798,5.9512,5.9512,6.2217,6.6968,6.641,6.9522,7.5322,7.7215,7.9638,8.2223,8.27,8.3471,8.4335,8.4535,8.5196,8.5967,8.5673,8.6077,8.6664,8.6004,8.5453,8.5049,8.4866,8.3728,8.2113,8.0697,7.9286,7.7803,7.5894,7.5234,7.5087,7.494,7.6004,7.7252,0.0,0.0,0.0,8.1122,8.2039,8.292,8.3544,8.3801,8.3875,8.3691,8.4205,8.4442,8.3765,8.3801,8.4095,8.4535,8.5049,8.538,8.5527,8.6848,8.7839,8.8169,9.0592,9.2281,9.2831,9.441,9.5951,9.7383,9.775,9.8594,10.0099,10.0209,10.0686,10.1514,10.1514,10.1514,10.1514,10.1514,10.1514,10.1514,10.1514,10.1514,10.1514,10.1274,10.0393,9.8941,9.7493,9.6245,9.5034,9.2831,9.195,9.1803,5.5733,5.6037,5.6562,5.6562,5.7171,5.7697,5.7764,5.8389,5.9115,5.9776,6.0554,6.1482,6.2733,6.2415,6.2584,6.3734,6.4855,6.4766,6.3083,6.3808,6.356,6.1966,5.9833,5.9097,5.9908,5.8613,5.801,5.8184,5.8113,5.8852,6.0344,6.0344,6.1847,6.4647,6.8019,7.0407,7.2224,7.8096,8.1195,8.237,8.4552,8.6297,8.7435,8.538,8.5563,8.6701,8.527,8.5233,8.593,0.0,8.6224,8.6611,8.5894,8.6444,8.6664,8.2994,8.1782,8.0975,7.7876,7.6518,7.5799,7.5087,7.5564,7.6276,7.635,0.0,7.7766,7.7839,0.0,8.0257,8.033,0.0,0.0,8.0477,8.044,8.044,8.0367,8.0975,8.2186,8.4352,8.4042,8.3948,8.4682,8.8059,8.9638,8.8316,9.1143,9.2648,9.1987,9.3529,9.485,9.5749,9.7163,9.8337,9.9255,9.9952,10.0686,10.1514,10.1514,10.1514,10.1514,10.1514,10.1514,10.1514,10.1514,10.1514,10.1384,10.0686,9.9916,9.9035,9.8117,9.6392,9.4299,9.3308,9.2464,9.1803,5.663,5.6596,5.6934,5.734,5.7679,5.8509,6.0235,6.1839,6.2854,6.2719,6.3768,6.458,6.4749,6.5796,6.6986,6.8077,6.9526,6.9852,0.0,0.0,6.7182,6.5437,6.3166,6.2104,6.2422,6.0967,6.0386,6.0883,6.0389,6.1006,6.2592,6.2068,6.4124,6.8348,7.0036,7.3083,7.7179,8.0849,8.3691,8.5783,8.6775,8.872,9.0665,8.7288,8.6701,8.7655,8.7455,8.7601,8.7839,0.0,8.8059,0.0,8.7031,8.7912,8.8793,8.4756,8.3581,8.2994,8.0188,7.9543,7.9433,7.8662,7.9396,7.9984,7.8552,7.8516,7.8479,7.7509,0.0,0.0,0.0,0.0,0.0,0.0,8.0498,8.0498,8.0498,8.0791,8.1729,8.3675,8.4005,8.4609,8.5894,8.7545,8.8243,8.7545,9.0078,9.1289,9.0427,9.195,9.3455,9.4777,9.5914,9.7126,9.8374,9.9218,9.9989,10.0796,10.1294,10.1514,10.1514,10.1514,10.1514,10.1514,10.1514,10.1514,10.1384,10.0613,9.9842,9.9035,9.819,9.6428,9.4189,9.3418,9.2537,9.1803,5.7915,5.7543,5.7577,5.8118,5.8746,6.0099,6.2874,6.4498,6.5425,6.5493,6.644,6.7151,6.7218,6.9357,7.1275,7.2481,7.4533,7.5312,0.0,0.0,7.1479,7.0469,6.7155,6.5632,6.6238,6.4106,6.301,6.316,6.2585,6.2781,6.3723,6.3356,6.5742,7.0353,7.1711,7.516,8.0151,8.2904,8.5416,8.7582,8.8023,8.9895,9.2097,8.9381,8.839,8.8647,8.9436,8.9583,8.9363,8.9234,8.9821,0.0,8.8519,8.9033,8.9657,8.6518,8.5416,8.4792,8.259,8.226,8.2333,8.1525,8.2039,8.2333,8.0791,8.0293,7.9727,7.828,7.8332,0.0,0.0,0.0,7.8809,7.8993,0.0,7.925,7.9029,7.9396,8.0424,8.25,8.3471,8.4572,8.6187,8.7344,8.7711,8.7051,8.9454,9.0408,8.9143,9.0408,9.1913,9.3565,9.441,9.5731,9.753,9.8154,9.9071,10.0283,10.0907,10.1294,10.1514,10.1514,10.1514,10.1514,10.1294,10.122,10.111,10.0119,9.9292,9.8704,9.7897,9.6208,9.4226,9.3639,9.2721,9.1803,6.0013,5.9419,5.8945,5.8945,6.0791,6.3009,6.5243,6.5053,6.5392,6.7523,6.7827,6.8707,7.0883,7.2816,7.4837,7.7007,0.0,8.0849,7.9084,0.0,7.7218,7.7741,7.1907,6.9688,0.0,6.8296,6.5582,6.4066,6.4029,6.3613,6.2866,6.3686,6.5388,6.8031,7.2716,7.5784,7.7766,8.3361,8.5783,8.6004,8.7582,8.9197,9.0739,9.14,9.0702,8.9473,9.028,0.0,0.0,9.1179,9.1216,0.0,0.0,8.9987,8.9253,8.8353,8.7545,8.6574,8.4939,8.3931,8.3161,8.237,8.1599,8.1269,8.1966,8.1525,8.0718,0.0,0.0,0.0,7.7546,7.6738,7.5726,7.4184,7.4588,0.0,0.0,7.5285,7.7451,8.0681,8.1782,8.292,8.4535,8.8206,8.9528,8.7161,9.0005,9.0794,8.8353,8.9033,9.0207,9.184,9.2721,9.4336,9.6722,9.6759,9.797,10.0283,10.0319,10.0686,10.1514,10.1514,10.1514,10.1514,10.0686,10.0319,10.0209,9.8631,9.7953,9.786,9.7052,9.5731,9.4299,9.4263,9.3198,9.1803,6.0216,6.0317,6.052,6.052,6.1569,6.3294,6.6034,6.7489,6.9029,7.1001,7.2117,7.3482,7.5524,7.7358,7.9224,0.0,0.0,8.4003,8.2865,8.1343,0.0,0.0,0.0,7.2662,0.0,7.0116,6.7283,6.5705,6.5154,6.5007,6.5264,6.6122,6.776,7.0279,7.4573,7.7693,8.0041,8.4646,8.7509,8.9124,9.0776,9.2427,9.3693,9.2317,9.184,9.1932,9.2758,9.2868,0.0,9.3272,9.3639,9.3565,9.1913,9.1987,9.217,8.9693,8.8812,8.8335,0.0,0.0,8.7051,8.571,0.0,0.0,0.0,0.0,0.0,0.0,0.0,0.0,0.0,7.7472,7.6702,7.6151,7.5858,7.5616,0.0,7.5322,7.6114,7.828,8.0225,8.226,8.4389,8.6297,8.7325,8.7014,8.8536,8.883,8.7472,8.8169,8.9344,9.0959,9.1803,9.3161,9.507,9.5658,9.6575,9.7933,9.8998,9.9916,10.0686,10.0686,10.0686,10.0706,9.9879,9.9512,9.9438,9.8337,9.7916,9.7843,9.7016,9.6061,9.5034,9.4483,9.3235,9.1803,6.1738,6.1907,6.2009,6.1738,6.2956,6.4884,6.759,7.0293,7.2446,7.3643,7.57,7.7618,7.9088,8.0897,8.2611,0.0,8.5771,8.6554,8.6334,8.4278,0.0,8.4278,7.9433,0.0,0.0,7.3949,7.1087,6.9486,6.7834,6.7136,6.7393,6.8458,7.011,7.2312,7.6078,7.9271,8.2023,8.4922,8.7675,9.0317,9.2317,9.3565,9.4189,9.3712,9.3896,9.441,0.0,9.452,9.4336,9.463,9.4887,9.4813,9.3198,9.3235,9.3455,9.1345,9.0501,9.006,8.9271,8.9216,0.0,8.8115,8.8409,0.0,8.6721,0.0,8.4372,0.0,0.0,0.0,0.0,7.9103,7.7839,7.8133,7.679,7.5579,0.0,7.4551,7.4647,7.6261,7.8353,8.0739,8.3471,8.4976,8.6004,8.6518,8.7839,8.828,8.7472,8.7655,8.85,9.0097,9.0702,9.1767,9.3437,9.4226,9.518,9.6282,9.7603,9.8668,9.9438,9.9732,9.9879,9.9842,9.9035,9.8668,9.8631,9.7823,9.7456,9.7419,9.6906,9.6208,9.5382,9.4593,9.3235,9.1803,6.4546,6.4241,6.3632,6.2956,6.5155,6.7781,7.0068,7.3202,7.5408,7.561,7.8532,8.0937,8.181,8.349,8.5163,8.6608,8.7724,8.8647,8.9363,8.6518,0.0,0.0,8.4425,8.2663,8.3454,7.9491,7.6628,7.5014,7.1835,6.9926,6.9215,7.0793,7.2422,7.4162,7.7304,8.0534,8.3638,8.4389,8.6611,8.9803,9.2152,9.2758,9.2593,9.5547,9.6795,9.6832,9.5969,9.518,9.463,9.5418,9.518,9.452,9.4446,9.3896,9.3272,9.3198,9.2574,9.1767,9.0959,9.017,8.9546,8.9473,8.8886,0.0,0.0,0.0,8.7051,0.0,0.0,0.0,0.0,0.0,0.0,7.9743,7.7157,7.472,7.3891,7.3046,7.312,7.472,7.6261,7.85,8.1856,8.4242,8.5654,8.5783,8.7949,8.8886,8.8133,8.7472,8.7785,8.929,8.9436,9.0225,9.1822,9.2611,9.3822,9.5382,9.6208,9.7016,9.7879,9.8631,9.8998,9.8998,9.819,9.7843,9.7787,9.7016,9.6685,9.6685,9.6685,9.6208,9.5382,9.4593,9.3272,9.1913,6.6102,6.7455,6.8605,6.8944,6.9632,7.0796,7.2793,7.4785,7.7489,8.1445,8.2732,8.4361,8.7047,8.7815,8.8234,8.8655,8.9494,0.0,0.0,0.0,0.0,8.9033,8.582,8.4095,8.4278,8.0901,0.0,7.6702,7.4074,7.2973,7.3362,7.439,7.6056,7.8311,7.9727,8.2517,8.6097,8.628,8.861,9.2207,9.2831,9.4777,9.7199,9.6832,9.819,10.0119,9.8668,9.8043,9.7897,9.8097,9.8043,9.7676,9.6465,9.5951,9.5547,9.4336,9.3822,9.3492,9.2684,9.2317,9.1859,9.0611,9.0152,8.9895,0.0,0.0,0.0,0.0,0.0,0.0,0.0,0.0,0.0,0.0,0.0,0.0,0.0,7.3377,7.312,7.472,7.527,7.7304,8.1782,8.2223,8.3214,8.56,8.6371,8.6628,8.6407,8.7895,8.8702,8.85,8.9674,9.0519,9.0922,9.173,9.2684,9.3749,9.452,9.5658,9.7016,9.7236,9.764,9.8154,9.7346,9.7016,9.6979,9.6795,9.6685,9.6685,9.6685,9.6208,9.5382,9.4593,9.4006,9.3639,6.8639,7.0961,7.289,7.2971,7.4791,7.5963,7.5198,7.8054,8.1413,8.4431,8.6425,8.8454,9.0795,9.0684,9.0611,9.0978,9.1069,0.0,9.1014,0.0,0.0,8.9913,8.7858,8.6684,8.6684,8.4242,0.0,8.1012,7.8589,7.7304,7.7084,7.8222,7.9507,8.0918,8.2076,8.4225,8.7088,8.85,9.0665,9.3198,9.4263,9.6025,0.0,9.8227,9.9402,10.0907,10.0319,9.9695,9.9108,9.9108,9.9108,9.8961,9.8043,9.775,9.7419,9.5804,9.5327,9.5107,9.3932,9.3602,9.3308,9.2024,9.1693,9.1473,9.0647,8.9821,8.9344,0.0,8.85,8.7325,0.0,0.0,0.0,0.0,0.0,0.0,0.0,0.0,0.0,7.5285,7.4808,7.6313,8.1195,8.1893,8.2957,8.5123,8.56,8.6114,8.6811,8.7802,8.8299,8.8206,9.0482,9.1179,9.0097,9.195,9.2758,9.2537,9.3382,9.441,9.5658,9.6025,9.6612,9.7346,9.6906,9.6685,9.6685,9.6685,9.6685,9.6685,9.6685,9.6428,9.5988,9.5511,9.4887,9.4299,7.192,7.4816,7.6905,7.63,8.0034,8.1913,7.8357,8.2377,8.5942,8.6273,8.9641,9.2281,9.3161,9.2684,9.2574,9.3345,0.0,9.2721,9.3382,9.206,9.1143,9.0959,9.0244,8.9767,8.9546,8.8078,0.0,0.0,8.3691,8.1893,8.0771,8.1966,8.2627,8.2884,8.4278,8.5857,8.7675,9.0812,9.2684,9.3749,9.5878,9.6906,9.7383,9.9512,10.0393,10.0503,10.12,10.0613,9.9402,9.9402,9.9402,9.9402,9.9292,9.9255,9.8961,9.7456,9.7016,9.6649,9.5034,9.4593,9.441,9.3492,9.3272,9.3015,9.217,9.1436,9.1106,9.1693,9.0702,8.9913,0.0,0.0,0.0,0.0,0.0,0.0,0.0,0.0,0.0,0.0,0.0,0.0,8.0571,8.2186,8.3381,8.4535,8.5453,8.6481,8.7655,8.7472,8.7528,8.8023,9.1033,9.1748,8.9913,9.2501,9.3235,9.2134,9.2684,9.3345,9.4153,9.4997,9.5768,9.6539,9.6649,9.6685,9.6685,9.6685,9.6762,9.6839,9.6839,9.6933,9.699,9.6896,9.6013,9.4889,7.5997,7.9126,8.1443,8.1337,8.3839,8.5857,8.579,8.6715,8.8198,9.0392,9.1969,9.3198,9.4006,9.4556,9.4905,9.5051,9.5547,0.0,0.0,0.0,0.0,9.2721,9.2537,9.1803,9.0427,8.9473,8.8592,0.0,8.5343,8.4719,8.571,8.4682,8.4903,8.617,8.6427,8.7822,9.0152,9.2758,9.4703,9.6098,9.6539,9.7897,9.9732,10.0099,10.0686,10.1274,10.1384,10.1274,10.111,10.111,10.111,10.1,10.0283,10.0099,9.9916,9.8961,9.8704,9.8337,9.6722,9.6282,9.5914,9.4446,9.4079,9.3859,9.3051,9.2758,9.2501,9.1913,9.1583,9.1216,9.0702,0.0,0.0,0.0,0.0,0.0,0.0,0.0,0.0,0.0,0.0,7.9323,0.0,8.0645,8.1599,8.4389,8.5967,8.6334,8.5306,8.7601,8.8445,8.7252,8.9069,9.0831,0.0,0.0,9.2134,9.3859,9.2611,9.2464,9.3345,9.4153,9.4923,9.575,9.6392,9.6685,9.6685,9.6685,9.7064,9.7612,9.7612,9.7993,9.8514,9.7864,9.7839,9.7992,8.056,8.3185,8.5278,8.5278,8.7896,9.0238,9.1059,9.1861,9.2708,9.3601,9.4446,9.5437,9.6649,9.6392,9.6135,9.6135,9.6502,9.6539,9.6171,9.6502,9.6208,9.5034,9.4153,0.0,9.2537,9.1289,9.0482,9.0078,8.8904,8.8536,8.8849,8.8536,8.8793,8.9528,9.0408,9.1436,9.2648,9.4666,9.6208,9.7346,9.7787,9.8888,10.0319,10.0816,10.122,10.1514,10.1514,10.1514,10.1514,10.1514,10.1514,10.1384,10.098,10.0907,10.0816,9.9952,9.9732,9.9475,9.8264,9.7933,9.7566,9.5951,9.5547,9.5217,9.4006,9.3712,9.3492,9.2648,9.2794,9.2721,9.1436,8.9931,0.0,0.0,0.0,0.0,0.0,0.0,0.0,0.0,0.0,0.0,0.0,8.1893,8.248,8.4462,8.5343,8.5416,8.4646,8.6867,8.7601,8.6407,8.9501,9.1401,9.1768,0.0,9.3413,9.4174,9.3371,9.3445,9.4233,9.4251,9.5118,9.6655,9.6624,9.7102,9.7881,9.7881,9.8091,9.8421,9.8421,9.8667,9.8964,9.8575,9.8682,9.8787,8.5107,8.7185,8.8979,8.9161,9.1631,9.3932,9.4923,9.6135,9.6722,9.608,9.6685,9.7676,9.8941,9.8117,9.7456,9.7456,9.7603,9.764,9.7493,9.8043,9.8043,9.7236,9.5841,9.4997,9.4813,9.3345,9.2501,0.0,9.217,9.14,9.0115,9.151,9.2207,9.2391,9.3712,9.4483,9.4887,9.6355,9.753,9.8447,9.9108,9.9842,10.0613,10.1294,10.1514,10.1514,10.1514,10.1514,10.1514,10.1514,10.1514,10.1514,10.1514,10.1514,10.1404,10.0686,10.0576,10.0393,9.9585,9.9365,9.9035,9.7566,9.7089,9.6575,9.5144,9.4666,9.4336,9.3529,9.3859,9.3896,9.2574,9.1657,0.0,0.0,0.0,0.0,0.0,0.0,0.0,0.0,0.0,0.0,8.4042,0.0,8.4693,8.5296,8.5204,8.4976,8.4609,8.6151,8.6877,8.6581,9.0015,9.1933,9.2015,0.0,9.4499,9.4616,9.4253,9.4442,9.5018,9.4617,9.5465,9.7177,9.694,9.767,9.9007,9.9007,9.9108,9.9249,9.9249,9.9346,9.9469,9.9318,9.936,9.9277,8.9368,9.1179,9.2811,9.3563,9.4573,9.5804,9.7309,9.7676,9.7769,9.7696,9.8374,9.8905,9.9071,9.9622,9.9952,9.9952,10.0613,10.0686,9.9989,9.9989,9.9732,9.8924,9.8043,9.7199,9.6502,9.5621,9.4813,0.0,0.0,9.1436,8.85,9.1546,9.3382,9.4079,9.4226,9.5107,9.6539,9.7419,9.8668,10.0099,10.0209,10.0706,10.1404,10.1514,10.1514,10.1514,10.1514,10.1514,10.1514,10.1514,10.1514,10.1514,10.1514,10.1514,10.1514,10.1404,10.1404,10.122,10.0393,10.0209,9.9989,9.9108,9.8337,9.7566,9.6685,9.5914,9.518,9.4336,9.4226,9.4226,9.4079,9.3418,9.3051,0.0,0.0,0.0,0.0,0.0,8.8629,8.7729,0.0,0.0,0.0,8.7325,8.7757,8.7762,8.7136,8.6133,8.4682,8.6151,8.7623,8.9008,8.8725,9.1268,9.6992,9.3646,9.3409,9.6272,9.4805,9.414,9.4215,9.4886,9.5301,9.5583,9.6983,9.8128,9.9007,9.9007,9.9414,10.0099,10.0099,10.0482,10.1001,10.0304,10.0493,10.0896,9.3908,9.5115,9.6061,9.6392,9.7126,9.8043,9.9181,9.9328,9.9512,10.0009,9.9916,9.9989,10.0503,9.9989,9.9769,10.0283,10.0209,10.0099,10.0283,10.0816,10.0706,9.9879,9.9512,9.8961,9.8154,9.7346,9.6759,0.0,0.0,0.0,9.4042,9.5364,9.5878,9.5768,9.6759,9.7273,9.7493,9.8778,9.9695,10.0283,10.0283,10.0796,10.1514,10.1514,10.122,10.0796,10.1274,10.122,10.089,10.131,10.1514,10.1514,10.1514,10.1514,10.1514,10.1514,10.1514,10.1384,10.109,10.098,10.0796,9.9989,9.9585,9.9145,9.8337,9.753,9.6722,9.5914,9.5364,9.5034,9.5034,9.4777,9.4336,0.0,0.0,0.0,0.0,0.0,0.0,8.8316,0.0,0.0,0.0,8.8152,8.8696,8.8136,8.9204,8.8954,8.6788,8.9121,9.0416,9.0115,9.0593,9.2595,9.6135,9.4514,9.4567,9.6367,9.574,9.5407,9.5435,9.5281,9.5793,9.6819,9.8428,9.961,10.0413,10.0413,10.06,10.0885,10.0885,10.1021,10.1298,10.1008,10.0983,10.1181,9.7236,9.786,9.8337,9.8557,9.9071,9.9732,10.0503,10.0706,10.0927,10.1384,10.12,10.1017,10.109,10.0319,9.9952,10.0283,9.9989,9.9989,10.0613,10.122,10.12,10.0686,10.0706,0.0,9.9475,9.8888,9.8484,9.8264,9.8264,0.0,9.6502,9.6502,9.6832,9.7456,9.8594,9.8924,9.8668,9.9805,10.0393,10.0706,10.0706,10.098,10.1514,10.12,10.0796,10.0319,10.0686,10.0393,9.9989,10.0613,10.1,10.122,10.1384,10.1514,10.1514,10.1514,10.1514,10.1514,10.1514,10.1514,10.1404,10.0796,10.0503,10.0209,9.9585,9.8814,9.8007,9.7236,9.6612,9.6061,9.5565,9.5675,9.5474,9.4336,0.0,0.0,0.0,9.0904,0.0,0.0,8.9491,8.905,8.883,9.0024,9.0374,8.9237,9.1246,9.1333,8.8567,9.1031,9.2137,9.1255,9.1909,9.3355,9.5517,9.5166,9.5451,9.6288,9.6288,9.6288,9.6269,9.602,9.6642,9.8102,9.9488,10.0606,10.1279,10.1279,10.1279,10.1279,10.1279,10.1279,10.1279,10.1279,10.1279,10.1279,9.8924,9.9071,9.9365,10.0099,10.0283,10.0576,10.1404,10.1514,10.1514,10.1514,10.2191,10.2081,10.0503,10.098,10.122,10.0393,10.098,10.1514,10.1514,10.1514,10.1514,0.0,0.0,10.109,10.0283,10.0283,9.9879,9.9108,0.0,0.0,9.3161,9.3161,9.529,9.9052,9.9088,9.9548,10.0283,10.0283,10.0816,10.1514,10.1514,10.1514,10.1404,10.0613,10.0283,10.0209,9.9402,9.9125,9.9125,9.9145,9.9659,10.0503,10.12,10.1514,10.1514,10.1514,10.1514,10.1514,10.1514,10.1514,10.1514,10.1514,10.0907,10.0283,10.0283,9.9659,9.8851,9.8043,9.7879,9.7383,9.5785,9.6171,9.6685,9.6649,0.0,0.0,0.0,9.3308,0.0,9.4006,9.4226,9.3896,9.3088,9.3749,9.3525,9.1806,9.3205,9.272,8.9386,9.0721,9.1951,9.2667,9.1855,0.0,9.6231,9.5441,9.5451,9.6288,9.6288,9.6288,9.6326,9.7125,9.7933,9.8817,9.9712,10.0606,10.1279,10.1279,10.1279,10.1279,10.1279,10.1279,10.1279,10.1279,10.1279,10.1279,10.0576,10.0686,10.0796,10.111,10.1604,10.2008,10.2301,10.2779,10.3109,10.3109,10.3403,10.3109,10.2081,10.1677,10.1788,10.2705,10.1991,10.1991,0.0,10.3109,10.3101,10.3112,10.3094,10.2997,10.2781,10.2798,10.2403,10.1596,0.0,0.0,9.9643,9.9643,10.0002,10.0702,10.0691,10.0887,10.1092,10.1113,10.0907,10.0686,10.0686,10.0393,9.9842,9.9585,9.9145,9.8704,9.8998,9.8741,9.8374,9.8924,9.9622,10.0209,9.9952,10.0613,10.1514,10.1514,10.1514,10.1514,10.1514,10.1514,10.1514,10.1514,10.1274,10.109,10.109,10.0503,9.9695,9.8888,9.8741,9.8411,9.7346,9.6906,9.6539,9.5969,9.4997,0.0,9.463,0.0,9.1987,9.2593,9.1657,9.1062,0.0,9.2124,0.0,9.4019,9.5696,9.5196,9.1825,9.3176,9.4164,0.0,9.4063,0.0,9.7096,9.6288,9.6019,9.6288,9.6288,9.6596,9.7134,9.7365,9.8288,9.9721,9.999,10.0606,10.1279,10.1279,10.1279,10.1279,10.1279,10.1279,10.1279,10.1279,10.1279,10.1279,10.1788,10.1991,10.2008,10.2301,10.2815,10.3182,10.3182,10.3293,10.3403,10.3403,10.3403,10.3293,10.2815,10.2809,10.3019,10.3407,10.2779,10.2779,10.3806,10.388,10.3997,10.4388,10.4387,10.4415,10.4387,10.4478,0.0,10.321,10.3686,10.361,10.272,10.272,10.2305,10.1505,10.1218,10.098,10.1002,10.0676,10.0283,9.9842,9.9842,9.9548,9.9052,9.8778,9.8337,9.7953,9.8117,9.7897,9.753,9.8043,9.8741,9.9365,9.9181,9.9805,10.0706,10.1,10.1294,10.1514,10.1514,10.1514,10.1514,10.1514,10.1514,10.1514,10.1514,10.109,10.0503,9.9732,9.9548,9.9292,9.8484,9.7676,9.6979,9.6502,9.5474,9.474,9.474,0.0,9.2978,0.0,0.0,0.0,0.0,9.3772,9.4568,0.0,9.6745,9.6279,9.3832,9.52,9.5789,9.5138,9.5051,9.5489,9.6557,9.6403,9.6288,9.6288,9.6596,9.7019,9.7519,9.8173,9.9067,10.0106,10.0404,10.0789,10.1279,10.1279,10.1279,10.1279,10.1279,10.1279,10.1279,10.1279,10.1279,10.1279,10.2595,10.2815,10.2999,10.3806,10.3917,10.399,10.388,10.3293,10.2795,10.2815,10.2815,10.2799,10.2917,10.4298,10.4616,10.3118,10.37,10.4199,10.4178,10.4178,10.4602,10.5423,10.5384,10.5405,10.54,10.5302,10.4886,10.4115,10.4115,10.3579,10.2689,10.2689,10.2192,10.1408,10.0586,10.0309,10.0202,9.9423,9.9052,9.9035,9.9035,9.8998,9.8851,9.808,9.7843,9.7713,9.6979,9.6685,9.6685,9.6685,9.7236,9.8007,9.8778,9.9108,9.9365,10.0099,10.0927,10.1384,10.1514,10.1514,10.1514,10.1514,10.1514,10.1514,10.1514,10.1514,10.1294,10.0503,10.0393,10.0099,9.9328,9.8557,9.8043,9.797,9.6722,9.5712,9.5675,9.496,9.4997,0.0,0.0,0.0,0.0,9.7636,9.7407,0.0,9.6698,9.6233,9.549,9.6756,9.6711,9.5066,9.4989,9.5027,9.5104,9.5903,9.6326,9.6403,9.7134,9.7557,9.775,9.9375,10.0106,10.0221,10.1019,10.1279,10.1279,10.1279,10.1279,10.1279,10.1279,10.1279,10.1279,10.1279,10.1279,10.1279,10.3586,10.3586,10.3696,10.388,10.4394,10.4614,10.399,10.4284,10.43,10.3696,10.3586,10.3891,10.4485,10.5005,10.5311,10.548,10.6293,10.7098,10.7719,10.7702,10.7801,10.8024,10.7393,10.7093,10.7093,10.6492,10.5687,10.4806,10.4806,10.4114,10.2714,10.2714,10.2308,10.1407,10.0711,10.0306,10.02,9.9442,9.8741,9.819,9.819,9.7823,9.7236,9.7052,9.6979,9.6942,9.6759,9.6685,9.6685,9.6685,9.7236,9.7953,9.8117,9.9035,10.0209,10.098,10.0907,10.0686,10.1274,10.1514,10.1514,10.1514,10.1514,10.1514,10.1514,10.1514,10.1384,10.1294,10.12,10.1,10.0209,9.9842,9.9512,9.8924,9.8521,9.8043,9.7419,9.6649,9.6061,0.0,9.5731,9.6001,9.6757,9.6244,9.682,0.0,0.0,9.6898,9.7891,9.7645,9.6711,9.5066,9.4989,9.5335,9.598,9.6211,9.6596,9.7211,9.7403,9.8211,9.949,9.9913,10.0404,10.1019,10.1202,10.1279,10.1279,10.1279,10.1279,10.1279,10.1279,10.1279,10.1279,10.1279,10.1279,10.1279,10.4394,10.4394,10.4706,10.5504,10.5989,10.622,10.6214,10.6214,10.6102,10.5711,10.5302,10.5315,10.5691,10.68,10.7515,10.7595,10.7298,10.7308,10.7692,10.7821,10.791,10.8293,10.79,10.7606,10.7703,10.7213,10.6597,10.5713,10.5713,10.4991,10.3802,10.3395,10.2778,10.1984,10.0799,10.0306,10.02,9.9423,9.8851,9.8447,9.8447,9.819,9.7787,9.7787,9.7566,9.7236,9.7236,9.7016,9.6685,9.6685,9.6979,9.7493,9.8227,9.8814,9.9512,10.098,10.122,10.0907,10.1404,10.1514,10.1514,10.1514,10.1514,10.1514,10.1514,10.1514,10.1514,10.1514,10.1514,10.1404,10.0907,10.0503,10.0209,9.9732,9.9365,9.8961,9.8521,9.808,9.7776,9.7709,9.7354,9.7514,9.8632,9.7639,9.7801,9.9932,9.8493,0.0,9.8202,9.775,9.6903,9.5634,9.5595,9.5826,9.6288,9.6673,9.7057,9.7519,9.8288,9.9183,10.0106,10.0481,10.0904,10.1279,10.1279,10.1279,10.1279,10.1279,10.1279,10.1289,10.0904,10.0789,10.0712,10.0289,10.0212,10.0212,10.5693,10.5804,10.6194,10.7907,10.8015,10.8096,10.9023,10.8396,10.7883,10.7883,10.7295,10.6888,10.701,10.8911,11.0002,10.9405,10.8014,10.7191,10.7191,10.7191,10.7483,10.8182,10.7902,10.7791,10.7895,10.7598,10.7098,10.6213,10.6213,10.5592,10.4489,10.3881,10.2991,10.1988,10.0706,10.01,10.0084,9.9403,9.9108,9.9108,9.9108,9.9108,9.9108,9.9108,9.8668,9.808,9.7933,9.7456,9.6869,9.6722,9.6685,9.6979,9.8447,9.8447,9.8357,10.0613,10.1274,10.131,10.1514,10.1514,10.1514,10.1514,10.1514,10.1514,10.1514,10.1514,10.1514,10.1514,10.1514,10.1514,10.1514,10.0907,10.0576,10.0796,10.0099,9.9512,9.9622,9.9539,9.9666,10.0183,9.9909,10.0179,10.1509,10.0192,9.9539,10.0183,9.9375,9.8481,9.775,9.7711,9.7365,9.6711,9.6557,9.6557,9.6673,9.7365,9.775,9.7904,9.9375,10.0183,10.0298,10.1019,10.1279,10.1279,10.1279,10.1279,10.1279,10.1279,10.1279,10.1202,10.0404,10.0106,9.999,9.9096,9.8788,9.8788,10.9195,10.8802,10.8798,11.0486,10.962,10.9012,10.9922,10.9296,10.8805,10.8815,10.8701,10.8887,10.9581,11.001,11.0411,11.1115,11.0916,11.0706,11.0706,11.0706,11.0779,11.0918,10.9497,10.8695,10.8713,10.729,10.6213,10.529,10.529,10.419,10.2086,10.1882,10.1094,9.9649,9.9403,9.9305,9.9286,9.9167,9.9108,9.9108,9.9108,9.9108,9.9108,9.9108,9.9035,9.8814,9.8117,9.7843,9.7603,9.6942,9.6685,9.6869,9.7787,9.8007,9.8227,9.9989,10.0503,10.0613,10.1274,10.1514,10.1514,10.1514,10.1514,10.1514,10.1514,10.1514,10.1514,10.1514,10.1514,10.1514,10.1514,10.1404,10.1808,10.3109,10.2081,10.1404,10.1988,10.1591,10.0914,10.0381,10.1376,10.2194,10.2485,10.1499,10.0998,10.1087,9.9673,9.875,9.8596,9.8596,9.8519,9.8404,9.7711,9.7673,9.8404,9.8519,9.8981,9.9721,9.999,10.0491,10.1096,10.1202,10.1279,10.1279,10.1279,10.1279,10.1279,10.1279,10.1279,10.1202,10.0404,10.0106,9.999,9.9096,9.8788,9.8788,11.079,11.051,11.0615,11.1909,11.1095,11.0693,11.1984,11.1503,11.1211,11.1619,11.1696,11.1812,11.2213,11.271,11.2893,11.2885,11.3291,11.3291,11.2906,11.2022,11.1511,11.1511,11.0714,10.9906,10.8906,10.7713,10.6713,10.579,10.579,10.5218,10.4111,10.3288,10.2492,10.17,10.079,10.0393,10.0393,10.0393,10.0393,10.0393,10.0393,10.0393,10.0393,10.0393,10.0099,9.9695,9.9328,9.8631,9.7843,9.7456,9.7052,9.6832,9.764,9.7916,9.8227,9.9842,10.0613,10.098,10.1404,10.1514,10.1514,10.1514,10.1514,10.1514,10.1514,10.1514,10.1514,10.1514,10.1514,10.1514,10.1514,10.1514,10.1915,10.3088,10.2277,10.1584,10.1979,10.209,10.2007,10.1625,10.2591,10.3498,10.4001,10.2417,10.1279,10.1279,9.975,9.8788,9.8788,9.8788,9.8788,9.8788,9.8404,9.8404,9.8788,9.9259,9.9721,10.0106,10.0481,10.0904,10.1279,10.1279,10.1279,10.1279,10.1279,10.1279,10.1279,10.1279,10.101,10.0596,9.9712,9.9096,9.8596,9.775,9.7442,9.7442,11.2288,11.2084,11.2313,11.3402,11.2692,11.2601,11.4302,11.3907,11.3599,11.4484,11.4599,11.4599,11.4599,11.5187,11.5291,11.4599,11.5215,11.5291,11.4599,11.3407,11.2522,11.2088,11.1906,11.1098,10.9483,10.8482,10.7713,10.7021,10.6587,10.6294,10.6107,10.4702,10.3918,10.3592,10.2221,10.1514,10.1514,10.1514,10.1514,10.1514,10.1514,10.1514,10.1514,10.1514,10.109,10.0596,10.0393,9.9402,9.8154,9.797,9.7346,9.6795,9.7419,9.7603,9.7933,9.9548,10.0686,10.1514,10.1514,10.1514,10.1514,10.1514,10.1514,10.1514,10.1514,10.1514,10.1514,10.1514,10.1514,10.1514,10.1514,10.1714,10.2086,10.3107,10.2612,10.2111,10.2286,10.2707,10.2911,10.2685,10.34,10.4102,10.4798,10.2904,10.1587,10.1587,10.0212,9.9365,9.9365,9.9365,9.9365,9.9365,9.9211,9.9173,9.9365,9.9981,10.0414,10.0414,10.1019,10.1279,10.1279,10.1279,10.1279,10.1279,10.1279,10.1212,10.1019,10.1019,10.0481,9.9721,9.8827,9.8096,9.7403,9.6596,9.6288,9.6288,11.4898,11.4399,11.4295,11.5916,11.489,11.4401,11.6099,11.5599,11.5407,11.6187,11.6303,11.6303,11.6303,11.6418,11.6418,11.6303,11.6418,11.6418,11.6303,11.6187,11.5407,11.3907,11.3022,11.2203,11.128,10.9713,10.879,10.8713,10.7213,10.6013,10.5282,10.4387,10.3604,10.2801,10.1897,10.1514,10.1514,10.1514,10.1514,10.1514,10.1514,10.1514,10.1514,10.1514,10.1514,10.1274,10.0576,9.9732,9.8924,9.8154,9.7346,9.6722,9.6759,9.6795,9.7089,9.8741,10.0283,10.1514,10.1514,10.1514,10.1514,10.1514,10.1514,10.1514,10.1514,10.1514,10.1514,10.1514,10.1514,10.1514,10.1514,10.211,10.3106,10.4798,10.4318,10.4104,10.4685,10.4207,10.3502,10.2703,10.3415,10.3903,10.3982,10.3097,10.252,10.252,10.1587,10.1087,10.1087,10.1087,10.1087,10.1087,10.0404,10.0414,10.1087,10.1212,10.1202,10.1202,10.1289,10.1279,10.1279,10.1279,10.1279,10.1279,10.1279,10.0904,10.0183,10.0183,9.9683,9.8788,9.7942,9.7557,9.7403,9.6596,9.6288,9.6288,11.5995,11.5803,11.5803,11.6418,11.561,11.5215,11.6303,11.5792,11.561,11.6418,11.6495,11.6495,11.6495,11.6495,11.6495,11.6495,11.6495,11.6495,11.6495,11.6495,11.6187,11.561,11.4791,11.3907,11.3099,11.1406,11.0021,10.8906,10.779,10.679,10.5897,10.4609,10.3819,10.3399,10.2109,10.1514,10.1514,10.1514,10.1514,10.1514,10.1514,10.1514,10.1514,10.1514,10.1514,10.1514,10.122,10.0503,9.9732,9.8924,9.8117,9.7346,9.6869,9.6685,9.7016,9.8631,10.0209,10.1514,10.1514,10.1514,10.1514,10.1514,10.1514,10.1514,10.1514,10.1514,10.1514,10.1514,10.1514,10.1714,10.2203,10.2497,10.3187,10.4886,10.4509,10.3888,10.3601,10.3781,10.3414,10.2015,10.3109,10.3905,10.3905,10.3097,10.2597,10.2597,10.1779,10.1279,10.1279,10.1279,10.1279,10.1279,10.1019,10.1019,10.1279,10.1279,10.1279,10.1279,10.1279,10.1279,10.1279,10.1279,10.1279,10.1279,10.1279,10.1087,10.0789,10.0789,9.9981,9.875,9.8442,9.7673,9.6711,9.6403,9.6288,9.6288,11.6495,11.6495,11.6495,11.6495,11.5995,11.5918,11.6418,11.5995,11.5918,11.6418,11.6495,11.6495,11.6495,11.6495,11.6495,11.6495,11.6495,11.6495,11.6495,11.6495,11.6495,11.6495,11.5995,11.5407,11.4791,11.3099,11.1319,10.9297,10.8212,10.6997,10.5589,10.4204,10.3582,10.348,10.2091,10.1514,10.1514,10.1514,10.1514,10.1514,10.1514,10.1514,10.1514,10.1514,10.1514,10.1514,10.1514,10.098,10.0209,9.9659,9.8778,9.7787,9.7236,9.7236,9.7713,9.9071,10.0393,10.1514,10.1514,10.1514,10.1514,10.1514,10.1514,10.1514,10.1514,10.1514,10.1384,10.122,10.1312,10.1608,10.1916,10.2299,10.3014,10.4213,10.4199,10.3704,10.2803,10.3117,10.3002,10.1511,10.2411,10.3097,10.3097,10.252,10.2212,10.2212,10.1587,10.1279,10.1279,10.1279,10.1279,10.1279,10.1279,10.1279,10.1279,10.1279,10.1279,10.1279,10.1279,10.1279,10.1279,10.1279,10.1279,10.1279,10.1279,10.101,10.0519,10.0519,9.9519,9.8019,9.8019,9.7326,9.6288,9.6288,9.6288,9.6288,11.6495,11.6495,11.6495,11.6495,11.6495,11.6495,11.6495,11.6495,11.6495,11.6495,11.6495,11.6495,11.6495,11.6495,11.6495,11.6495,11.6495,11.6495,11.6495,11.6495,11.6495,11.6495,11.6495,11.6495,11.6495,11.4907,11.2701,11.0191,10.8524,10.6384,10.3995,10.3105,10.2711,10.2712,10.1914,10.1514,10.1514,10.1514,10.1514,10.1514,10.1514,10.1514,10.1514,10.1514,10.1514,10.1514,10.1514,10.098,10.0283,10.0283,9.9218,9.7897,9.7916,9.8447,9.9255,10.0099,10.0927,10.1514,10.1514,10.1514,10.1514,10.1514,10.1514,10.1514,10.1514,10.1514,10.1294,10.0486,10.0889,10.1297,10.0513,10.1586,10.26,10.26,10.3295,10.3597,10.2712,10.2597,10.2289,10.1394,10.1279,10.1279,10.1279,10.1279,10.1279,10.1279,10.1279,10.1279,10.1279,10.1279,10.1279,10.1279,10.1279,10.1279,10.1279,10.1279,10.1279,10.1279,10.1279,10.1279,10.1279,10.1279,10.1279,10.1279,10.1279,10.0404,9.8788,9.8788,9.7827,9.6326,9.6326,9.6326,9.6288,9.6288,9.6288,9.6288,11.6495,11.6495,11.6495,11.6495,11.6495,11.6495,11.6495,11.6495,11.6495,11.6495,11.6495,11.6495,11.6495,11.6495,11.6495,11.6495,11.6495,11.6495,11.6495,11.6495,11.6495,11.6495,11.6495,11.6495,11.6495,11.4295,11.2385,11.1004,10.8195,10.6118,10.4809,10.3405,10.2711,10.2712,10.1914,10.1514,10.1514,10.1514,10.1514,10.1514,10.1514,10.1514,10.1514,10.1514,10.1514,10.1514,10.1514,10.131,10.111,10.0503,9.9989,9.9475,9.8924,9.8924,9.9255,10.0099,10.0927,10.1404,10.0796,10.111,10.1514,10.1514,10.1514,10.1584,10.2185,10.1879,10.1579,10.1906,10.1706,10.16,10.1882,10.2319,10.2786,10.3388,10.3678,10.3597,10.2712,10.2597,10.2289,10.1394,10.1279,10.1279,10.1279,10.1279,10.1279,10.1279,10.1279,10.1279,10.1279,10.1279,10.1279,10.1279,10.1279,10.1279,10.1279,10.1279,10.1279,10.1279,10.1279,10.1279,10.1279,10.1279,10.1279,10.1279,10.1279,10.0712,9.9721,9.9721,9.8711,9.7134,9.7134,9.6788,9.6288,9.6288,9.6288,9.6288,11.6495,11.6495,11.6495,11.6495,11.6495,11.6495,11.6495,11.6495,11.6495,11.6495,11.6495,11.6495,11.6495,11.6495,11.6495,11.6495,11.6495,11.6495,11.6495,11.6495,11.6495,11.6495,11.6495,11.6305,11.6005,11.45,11.2809,11.0914,10.8215,10.6096,10.4598,10.3,10.2204,10.2185,10.1719,10.1514,10.1514,10.1514,10.1514,10.1514,10.1514,10.1514,10.1514,10.1514,10.1514,10.1514,10.1514,10.1514,10.1384,10.0907,10.0576,10.0209,9.9732,9.9585,9.9659,10.0209,10.0927,10.1294,10.0099,10.0393,10.1006,10.1011,10.1292,10.1591,10.2085,10.1789,10.1593,10.21,10.1822,10.1497,10.1611,10.1891,10.2304,10.2816,10.2904,10.2712,10.2212,10.2097,10.1904,10.1394,10.1279,10.1279,10.1279,10.1279,10.1279,10.1279,10.1279,10.1279,10.1279,10.1279,10.1279,10.1279,10.1279,10.1279,10.1279,10.1279,10.1279,10.1279,10.1279,10.1279,10.1279,10.1279,10.1087,10.0789,10.1212,10.0519,9.9096,9.9452,9.8557,9.7019,9.7019,9.6749,9.6288,9.6288,9.6288,9.6288,11.6495,11.6495,11.6495,11.6495,11.6495,11.6495,11.6495,11.6495,11.6495,11.6495,11.6495,11.6495,11.6495,11.6495,11.6495,11.6495,11.6495,11.6495,11.6495,11.6495,11.6495,11.6495,11.6495,11.6092,11.5102,11.5012,11.3392,11.0199,10.841,10.6411,10.399,10.2395,10.1587,10.1514,10.1514,10.1514,10.1514,10.1514,10.1514,10.1514,10.1514,10.1514,10.1514,10.1514,10.1514,10.1514,10.1514,10.1514,10.1514,10.1514,10.1,10.0283,10.0393,10.0393,10.0393,10.0319,10.0927,10.109,9.9438,9.9608,10.0324,10.01,10.0785,10.1485,10.1611,10.1501,10.1407,10.1598,10.1491,10.1214,10.0409,10.0798,10.1279,10.1279,10.1279,10.1279,10.1279,10.1279,10.1279,10.1279,10.1279,10.1279,10.1279,10.1279,10.1279,10.1279,10.1279,10.1279,10.1279,10.1279,10.1279,10.1279,10.1279,10.1279,10.1279,10.1279,10.1279,10.1279,10.1279,10.1279,10.1279,10.1279,10.0904,10.0106,10.0904,9.9788,9.7557,9.8365,9.775,9.6288,9.6288,9.6288,9.6288,9.6288,9.6288,9.6288,11.6495,11.6495,11.6495,11.6495,11.6495,11.6495,11.6495,11.6495,11.6495,11.6495,11.6495,11.6495,11.6495,11.6495,11.6495,11.6495,11.6495,11.6495,11.6495,11.6495,11.6495,11.6495,11.6495,11.5804,11.4199,11.3486,11.2487,11.1,10.81,10.6002,10.4777,10.3219,10.2081,10.1514,10.1514,10.1514,10.1514,10.1514,10.1514,10.1514,10.1514,10.1514,10.1514,10.1514,10.1514,10.1514,10.1514,10.1514,10.1514,10.1514,10.1,10.0393,10.098,10.12,10.109,10.0503,10.0927,10.098,9.8778,9.9205,9.9972,9.8656,9.9893,10.1614,10.2183,10.1887,10.1599,10.2184,10.1797,10.1309,10.1102,10.121,10.1279,10.1279,10.1279,10.1279,10.1279,10.1279,10.1279,10.1279,10.1279,10.1279,10.1279,10.1279,10.1279,10.1279,10.1279,10.1279,10.1279,10.1279,10.1279,10.1279,10.1279,10.1279,10.1279,10.1279,10.1279,10.1279,10.1279,10.1279,10.1279,10.1279,10.0904,10.0106,10.0298,9.925,9.7519,9.7711,9.7211,9.6288,9.6288,9.6288,9.6288,9.6288,9.6288,9.6288,11.6495,11.6495,11.6495,11.6495,11.6495,11.6495,11.6495,11.6495,11.6495,11.6495,11.6495,11.6495,11.6495,11.6495,11.6495,11.6495,11.6495,11.6495,11.6495,11.6495,11.6495,11.6495,11.6495,11.5689,11.3923,11.3513,11.2616,11.1305,10.7994,10.6192,10.5715,10.3293,10.1898,10.1514,10.1514,10.1514,10.1514,10.1514,10.1514,10.1514,10.1514,10.1514,10.1514,10.1514,10.1514,10.1514,10.1514,10.1514,10.1514,10.1514,10.1501,10.1498,10.1905,10.2389,10.2491,10.1689,10.1709,10.158,9.9604,9.9627,10.0012,9.9148,9.9877,10.1011,10.1812,10.1699,10.1602,10.2399,10.1901,10.1313,10.1307,10.1279,10.1279,10.1279,10.1279,10.1279,10.1279,10.1279,10.1279,10.1279,10.1279,10.1279,10.1279,10.1279,10.1279,10.1279,10.1279,10.1279,10.1279,10.1279,10.1279,10.1279,10.1279,10.1279,10.1279,10.1279,10.1279,10.1279,10.1279,10.1279,10.1279,10.1279,10.0596,9.949,9.9913,9.8904,9.698,9.7326,9.7019,9.6288,9.6288,9.6288,9.6288,9.6288,9.6288,9.6288,11.6495,11.6495,11.6495,11.6495,11.6495,11.6495,11.6495,11.6495,11.6495,11.6495,11.6495,11.6495,11.6495,11.6495,11.6495,11.6495,11.6495,11.6495,11.6495,11.6495,11.6495,11.6495,11.6495,11.5689,11.3923,11.3911,11.2906,11.1001,10.7991,10.6507,10.6082,10.3109,10.1604,10.1514,10.1514,10.1514,10.1514,10.1514,10.1514,10.1514,10.1514,10.1514,10.1514,10.1514,10.1514,10.1514,10.1514,10.1514,10.1497,10.1677,10.211,10.2691,10.2903,10.3496,10.3988,10.2984,10.278,10.2577,10.0908,10.0505,10.0392,10.0392,10.0383,10.058,10.1192,10.1307,10.151,10.2212,10.1779,10.1279,10.1279,10.1279,10.1279,10.1279,10.1279,10.1279,10.1279,10.1279,10.1279,10.1279,10.1279,10.1279,10.1279,10.1279,10.1279,10.1279,10.1279,10.1279,10.1279,10.1279,10.1279,10.1279,10.1279,10.1279,10.1279,10.1279,10.1202,10.1096,10.1096,10.1096,10.1096,10.1202,10.0289,9.8634,9.949,9.8519,9.6365,9.7019,9.6903,9.6288,9.6288,9.6288,9.6288,9.6288,9.6288,9.6288,11.6495,11.6495,11.6495,11.6495,11.6495,11.6495,11.6495,11.6495,11.6495,11.6495,11.6495,11.6495,11.6495,11.6495,11.6495,11.6495,11.6495,11.6495,11.6495,11.6495,11.6495,11.6495,11.6495,11.5689,11.3923,11.3911,11.27,11.0215,10.8306,10.6706,10.518,10.3403,10.2191,10.1514,10.1514,10.1514,10.1514,10.1514,10.1514,10.1514,10.1514,10.1514,10.1514,10.1514,10.1514,10.1514,10.1514,10.1514,10.1617,10.2297,10.2604,10.2814,10.3582,10.4408,10.4689,10.321,10.321,10.3497,10.1791,10.1291,10.1192,10.1202,10.1203,10.1218,10.1295,10.1307,10.1279,10.152,10.1394,10.1279,10.1279,10.1279,10.1279,10.1279,10.1279,10.1279,10.1279,10.1279,10.1279,10.1279,10.1279,10.1279,10.1279,10.1279,10.1279,10.1279,10.1279,10.1279,10.1279,10.1279,10.1279,10.1279,10.1279,10.1279,10.1279,10.1279,10.0981,10.0298,10.0298,10.0298,10.0298,10.1019,9.9981,9.7711,9.8596,9.7942,9.6326,9.6442,9.6403,9.6288,9.6288,9.6288,9.6288,9.6288,9.6288,9.6288,11.6495,11.6495,11.6495,11.6495,11.6495,11.6495,11.6495,11.6495,11.6495,11.6495,11.6495,11.6495,11.6495,11.6495,11.6495,11.6495,11.6495,11.6495,11.6495,11.6495,11.6495,11.6495,11.6003,11.521,11.3907,11.3414,11.1911,10.9312,10.8196,10.7205,10.6486,10.4394,10.2889,10.2191,10.2191,10.1898,10.1514,10.1514,10.1514,10.1514,10.1514,10.1514,10.1514,10.1514,10.1514,10.1594,10.2014,10.2498,10.3012,10.3289,10.3703,10.4197,10.4491,10.5201,10.5701,10.5001,10.4695,10.4504,10.3715,10.3202,10.2704,10.2194,10.1992,10.1904,10.1394,10.1279,10.1279,10.1279,10.1279,10.1279,10.1279,10.1279,10.1279,10.1279,10.1279,10.1279,10.1279,10.1279,10.1279,10.1279,10.1279,10.1279,10.1279,10.1279,10.1279,10.1279,10.1279,10.1279,10.1279,10.1279,10.1279,10.1279,10.1279,10.1279,10.1279,10.0904,10.0491,10.0106,9.9606,9.9375,9.9375,9.975,9.9019,9.7519,9.7904,9.7403,9.6288,9.6288,9.6288,9.6288,9.6288,9.6288,9.6288,9.6288,9.6288,9.6288]}]]